<?xml version="1.0" encoding="UTF-8" ?>
<gpx version="1.1" xmlns:xsi="http://www.w3.org/2001/XMLSchema-instance" 
    xmlns="http://www.topografix.com/GPX/1/1" 
    xsi:schemaLocation="http://www.topografix.com/GPX/1/1 http://www.topografix.com/GPX/1/1/gpx.xsd" 
    creator="Openrunner - https://www.openrunner.com" >	<trk>
						<name>ECLA G1  du 15-08-2024-19659936</name>
						<trkseg>
					<trkpt lat="45.825640" lon="4.608870">
						<ele>229</ele>
						<time>2024-08-13T13:36:21Z</time>
					</trkpt>
					<trkpt lat="45.826330" lon="4.610220">
						<ele>228</ele>
						<time>2024-08-13T13:36:42Z</time>
					</trkpt>
					<trkpt lat="45.826620" lon="4.610550">
						<ele>228</ele>
						<time>2024-08-13T13:36:48Z</time>
					</trkpt>
					<trkpt lat="45.827010" lon="4.610870">
						<ele>228</ele>
						<time>2024-08-13T13:36:56Z</time>
					</trkpt>
					<trkpt lat="45.827400" lon="4.611150">
						<ele>228</ele>
						<time>2024-08-13T13:37:04Z</time>
					</trkpt>
					<trkpt lat="45.828220" lon="4.609040">
						<ele>231</ele>
						<time>2024-08-13T13:37:34Z</time>
					</trkpt>
					<trkpt lat="45.829150" lon="4.609540">
						<ele>233</ele>
						<time>2024-08-13T13:37:52Z</time>
					</trkpt>
					<trkpt lat="45.831770" lon="4.612310">
						<ele>232</ele>
						<time>2024-08-13T13:38:50Z</time>
					</trkpt>
					<trkpt lat="45.833720" lon="4.614410">
						<ele>234</ele>
						<time>2024-08-13T13:39:33Z</time>
					</trkpt>
					<trkpt lat="45.834500" lon="4.615420">
						<ele>231</ele>
						<time>2024-08-13T13:39:52Z</time>
					</trkpt>
					<trkpt lat="45.834850" lon="4.615930">
						<ele>230</ele>
						<time>2024-08-13T13:40:01Z</time>
					</trkpt>
					<trkpt lat="45.835240" lon="4.616440">
						<ele>232</ele>
						<time>2024-08-13T13:40:10Z</time>
					</trkpt>
					<trkpt lat="45.835200" lon="4.616680">
						<ele>232</ele>
						<time>2024-08-13T13:40:13Z</time>
					</trkpt>
					<trkpt lat="45.835240" lon="4.617940">
						<ele>228</ele>
						<time>2024-08-13T13:40:29Z</time>
					</trkpt>
					<trkpt lat="45.835010" lon="4.618650">
						<ele>225</ele>
						<time>2024-08-13T13:40:38Z</time>
					</trkpt>
					<trkpt lat="45.834780" lon="4.619260">
						<ele>226</ele>
						<time>2024-08-13T13:40:47Z</time>
					</trkpt>
					<trkpt lat="45.834750" lon="4.619390">
						<ele>227</ele>
						<time>2024-08-13T13:40:49Z</time>
					</trkpt>
					<trkpt lat="45.834750" lon="4.619700">
						<ele>228</ele>
						<time>2024-08-13T13:40:52Z</time>
					</trkpt>
					<trkpt lat="45.834780" lon="4.619890">
						<ele>228</ele>
						<time>2024-08-13T13:40:55Z</time>
					</trkpt>
					<trkpt lat="45.834860" lon="4.620130">
						<ele>230</ele>
						<time>2024-08-13T13:40:58Z</time>
					</trkpt>
					<trkpt lat="45.834960" lon="4.620280">
						<ele>231</ele>
						<time>2024-08-13T13:41:01Z</time>
					</trkpt>
					<trkpt lat="45.835470" lon="4.620780">
						<ele>231</ele>
						<time>2024-08-13T13:41:12Z</time>
					</trkpt>
					<trkpt lat="45.835730" lon="4.621010">
						<ele>231</ele>
						<time>2024-08-13T13:41:17Z</time>
					</trkpt>
					<trkpt lat="45.837350" lon="4.622030">
						<ele>234</ele>
						<time>2024-08-13T13:41:49Z</time>
					</trkpt>
					<trkpt lat="45.837640" lon="4.622130">
						<ele>233</ele>
						<time>2024-08-13T13:41:54Z</time>
					</trkpt>
					<trkpt lat="45.837700" lon="4.622180">
						<ele>234</ele>
						<time>2024-08-13T13:41:55Z</time>
					</trkpt>
					<trkpt lat="45.837830" lon="4.622180">
						<ele>232</ele>
						<time>2024-08-13T13:41:58Z</time>
					</trkpt>
					<trkpt lat="45.837940" lon="4.622050">
						<ele>230</ele>
						<time>2024-08-13T13:42:00Z</time>
					</trkpt>
					<trkpt lat="45.837980" lon="4.621920">
						<ele>228</ele>
						<time>2024-08-13T13:42:02Z</time>
					</trkpt>
					<trkpt lat="45.837980" lon="4.621840">
						<ele>227</ele>
						<time>2024-08-13T13:42:03Z</time>
					</trkpt>
					<trkpt lat="45.837940" lon="4.621730">
						<ele>226</ele>
						<time>2024-08-13T13:42:04Z</time>
					</trkpt>
					<trkpt lat="45.838190" lon="4.621670">
						<ele>226</ele>
						<time>2024-08-13T13:42:09Z</time>
					</trkpt>
					<trkpt lat="45.839210" lon="4.621740">
						<ele>229</ele>
						<time>2024-08-13T13:42:27Z</time>
					</trkpt>
					<trkpt lat="45.839680" lon="4.621990">
						<ele>230</ele>
						<time>2024-08-13T13:42:36Z</time>
					</trkpt>
					<trkpt lat="45.840070" lon="4.622380">
						<ele>227</ele>
						<time>2024-08-13T13:42:44Z</time>
					</trkpt>
					<trkpt lat="45.840350" lon="4.622940">
						<ele>226</ele>
						<time>2024-08-13T13:42:53Z</time>
					</trkpt>
					<trkpt lat="45.840440" lon="4.623240">
						<ele>226</ele>
						<time>2024-08-13T13:42:57Z</time>
					</trkpt>
					<trkpt lat="45.840460" lon="4.623530">
						<ele>226</ele>
						<time>2024-08-13T13:43:01Z</time>
					</trkpt>
					<trkpt lat="45.840440" lon="4.624390">
						<ele>227</ele>
						<time>2024-08-13T13:43:11Z</time>
					</trkpt>
					<trkpt lat="45.840530" lon="4.624870">
						<ele>228</ele>
						<time>2024-08-13T13:43:17Z</time>
					</trkpt>
					<trkpt lat="45.840980" lon="4.626200">
						<ele>229</ele>
						<time>2024-08-13T13:43:36Z</time>
					</trkpt>
					<trkpt lat="45.841000" lon="4.626770">
						<ele>230</ele>
						<time>2024-08-13T13:43:43Z</time>
					</trkpt>
					<trkpt lat="45.840670" lon="4.628620">
						<ele>230</ele>
						<time>2024-08-13T13:44:07Z</time>
					</trkpt>
					<trkpt lat="45.840580" lon="4.630510">
						<ele>224</ele>
						<time>2024-08-13T13:44:30Z</time>
					</trkpt>
					<trkpt lat="45.840590" lon="4.631020">
						<ele>224</ele>
						<time>2024-08-13T13:44:36Z</time>
					</trkpt>
					<trkpt lat="45.840780" lon="4.631540">
						<ele>224</ele>
						<time>2024-08-13T13:44:44Z</time>
					</trkpt>
					<trkpt lat="45.841930" lon="4.633590">
						<ele>225</ele>
						<time>2024-08-13T13:45:16Z</time>
					</trkpt>
					<trkpt lat="45.842370" lon="4.634060">
						<ele>224</ele>
						<time>2024-08-13T13:45:26Z</time>
					</trkpt>
					<trkpt lat="45.842520" lon="4.634170">
						<ele>223</ele>
						<time>2024-08-13T13:45:29Z</time>
					</trkpt>
					<trkpt lat="45.842700" lon="4.634250">
						<ele>223</ele>
						<time>2024-08-13T13:45:32Z</time>
					</trkpt>
					<trkpt lat="45.842960" lon="4.634280">
						<ele>221</ele>
						<time>2024-08-13T13:45:37Z</time>
					</trkpt>
					<trkpt lat="45.843290" lon="4.634190">
						<ele>220</ele>
						<time>2024-08-13T13:45:43Z</time>
					</trkpt>
					<trkpt lat="45.843510" lon="4.634060">
						<ele>220</ele>
						<time>2024-08-13T13:45:47Z</time>
					</trkpt>
					<trkpt lat="45.843800" lon="4.633840">
						<ele>222</ele>
						<time>2024-08-13T13:45:53Z</time>
					</trkpt>
					<trkpt lat="45.844300" lon="4.633670">
						<ele>222</ele>
						<time>2024-08-13T13:46:02Z</time>
					</trkpt>
					<trkpt lat="45.844870" lon="4.633600">
						<ele>223</ele>
						<time>2024-08-13T13:46:12Z</time>
					</trkpt>
					<trkpt lat="45.845120" lon="4.633630">
						<ele>222</ele>
						<time>2024-08-13T13:46:17Z</time>
					</trkpt>
					<trkpt lat="45.845560" lon="4.633920">
						<ele>219</ele>
						<time>2024-08-13T13:46:25Z</time>
					</trkpt>
					<trkpt lat="45.846380" lon="4.634570">
						<ele>220</ele>
						<time>2024-08-13T13:46:42Z</time>
					</trkpt>
					<trkpt lat="45.846550" lon="4.634730">
						<ele>220</ele>
						<time>2024-08-13T13:46:46Z</time>
					</trkpt>
					<trkpt lat="45.846690" lon="4.634920">
						<ele>219</ele>
						<time>2024-08-13T13:46:49Z</time>
					</trkpt>
					<trkpt lat="45.846860" lon="4.635350">
						<ele>221</ele>
						<time>2024-08-13T13:46:55Z</time>
					</trkpt>
					<trkpt lat="45.846950" lon="4.636110">
						<ele>220</ele>
						<time>2024-08-13T13:47:05Z</time>
					</trkpt>
					<trkpt lat="45.847000" lon="4.636350">
						<ele>219</ele>
						<time>2024-08-13T13:47:08Z</time>
					</trkpt>
					<trkpt lat="45.847060" lon="4.636510">
						<ele>219</ele>
						<time>2024-08-13T13:47:10Z</time>
					</trkpt>
					<trkpt lat="45.847150" lon="4.636630">
						<ele>219</ele>
						<time>2024-08-13T13:47:12Z</time>
					</trkpt>
					<trkpt lat="45.848070" lon="4.637280">
						<ele>226</ele>
						<time>2024-08-13T13:47:31Z</time>
					</trkpt>
					<trkpt lat="45.848320" lon="4.637550">
						<ele>226</ele>
						<time>2024-08-13T13:47:36Z</time>
					</trkpt>
					<trkpt lat="45.848730" lon="4.638240">
						<ele>229</ele>
						<time>2024-08-13T13:47:47Z</time>
					</trkpt>
					<trkpt lat="45.848900" lon="4.638670">
						<ele>231</ele>
						<time>2024-08-13T13:47:54Z</time>
					</trkpt>
					<trkpt lat="45.848930" lon="4.638900">
						<ele>231</ele>
						<time>2024-08-13T13:47:56Z</time>
					</trkpt>
					<trkpt lat="45.848930" lon="4.639150">
						<ele>230</ele>
						<time>2024-08-13T13:48:00Z</time>
					</trkpt>
					<trkpt lat="45.848680" lon="4.640130">
						<ele>228</ele>
						<time>2024-08-13T13:48:12Z</time>
					</trkpt>
					<trkpt lat="45.848640" lon="4.640560">
						<ele>226</ele>
						<time>2024-08-13T13:48:18Z</time>
					</trkpt>
					<trkpt lat="45.848740" lon="4.641840">
						<ele>226</ele>
						<time>2024-08-13T13:48:34Z</time>
					</trkpt>
					<trkpt lat="45.848830" lon="4.642260">
						<ele>224</ele>
						<time>2024-08-13T13:48:39Z</time>
					</trkpt>
					<trkpt lat="45.849080" lon="4.642650">
						<ele>223</ele>
						<time>2024-08-13T13:48:46Z</time>
					</trkpt>
					<trkpt lat="45.850100" lon="4.643600">
						<ele>224</ele>
						<time>2024-08-13T13:49:07Z</time>
					</trkpt>
					<trkpt lat="45.850390" lon="4.644000">
						<ele>226</ele>
						<time>2024-08-13T13:49:15Z</time>
					</trkpt>
					<trkpt lat="45.851170" lon="4.645510">
						<ele>226</ele>
						<time>2024-08-13T13:49:38Z</time>
					</trkpt>
					<trkpt lat="45.851310" lon="4.646420">
						<ele>225</ele>
						<time>2024-08-13T13:49:49Z</time>
					</trkpt>
					<trkpt lat="45.851530" lon="4.647290">
						<ele>221</ele>
						<time>2024-08-13T13:50:01Z</time>
					</trkpt>
					<trkpt lat="45.851690" lon="4.647740">
						<ele>218</ele>
						<time>2024-08-13T13:50:07Z</time>
					</trkpt>
					<trkpt lat="45.852290" lon="4.648850">
						<ele>217</ele>
						<time>2024-08-13T13:50:25Z</time>
					</trkpt>
					<trkpt lat="45.852790" lon="4.649630">
						<ele>217</ele>
						<time>2024-08-13T13:50:38Z</time>
					</trkpt>
					<trkpt lat="45.853120" lon="4.650040">
						<ele>217</ele>
						<time>2024-08-13T13:50:46Z</time>
					</trkpt>
					<trkpt lat="45.855290" lon="4.652040">
						<ele>214</ele>
						<time>2024-08-13T13:51:31Z</time>
					</trkpt>
					<trkpt lat="45.855440" lon="4.652150">
						<ele>214</ele>
						<time>2024-08-13T13:51:34Z</time>
					</trkpt>
					<trkpt lat="45.856380" lon="4.652630">
						<ele>215</ele>
						<time>2024-08-13T13:51:52Z</time>
					</trkpt>
					<trkpt lat="45.856650" lon="4.652860">
						<ele>214</ele>
						<time>2024-08-13T13:51:58Z</time>
					</trkpt>
					<trkpt lat="45.856970" lon="4.653200">
						<ele>215</ele>
						<time>2024-08-13T13:52:05Z</time>
					</trkpt>
					<trkpt lat="45.857110" lon="4.653420">
						<ele>215</ele>
						<time>2024-08-13T13:52:09Z</time>
					</trkpt>
					<trkpt lat="45.857210" lon="4.653620">
						<ele>215</ele>
						<time>2024-08-13T13:52:12Z</time>
					</trkpt>
					<trkpt lat="45.857410" lon="4.654170">
						<ele>214</ele>
						<time>2024-08-13T13:52:19Z</time>
					</trkpt>
					<trkpt lat="45.857600" lon="4.654790">
						<ele>212</ele>
						<time>2024-08-13T13:52:28Z</time>
					</trkpt>
					<trkpt lat="45.857730" lon="4.655100">
						<ele>212</ele>
						<time>2024-08-13T13:52:32Z</time>
					</trkpt>
					<trkpt lat="45.858040" lon="4.655750">
						<ele>213</ele>
						<time>2024-08-13T13:52:42Z</time>
					</trkpt>
					<trkpt lat="45.858640" lon="4.656900">
						<ele>209</ele>
						<time>2024-08-13T13:53:00Z</time>
					</trkpt>
					<trkpt lat="45.858730" lon="4.657190">
						<ele>208</ele>
						<time>2024-08-13T13:53:04Z</time>
					</trkpt>
					<trkpt lat="45.858770" lon="4.657650">
						<ele>208</ele>
						<time>2024-08-13T13:53:09Z</time>
					</trkpt>
					<trkpt lat="45.858730" lon="4.658130">
						<ele>211</ele>
						<time>2024-08-13T13:53:15Z</time>
					</trkpt>
					<trkpt lat="45.858590" lon="4.658540">
						<ele>215</ele>
						<time>2024-08-13T13:53:21Z</time>
					</trkpt>
					<trkpt lat="45.858500" lon="4.658700">
						<ele>218</ele>
						<time>2024-08-13T13:53:24Z</time>
					</trkpt>
					<trkpt lat="45.858360" lon="4.658900">
						<ele>219</ele>
						<time>2024-08-13T13:53:27Z</time>
					</trkpt>
					<trkpt lat="45.857640" lon="4.659620">
						<ele>218</ele>
						<time>2024-08-13T13:53:43Z</time>
					</trkpt>
					<trkpt lat="45.857480" lon="4.659820">
						<ele>216</ele>
						<time>2024-08-13T13:53:46Z</time>
					</trkpt>
					<trkpt lat="45.857370" lon="4.660050">
						<ele>216</ele>
						<time>2024-08-13T13:53:50Z</time>
					</trkpt>
					<trkpt lat="45.856870" lon="4.662510">
						<ele>218</ele>
						<time>2024-08-13T13:54:22Z</time>
					</trkpt>
					<trkpt lat="45.856730" lon="4.663020">
						<ele>216</ele>
						<time>2024-08-13T13:54:28Z</time>
					</trkpt>
					<trkpt lat="45.856420" lon="4.663960">
						<ele>216</ele>
						<time>2024-08-13T13:54:41Z</time>
					</trkpt>
					<trkpt lat="45.856340" lon="4.664350">
						<ele>216</ele>
						<time>2024-08-13T13:54:46Z</time>
					</trkpt>
					<trkpt lat="45.856160" lon="4.666320">
						<ele>212</ele>
						<time>2024-08-13T13:55:11Z</time>
					</trkpt>
					<trkpt lat="45.856160" lon="4.666800">
						<ele>211</ele>
						<time>2024-08-13T13:55:17Z</time>
					</trkpt>
					<trkpt lat="45.856320" lon="4.668620">
						<ele>209</ele>
						<time>2024-08-13T13:55:40Z</time>
					</trkpt>
					<trkpt lat="45.856480" lon="4.668940">
						<ele>209</ele>
						<time>2024-08-13T13:55:45Z</time>
					</trkpt>
					<trkpt lat="45.856620" lon="4.669030">
						<ele>209</ele>
						<time>2024-08-13T13:55:47Z</time>
					</trkpt>
					<trkpt lat="45.856930" lon="4.669170">
						<ele>210</ele>
						<time>2024-08-13T13:55:53Z</time>
					</trkpt>
					<trkpt lat="45.856030" lon="4.669300">
						<ele>206</ele>
						<time>2024-08-13T13:56:09Z</time>
					</trkpt>
					<trkpt lat="45.855590" lon="4.669410">
						<ele>207</ele>
						<time>2024-08-13T13:56:17Z</time>
					</trkpt>
					<trkpt lat="45.854540" lon="4.669620">
						<ele>214</ele>
						<time>2024-08-13T13:56:36Z</time>
					</trkpt>
					<trkpt lat="45.854170" lon="4.669520">
						<ele>218</ele>
						<time>2024-08-13T13:56:43Z</time>
					</trkpt>
					<trkpt lat="45.854000" lon="4.669580">
						<ele>218</ele>
						<time>2024-08-13T13:56:46Z</time>
					</trkpt>
					<trkpt lat="45.853930" lon="4.669400">
						<ele>220</ele>
						<time>2024-08-13T13:56:48Z</time>
					</trkpt>
					<trkpt lat="45.853200" lon="4.669180">
						<ele>223</ele>
						<time>2024-08-13T13:57:02Z</time>
					</trkpt>
					<trkpt lat="45.852950" lon="4.669170">
						<ele>224</ele>
						<time>2024-08-13T13:57:06Z</time>
					</trkpt>
					<trkpt lat="45.852490" lon="4.669210">
						<ele>226</ele>
						<time>2024-08-13T13:57:14Z</time>
					</trkpt>
					<trkpt lat="45.852350" lon="4.669180">
						<ele>226</ele>
						<time>2024-08-13T13:57:17Z</time>
					</trkpt>
					<trkpt lat="45.852120" lon="4.669060">
						<ele>226</ele>
						<time>2024-08-13T13:57:21Z</time>
					</trkpt>
					<trkpt lat="45.851930" lon="4.668840">
						<ele>228</ele>
						<time>2024-08-13T13:57:26Z</time>
					</trkpt>
					<trkpt lat="45.851350" lon="4.667930">
						<ele>234</ele>
						<time>2024-08-13T13:57:41Z</time>
					</trkpt>
					<trkpt lat="45.851030" lon="4.667570">
						<ele>235</ele>
						<time>2024-08-13T13:57:48Z</time>
					</trkpt>
					<trkpt lat="45.850810" lon="4.667400">
						<ele>236</ele>
						<time>2024-08-13T13:57:52Z</time>
					</trkpt>
					<trkpt lat="45.850460" lon="4.667230">
						<ele>240</ele>
						<time>2024-08-13T13:57:59Z</time>
					</trkpt>
					<trkpt lat="45.850190" lon="4.667180">
						<ele>241</ele>
						<time>2024-08-13T13:58:04Z</time>
					</trkpt>
					<trkpt lat="45.849680" lon="4.666980">
						<ele>245</ele>
						<time>2024-08-13T13:58:13Z</time>
					</trkpt>
					<trkpt lat="45.848910" lon="4.666940">
						<ele>242</ele>
						<time>2024-08-13T13:58:27Z</time>
					</trkpt>
					<trkpt lat="45.848770" lon="4.666890">
						<ele>241</ele>
						<time>2024-08-13T13:58:30Z</time>
					</trkpt>
					<trkpt lat="45.848670" lon="4.666810">
						<ele>242</ele>
						<time>2024-08-13T13:58:32Z</time>
					</trkpt>
					<trkpt lat="45.848610" lon="4.666700">
						<ele>243</ele>
						<time>2024-08-13T13:58:33Z</time>
					</trkpt>
					<trkpt lat="45.848570" lon="4.666530">
						<ele>245</ele>
						<time>2024-08-13T13:58:36Z</time>
					</trkpt>
					<trkpt lat="45.848590" lon="4.665860">
						<ele>251</ele>
						<time>2024-08-13T13:58:44Z</time>
					</trkpt>
					<trkpt lat="45.848480" lon="4.665420">
						<ele>255</ele>
						<time>2024-08-13T13:58:50Z</time>
					</trkpt>
					<trkpt lat="45.848400" lon="4.665250">
						<ele>256</ele>
						<time>2024-08-13T13:58:52Z</time>
					</trkpt>
					<trkpt lat="45.848260" lon="4.665080">
						<ele>258</ele>
						<time>2024-08-13T13:58:55Z</time>
					</trkpt>
					<trkpt lat="45.847920" lon="4.664760">
						<ele>259</ele>
						<time>2024-08-13T13:59:03Z</time>
					</trkpt>
					<trkpt lat="45.847760" lon="4.664670">
						<ele>259</ele>
						<time>2024-08-13T13:59:06Z</time>
					</trkpt>
					<trkpt lat="45.847550" lon="4.664660">
						<ele>258</ele>
						<time>2024-08-13T13:59:10Z</time>
					</trkpt>
					<trkpt lat="45.847410" lon="4.664740">
						<ele>257</ele>
						<time>2024-08-13T13:59:12Z</time>
					</trkpt>
					<trkpt lat="45.846750" lon="4.665370">
						<ele>258</ele>
						<time>2024-08-13T13:59:26Z</time>
					</trkpt>
					<trkpt lat="45.846530" lon="4.665540">
						<ele>258</ele>
						<time>2024-08-13T13:59:31Z</time>
					</trkpt>
					<trkpt lat="45.846280" lon="4.665630">
						<ele>259</ele>
						<time>2024-08-13T13:59:35Z</time>
					</trkpt>
					<trkpt lat="45.846010" lon="4.665650">
						<ele>261</ele>
						<time>2024-08-13T13:59:40Z</time>
					</trkpt>
					<trkpt lat="45.845830" lon="4.665620">
						<ele>262</ele>
						<time>2024-08-13T13:59:43Z</time>
					</trkpt>
					<trkpt lat="45.845650" lon="4.665550">
						<ele>263</ele>
						<time>2024-08-13T13:59:47Z</time>
					</trkpt>
					<trkpt lat="45.845130" lon="4.665230">
						<ele>267</ele>
						<time>2024-08-13T13:59:57Z</time>
					</trkpt>
					<trkpt lat="45.844850" lon="4.665130">
						<ele>268</ele>
						<time>2024-08-13T14:00:02Z</time>
					</trkpt>
					<trkpt lat="45.844510" lon="4.665050">
						<ele>268</ele>
						<time>2024-08-13T14:00:08Z</time>
					</trkpt>
					<trkpt lat="45.844310" lon="4.664950">
						<ele>268</ele>
						<time>2024-08-13T14:00:12Z</time>
					</trkpt>
					<trkpt lat="45.844160" lon="4.664800">
						<ele>269</ele>
						<time>2024-08-13T14:00:15Z</time>
					</trkpt>
					<trkpt lat="45.844030" lon="4.664620">
						<ele>270</ele>
						<time>2024-08-13T14:00:18Z</time>
					</trkpt>
					<trkpt lat="45.843940" lon="4.664400">
						<ele>272</ele>
						<time>2024-08-13T14:00:21Z</time>
					</trkpt>
					<trkpt lat="45.843860" lon="4.664060">
						<ele>275</ele>
						<time>2024-08-13T14:00:26Z</time>
					</trkpt>
					<trkpt lat="45.843800" lon="4.663040">
						<ele>279</ele>
						<time>2024-08-13T14:00:39Z</time>
					</trkpt>
					<trkpt lat="45.843490" lon="4.660890">
						<ele>286</ele>
						<time>2024-08-13T14:01:06Z</time>
					</trkpt>
					<trkpt lat="45.843380" lon="4.660450">
						<ele>290</ele>
						<time>2024-08-13T14:01:12Z</time>
					</trkpt>
					<trkpt lat="45.843310" lon="4.660280">
						<ele>292</ele>
						<time>2024-08-13T14:01:14Z</time>
					</trkpt>
					<trkpt lat="45.843100" lon="4.660020">
						<ele>294</ele>
						<time>2024-08-13T14:01:19Z</time>
					</trkpt>
					<trkpt lat="45.842950" lon="4.659930">
						<ele>295</ele>
						<time>2024-08-13T14:01:22Z</time>
					</trkpt>
					<trkpt lat="45.842120" lon="4.659660">
						<ele>297</ele>
						<time>2024-08-13T14:01:37Z</time>
					</trkpt>
					<trkpt lat="45.841950" lon="4.659580">
						<ele>298</ele>
						<time>2024-08-13T14:01:40Z</time>
					</trkpt>
					<trkpt lat="45.841630" lon="4.659330">
						<ele>300</ele>
						<time>2024-08-13T14:01:47Z</time>
					</trkpt>
					<trkpt lat="45.841420" lon="4.659080">
						<ele>300</ele>
						<time>2024-08-13T14:01:51Z</time>
					</trkpt>
					<trkpt lat="45.841230" lon="4.658700">
						<ele>300</ele>
						<time>2024-08-13T14:01:57Z</time>
					</trkpt>
					<trkpt lat="45.841180" lon="4.658550">
						<ele>300</ele>
						<time>2024-08-13T14:01:59Z</time>
					</trkpt>
					<trkpt lat="45.841150" lon="4.658400">
						<ele>301</ele>
						<time>2024-08-13T14:02:01Z</time>
					</trkpt>
					<trkpt lat="45.841160" lon="4.657890">
						<ele>304</ele>
						<time>2024-08-13T14:02:08Z</time>
					</trkpt>
					<trkpt lat="45.841440" lon="4.656990">
						<ele>308</ele>
						<time>2024-08-13T14:02:20Z</time>
					</trkpt>
					<trkpt lat="45.841570" lon="4.656450">
						<ele>310</ele>
						<time>2024-08-13T14:02:27Z</time>
					</trkpt>
					<trkpt lat="45.841600" lon="4.655940">
						<ele>311</ele>
						<time>2024-08-13T14:02:33Z</time>
					</trkpt>
					<trkpt lat="45.841540" lon="4.655660">
						<ele>312</ele>
						<time>2024-08-13T14:02:37Z</time>
					</trkpt>
					<trkpt lat="45.841470" lon="4.655520">
						<ele>313</ele>
						<time>2024-08-13T14:02:39Z</time>
					</trkpt>
					<trkpt lat="45.840870" lon="4.654710">
						<ele>318</ele>
						<time>2024-08-13T14:02:54Z</time>
					</trkpt>
					<trkpt lat="45.840750" lon="4.654370">
						<ele>319</ele>
						<time>2024-08-13T14:02:58Z</time>
					</trkpt>
					<trkpt lat="45.840790" lon="4.654310">
						<ele>319</ele>
						<time>2024-08-13T14:02:59Z</time>
					</trkpt>
					<trkpt lat="45.840790" lon="4.654150">
						<ele>319</ele>
						<time>2024-08-13T14:03:01Z</time>
					</trkpt>
					<trkpt lat="45.840750" lon="4.654060">
						<ele>320</ele>
						<time>2024-08-13T14:03:03Z</time>
					</trkpt>
					<trkpt lat="45.840700" lon="4.654020">
						<ele>321</ele>
						<time>2024-08-13T14:03:04Z</time>
					</trkpt>
					<trkpt lat="45.840660" lon="4.653850">
						<ele>322</ele>
						<time>2024-08-13T14:03:06Z</time>
					</trkpt>
					<trkpt lat="45.840770" lon="4.653650">
						<ele>323</ele>
						<time>2024-08-13T14:03:09Z</time>
					</trkpt>
					<trkpt lat="45.841450" lon="4.653240">
						<ele>324</ele>
						<time>2024-08-13T14:03:22Z</time>
					</trkpt>
					<trkpt lat="45.841380" lon="4.653070">
						<ele>325</ele>
						<time>2024-08-13T14:03:25Z</time>
					</trkpt>
					<trkpt lat="45.840900" lon="4.652600">
						<ele>327</ele>
						<time>2024-08-13T14:03:35Z</time>
					</trkpt>
					<trkpt lat="45.840750" lon="4.652530">
						<ele>328</ele>
						<time>2024-08-13T14:03:38Z</time>
					</trkpt>
					<trkpt lat="45.840450" lon="4.652540">
						<ele>330</ele>
						<time>2024-08-13T14:03:43Z</time>
					</trkpt>
					<trkpt lat="45.839770" lon="4.652730">
						<ele>332</ele>
						<time>2024-08-13T14:03:56Z</time>
					</trkpt>
					<trkpt lat="45.839360" lon="4.652810">
						<ele>332</ele>
						<time>2024-08-13T14:04:03Z</time>
					</trkpt>
					<trkpt lat="45.839120" lon="4.652670">
						<ele>334</ele>
						<time>2024-08-13T14:04:07Z</time>
					</trkpt>
					<trkpt lat="45.838770" lon="4.652740">
						<ele>333</ele>
						<time>2024-08-13T14:04:14Z</time>
					</trkpt>
					<trkpt lat="45.838350" lon="4.652950">
						<ele>332</ele>
						<time>2024-08-13T14:04:22Z</time>
					</trkpt>
					<trkpt lat="45.837810" lon="4.652990">
						<ele>335</ele>
						<time>2024-08-13T14:04:31Z</time>
					</trkpt>
					<trkpt lat="45.837440" lon="4.652920">
						<ele>338</ele>
						<time>2024-08-13T14:04:38Z</time>
					</trkpt>
					<trkpt lat="45.837150" lon="4.652830">
						<ele>340</ele>
						<time>2024-08-13T14:04:43Z</time>
					</trkpt>
					<trkpt lat="45.836730" lon="4.652770">
						<ele>343</ele>
						<time>2024-08-13T14:04:51Z</time>
					</trkpt>
					<trkpt lat="45.836630" lon="4.652730">
						<ele>344</ele>
						<time>2024-08-13T14:04:53Z</time>
					</trkpt>
					<trkpt lat="45.835930" lon="4.652130">
						<ele>348</ele>
						<time>2024-08-13T14:05:07Z</time>
					</trkpt>
					<trkpt lat="45.835710" lon="4.652030">
						<ele>348</ele>
						<time>2024-08-13T14:05:11Z</time>
					</trkpt>
					<trkpt lat="45.834910" lon="4.651800">
						<ele>346</ele>
						<time>2024-08-13T14:05:26Z</time>
					</trkpt>
					<trkpt lat="45.834290" lon="4.651770">
						<ele>344</ele>
						<time>2024-08-13T14:05:37Z</time>
					</trkpt>
					<trkpt lat="45.832940" lon="4.651530">
						<ele>343</ele>
						<time>2024-08-13T14:06:01Z</time>
					</trkpt>
					<trkpt lat="45.832690" lon="4.651450">
						<ele>343</ele>
						<time>2024-08-13T14:06:06Z</time>
					</trkpt>
					<trkpt lat="45.832430" lon="4.651320">
						<ele>343</ele>
						<time>2024-08-13T14:06:10Z</time>
					</trkpt>
					<trkpt lat="45.832010" lon="4.650830">
						<ele>343</ele>
						<time>2024-08-13T14:06:20Z</time>
					</trkpt>
					<trkpt lat="45.831290" lon="4.650160">
						<ele>342</ele>
						<time>2024-08-13T14:06:35Z</time>
					</trkpt>
					<trkpt lat="45.830260" lon="4.648790">
						<ele>344</ele>
						<time>2024-08-13T14:07:00Z</time>
					</trkpt>
					<trkpt lat="45.830120" lon="4.648550">
						<ele>343</ele>
						<time>2024-08-13T14:07:04Z</time>
					</trkpt>
					<trkpt lat="45.829910" lon="4.648080">
						<ele>341</ele>
						<time>2024-08-13T14:07:11Z</time>
					</trkpt>
					<trkpt lat="45.829750" lon="4.647640">
						<ele>339</ele>
						<time>2024-08-13T14:07:17Z</time>
					</trkpt>
					<trkpt lat="45.829450" lon="4.646660">
						<ele>336</ele>
						<time>2024-08-13T14:07:31Z</time>
					</trkpt>
					<trkpt lat="45.829400" lon="4.646790">
						<ele>336</ele>
						<time>2024-08-13T14:07:32Z</time>
					</trkpt>
					<trkpt lat="45.829450" lon="4.646660">
						<ele>336</ele>
						<time>2024-08-13T14:07:34Z</time>
					</trkpt>
					<trkpt lat="45.829290" lon="4.646430">
						<ele>335</ele>
						<time>2024-08-13T14:07:38Z</time>
					</trkpt>
					<trkpt lat="45.828860" lon="4.645950">
						<ele>333</ele>
						<time>2024-08-13T14:07:48Z</time>
					</trkpt>
					<trkpt lat="45.828750" lon="4.645780">
						<ele>333</ele>
						<time>2024-08-13T14:07:51Z</time>
					</trkpt>
					<trkpt lat="45.828240" lon="4.644260">
						<ele>334</ele>
						<time>2024-08-13T14:08:12Z</time>
					</trkpt>
					<trkpt lat="45.828160" lon="4.643830">
						<ele>335</ele>
						<time>2024-08-13T14:08:17Z</time>
					</trkpt>
					<trkpt lat="45.828110" lon="4.643180">
						<ele>336</ele>
						<time>2024-08-13T14:08:25Z</time>
					</trkpt>
					<trkpt lat="45.828040" lon="4.643020">
						<ele>336</ele>
						<time>2024-08-13T14:08:28Z</time>
					</trkpt>
					<trkpt lat="45.827740" lon="4.642610">
						<ele>337</ele>
						<time>2024-08-13T14:08:35Z</time>
					</trkpt>
					<trkpt lat="45.827620" lon="4.642380">
						<ele>337</ele>
						<time>2024-08-13T14:08:39Z</time>
					</trkpt>
					<trkpt lat="45.827240" lon="4.640790">
						<ele>347</ele>
						<time>2024-08-13T14:08:59Z</time>
					</trkpt>
					<trkpt lat="45.827090" lon="4.640470">
						<ele>348</ele>
						<time>2024-08-13T14:09:04Z</time>
					</trkpt>
					<trkpt lat="45.826550" lon="4.639550">
						<ele>356</ele>
						<time>2024-08-13T14:09:19Z</time>
					</trkpt>
					<trkpt lat="45.826490" lon="4.639270">
						<ele>359</ele>
						<time>2024-08-13T14:09:23Z</time>
					</trkpt>
					<trkpt lat="45.826510" lon="4.638870">
						<ele>361</ele>
						<time>2024-08-13T14:09:28Z</time>
					</trkpt>
					<trkpt lat="45.826370" lon="4.638450">
						<ele>362</ele>
						<time>2024-08-13T14:09:34Z</time>
					</trkpt>
					<trkpt lat="45.826380" lon="4.638220">
						<ele>363</ele>
						<time>2024-08-13T14:09:36Z</time>
					</trkpt>
					<trkpt lat="45.826260" lon="4.637980">
						<ele>364</ele>
						<time>2024-08-13T14:09:40Z</time>
					</trkpt>
					<trkpt lat="45.825980" lon="4.637840">
						<ele>363</ele>
						<time>2024-08-13T14:09:45Z</time>
					</trkpt>
					<trkpt lat="45.825380" lon="4.637410">
						<ele>360</ele>
						<time>2024-08-13T14:09:57Z</time>
					</trkpt>
					<trkpt lat="45.824970" lon="4.636810">
						<ele>362</ele>
						<time>2024-08-13T14:10:08Z</time>
					</trkpt>
					<trkpt lat="45.824800" lon="4.636470">
						<ele>364</ele>
						<time>2024-08-13T14:10:13Z</time>
					</trkpt>
					<trkpt lat="45.824530" lon="4.635720">
						<ele>367</ele>
						<time>2024-08-13T14:10:23Z</time>
					</trkpt>
					<trkpt lat="45.824520" lon="4.635510">
						<ele>368</ele>
						<time>2024-08-13T14:10:26Z</time>
					</trkpt>
					<trkpt lat="45.824530" lon="4.635420">
						<ele>368</ele>
						<time>2024-08-13T14:10:27Z</time>
					</trkpt>
					<trkpt lat="45.824810" lon="4.634550">
						<ele>369</ele>
						<time>2024-08-13T14:10:39Z</time>
					</trkpt>
					<trkpt lat="45.824790" lon="4.634340">
						<ele>368</ele>
						<time>2024-08-13T14:10:42Z</time>
					</trkpt>
					<trkpt lat="45.824740" lon="4.634250">
						<ele>368</ele>
						<time>2024-08-13T14:10:43Z</time>
					</trkpt>
					<trkpt lat="45.824330" lon="4.633970">
						<ele>370</ele>
						<time>2024-08-13T14:10:51Z</time>
					</trkpt>
					<trkpt lat="45.823320" lon="4.633560">
						<ele>373</ele>
						<time>2024-08-13T14:11:10Z</time>
					</trkpt>
					<trkpt lat="45.822970" lon="4.633330">
						<ele>373</ele>
						<time>2024-08-13T14:11:17Z</time>
					</trkpt>
					<trkpt lat="45.821710" lon="4.632240">
						<ele>377</ele>
						<time>2024-08-13T14:11:43Z</time>
					</trkpt>
					<trkpt lat="45.821420" lon="4.632560">
						<ele>377</ele>
						<time>2024-08-13T14:11:49Z</time>
					</trkpt>
					<trkpt lat="45.821080" lon="4.632820">
						<ele>377</ele>
						<time>2024-08-13T14:11:56Z</time>
					</trkpt>
					<trkpt lat="45.820610" lon="4.632990">
						<ele>379</ele>
						<time>2024-08-13T14:12:05Z</time>
					</trkpt>
					<trkpt lat="45.820500" lon="4.633070">
						<ele>379</ele>
						<time>2024-08-13T14:12:07Z</time>
					</trkpt>
					<trkpt lat="45.820400" lon="4.633160">
						<ele>379</ele>
						<time>2024-08-13T14:12:09Z</time>
					</trkpt>
					<trkpt lat="45.820240" lon="4.633430">
						<ele>377</ele>
						<time>2024-08-13T14:12:13Z</time>
					</trkpt>
					<trkpt lat="45.820180" lon="4.633660">
						<ele>376</ele>
						<time>2024-08-13T14:12:17Z</time>
					</trkpt>
					<trkpt lat="45.820080" lon="4.634290">
						<ele>375</ele>
						<time>2024-08-13T14:12:25Z</time>
					</trkpt>
					<trkpt lat="45.820070" lon="4.634730">
						<ele>377</ele>
						<time>2024-08-13T14:12:30Z</time>
					</trkpt>
					<trkpt lat="45.820320" lon="4.635920">
						<ele>383</ele>
						<time>2024-08-13T14:12:45Z</time>
					</trkpt>
					<trkpt lat="45.820440" lon="4.637350">
						<ele>392</ele>
						<time>2024-08-13T14:13:03Z</time>
					</trkpt>
					<trkpt lat="45.820680" lon="4.638300">
						<ele>396</ele>
						<time>2024-08-13T14:13:16Z</time>
					</trkpt>
					<trkpt lat="45.820690" lon="4.638740">
						<ele>396</ele>
						<time>2024-08-13T14:13:21Z</time>
					</trkpt>
					<trkpt lat="45.820530" lon="4.639720">
						<ele>397</ele>
						<time>2024-08-13T14:13:34Z</time>
					</trkpt>
					<trkpt lat="45.820200" lon="4.640410">
						<ele>398</ele>
						<time>2024-08-13T14:13:44Z</time>
					</trkpt>
					<trkpt lat="45.819970" lon="4.640780">
						<ele>398</ele>
						<time>2024-08-13T14:13:50Z</time>
					</trkpt>
					<trkpt lat="45.819430" lon="4.641550">
						<ele>398</ele>
						<time>2024-08-13T14:14:04Z</time>
					</trkpt>
					<trkpt lat="45.819060" lon="4.642450">
						<ele>395</ele>
						<time>2024-08-13T14:14:17Z</time>
					</trkpt>
					<trkpt lat="45.818800" lon="4.642720">
						<ele>394</ele>
						<time>2024-08-13T14:14:22Z</time>
					</trkpt>
					<trkpt lat="45.818510" lon="4.642850">
						<ele>395</ele>
						<time>2024-08-13T14:14:28Z</time>
					</trkpt>
					<trkpt lat="45.818160" lon="4.642910">
						<ele>395</ele>
						<time>2024-08-13T14:14:34Z</time>
					</trkpt>
					<trkpt lat="45.816990" lon="4.643040">
						<ele>390</ele>
						<time>2024-08-13T14:14:55Z</time>
					</trkpt>
					<trkpt lat="45.816750" lon="4.643040">
						<ele>390</ele>
						<time>2024-08-13T14:14:59Z</time>
					</trkpt>
					<trkpt lat="45.816570" lon="4.642990">
						<ele>390</ele>
						<time>2024-08-13T14:15:03Z</time>
					</trkpt>
					<trkpt lat="45.816160" lon="4.642680">
						<ele>389</ele>
						<time>2024-08-13T14:15:11Z</time>
					</trkpt>
					<trkpt lat="45.816010" lon="4.642490">
						<ele>390</ele>
						<time>2024-08-13T14:15:14Z</time>
					</trkpt>
					<trkpt lat="45.815910" lon="4.642290">
						<ele>389</ele>
						<time>2024-08-13T14:15:17Z</time>
					</trkpt>
					<trkpt lat="45.815560" lon="4.640610">
						<ele>389</ele>
						<time>2024-08-13T14:15:39Z</time>
					</trkpt>
					<trkpt lat="45.815510" lon="4.640490">
						<ele>389</ele>
						<time>2024-08-13T14:15:41Z</time>
					</trkpt>
					<trkpt lat="45.815430" lon="4.640410">
						<ele>388</ele>
						<time>2024-08-13T14:15:43Z</time>
					</trkpt>
					<trkpt lat="45.815180" lon="4.640250">
						<ele>385</ele>
						<time>2024-08-13T14:15:48Z</time>
					</trkpt>
					<trkpt lat="45.815080" lon="4.640250">
						<ele>383</ele>
						<time>2024-08-13T14:15:49Z</time>
					</trkpt>
					<trkpt lat="45.814690" lon="4.640340">
						<ele>382</ele>
						<time>2024-08-13T14:15:56Z</time>
					</trkpt>
					<trkpt lat="45.814440" lon="4.640330">
						<ele>384</ele>
						<time>2024-08-13T14:16:01Z</time>
					</trkpt>
					<trkpt lat="45.814250" lon="4.640280">
						<ele>385</ele>
						<time>2024-08-13T14:16:04Z</time>
					</trkpt>
					<trkpt lat="45.813740" lon="4.640060">
						<ele>387</ele>
						<time>2024-08-13T14:16:14Z</time>
					</trkpt>
					<trkpt lat="45.813050" lon="4.639670">
						<ele>388</ele>
						<time>2024-08-13T14:16:27Z</time>
					</trkpt>
					<trkpt lat="45.811830" lon="4.638590">
						<ele>390</ele>
						<time>2024-08-13T14:16:52Z</time>
					</trkpt>
					<trkpt lat="45.811650" lon="4.638530">
						<ele>389</ele>
						<time>2024-08-13T14:16:56Z</time>
					</trkpt>
					<trkpt lat="45.811570" lon="4.638540">
						<ele>389</ele>
						<time>2024-08-13T14:16:57Z</time>
					</trkpt>
					<trkpt lat="45.811010" lon="4.638920">
						<ele>389</ele>
						<time>2024-08-13T14:17:08Z</time>
					</trkpt>
					<trkpt lat="45.810850" lon="4.639150">
						<ele>390</ele>
						<time>2024-08-13T14:17:12Z</time>
					</trkpt>
					<trkpt lat="45.809940" lon="4.641180">
						<ele>394</ele>
						<time>2024-08-13T14:17:42Z</time>
					</trkpt>
					<trkpt lat="45.809730" lon="4.641480">
						<ele>392</ele>
						<time>2024-08-13T14:17:47Z</time>
					</trkpt>
					<trkpt lat="45.809430" lon="4.641760">
						<ele>390</ele>
						<time>2024-08-13T14:17:54Z</time>
					</trkpt>
					<trkpt lat="45.809210" lon="4.641910">
						<ele>389</ele>
						<time>2024-08-13T14:17:58Z</time>
					</trkpt>
					<trkpt lat="45.808540" lon="4.642110">
						<ele>389</ele>
						<time>2024-08-13T14:18:10Z</time>
					</trkpt>
					<trkpt lat="45.808110" lon="4.642110">
						<ele>390</ele>
						<time>2024-08-13T14:18:18Z</time>
					</trkpt>
					<trkpt lat="45.807240" lon="4.642050">
						<ele>393</ele>
						<time>2024-08-13T14:18:33Z</time>
					</trkpt>
					<trkpt lat="45.807070" lon="4.641980">
						<ele>393</ele>
						<time>2024-08-13T14:18:37Z</time>
					</trkpt>
					<trkpt lat="45.806990" lon="4.641900">
						<ele>394</ele>
						<time>2024-08-13T14:18:38Z</time>
					</trkpt>
					<trkpt lat="45.806690" lon="4.641340">
						<ele>395</ele>
						<time>2024-08-13T14:18:47Z</time>
					</trkpt>
					<trkpt lat="45.806520" lon="4.641280">
						<ele>394</ele>
						<time>2024-08-13T14:18:50Z</time>
					</trkpt>
					<trkpt lat="45.806300" lon="4.641320">
						<ele>394</ele>
						<time>2024-08-13T14:18:54Z</time>
					</trkpt>
					<trkpt lat="45.806240" lon="4.641420">
						<ele>395</ele>
						<time>2024-08-13T14:18:56Z</time>
					</trkpt>
					<trkpt lat="45.806280" lon="4.641870">
						<ele>396</ele>
						<time>2024-08-13T14:19:01Z</time>
					</trkpt>
					<trkpt lat="45.806260" lon="4.642250">
						<ele>396</ele>
						<time>2024-08-13T14:19:06Z</time>
					</trkpt>
					<trkpt lat="45.806210" lon="4.642540">
						<ele>397</ele>
						<time>2024-08-13T14:19:10Z</time>
					</trkpt>
					<trkpt lat="45.805840" lon="4.643630">
						<ele>398</ele>
						<time>2024-08-13T14:19:25Z</time>
					</trkpt>
					<trkpt lat="45.805460" lon="4.644560">
						<ele>400</ele>
						<time>2024-08-13T14:19:38Z</time>
					</trkpt>
					<trkpt lat="45.805160" lon="4.645590">
						<ele>402</ele>
						<time>2024-08-13T14:19:52Z</time>
					</trkpt>
					<trkpt lat="45.804980" lon="4.646420">
						<ele>405</ele>
						<time>2024-08-13T14:20:03Z</time>
					</trkpt>
					<trkpt lat="45.804980" lon="4.647100">
						<ele>405</ele>
						<time>2024-08-13T14:20:11Z</time>
					</trkpt>
					<trkpt lat="45.805210" lon="4.650410">
						<ele>405</ele>
						<time>2024-08-13T14:20:53Z</time>
					</trkpt>
					<trkpt lat="45.805340" lon="4.652890">
						<ele>394</ele>
						<time>2024-08-13T14:21:23Z</time>
					</trkpt>
					<trkpt lat="45.805290" lon="4.653830">
						<ele>392</ele>
						<time>2024-08-13T14:21:35Z</time>
					</trkpt>
					<trkpt lat="45.805040" lon="4.655360">
						<ele>387</ele>
						<time>2024-08-13T14:21:55Z</time>
					</trkpt>
					<trkpt lat="45.805000" lon="4.656050">
						<ele>387</ele>
						<time>2024-08-13T14:22:03Z</time>
					</trkpt>
					<trkpt lat="45.805020" lon="4.656620">
						<ele>387</ele>
						<time>2024-08-13T14:22:10Z</time>
					</trkpt>
					<trkpt lat="45.805320" lon="4.658310">
						<ele>390</ele>
						<time>2024-08-13T14:22:32Z</time>
					</trkpt>
					<trkpt lat="45.805380" lon="4.659430">
						<ele>387</ele>
						<time>2024-08-13T14:22:46Z</time>
					</trkpt>
					<trkpt lat="45.805450" lon="4.660010">
						<ele>385</ele>
						<time>2024-08-13T14:22:53Z</time>
					</trkpt>
					<trkpt lat="45.805550" lon="4.660490">
						<ele>386</ele>
						<time>2024-08-13T14:22:59Z</time>
					</trkpt>
					<trkpt lat="45.805840" lon="4.661510">
						<ele>384</ele>
						<time>2024-08-13T14:23:13Z</time>
					</trkpt>
					<trkpt lat="45.806570" lon="4.664310">
						<ele>375</ele>
						<time>2024-08-13T14:23:50Z</time>
					</trkpt>
					<trkpt lat="45.806560" lon="4.664480">
						<ele>374</ele>
						<time>2024-08-13T14:23:52Z</time>
					</trkpt>
					<trkpt lat="45.806510" lon="4.664590">
						<ele>374</ele>
						<time>2024-08-13T14:23:54Z</time>
					</trkpt>
					<trkpt lat="45.806290" lon="4.664620">
						<ele>374</ele>
						<time>2024-08-13T14:23:58Z</time>
					</trkpt>
					<trkpt lat="45.805230" lon="4.664620">
						<ele>377</ele>
						<time>2024-08-13T14:24:17Z</time>
					</trkpt>
					<trkpt lat="45.804680" lon="4.664360">
						<ele>380</ele>
						<time>2024-08-13T14:24:27Z</time>
					</trkpt>
					<trkpt lat="45.804130" lon="4.664060">
						<ele>380</ele>
						<time>2024-08-13T14:24:37Z</time>
					</trkpt>
					<trkpt lat="45.803990" lon="4.663900">
						<ele>380</ele>
						<time>2024-08-13T14:24:41Z</time>
					</trkpt>
					<trkpt lat="45.803870" lon="4.663710">
						<ele>380</ele>
						<time>2024-08-13T14:24:44Z</time>
					</trkpt>
					<trkpt lat="45.803750" lon="4.663260">
						<ele>382</ele>
						<time>2024-08-13T14:24:50Z</time>
					</trkpt>
					<trkpt lat="45.803700" lon="4.662550">
						<ele>385</ele>
						<time>2024-08-13T14:24:59Z</time>
					</trkpt>
					<trkpt lat="45.803590" lon="4.662220">
						<ele>387</ele>
						<time>2024-08-13T14:25:03Z</time>
					</trkpt>
					<trkpt lat="45.803440" lon="4.661900">
						<ele>390</ele>
						<time>2024-08-13T14:25:08Z</time>
					</trkpt>
					<trkpt lat="45.803270" lon="4.661610">
						<ele>392</ele>
						<time>2024-08-13T14:25:13Z</time>
					</trkpt>
					<trkpt lat="45.803040" lon="4.661340">
						<ele>395</ele>
						<time>2024-08-13T14:25:18Z</time>
					</trkpt>
					<trkpt lat="45.802830" lon="4.661100">
						<ele>397</ele>
						<time>2024-08-13T14:25:23Z</time>
					</trkpt>
					<trkpt lat="45.802460" lon="4.660770">
						<ele>399</ele>
						<time>2024-08-13T14:25:30Z</time>
					</trkpt>
					<trkpt lat="45.802370" lon="4.660630">
						<ele>401</ele>
						<time>2024-08-13T14:25:33Z</time>
					</trkpt>
					<trkpt lat="45.802060" lon="4.659920">
						<ele>409</ele>
						<time>2024-08-13T14:25:43Z</time>
					</trkpt>
					<trkpt lat="45.801950" lon="4.659740">
						<ele>411</ele>
						<time>2024-08-13T14:25:46Z</time>
					</trkpt>
					<trkpt lat="45.801810" lon="4.659640">
						<ele>412</ele>
						<time>2024-08-13T14:25:49Z</time>
					</trkpt>
					<trkpt lat="45.801690" lon="4.659610">
						<ele>412</ele>
						<time>2024-08-13T14:25:51Z</time>
					</trkpt>
					<trkpt lat="45.801550" lon="4.659640">
						<ele>412</ele>
						<time>2024-08-13T14:25:54Z</time>
					</trkpt>
					<trkpt lat="45.801400" lon="4.659820">
						<ele>411</ele>
						<time>2024-08-13T14:25:57Z</time>
					</trkpt>
					<trkpt lat="45.801220" lon="4.660240">
						<ele>408</ele>
						<time>2024-08-13T14:26:03Z</time>
					</trkpt>
					<trkpt lat="45.801030" lon="4.660560">
						<ele>408</ele>
						<time>2024-08-13T14:26:08Z</time>
					</trkpt>
					<trkpt lat="45.800590" lon="4.660840">
						<ele>412</ele>
						<time>2024-08-13T14:26:17Z</time>
					</trkpt>
					<trkpt lat="45.800300" lon="4.660910">
						<ele>415</ele>
						<time>2024-08-13T14:26:22Z</time>
					</trkpt>
					<trkpt lat="45.800050" lon="4.660760">
						<ele>419</ele>
						<time>2024-08-13T14:26:27Z</time>
					</trkpt>
					<trkpt lat="45.799640" lon="4.660420">
						<ele>424</ele>
						<time>2024-08-13T14:26:35Z</time>
					</trkpt>
					<trkpt lat="45.799500" lon="4.660410">
						<ele>425</ele>
						<time>2024-08-13T14:26:38Z</time>
					</trkpt>
					<trkpt lat="45.799410" lon="4.660510">
						<ele>425</ele>
						<time>2024-08-13T14:26:40Z</time>
					</trkpt>
					<trkpt lat="45.799260" lon="4.661110">
						<ele>423</ele>
						<time>2024-08-13T14:26:48Z</time>
					</trkpt>
					<trkpt lat="45.799040" lon="4.661380">
						<ele>423</ele>
						<time>2024-08-13T14:26:53Z</time>
					</trkpt>
					<trkpt lat="45.798570" lon="4.661740">
						<ele>427</ele>
						<time>2024-08-13T14:27:02Z</time>
					</trkpt>
					<trkpt lat="45.798320" lon="4.661970">
						<ele>429</ele>
						<time>2024-08-13T14:27:08Z</time>
					</trkpt>
					<trkpt lat="45.797970" lon="4.662370">
						<ele>432</ele>
						<time>2024-08-13T14:27:16Z</time>
					</trkpt>
					<trkpt lat="45.797850" lon="4.662560">
						<ele>432</ele>
						<time>2024-08-13T14:27:19Z</time>
					</trkpt>
					<trkpt lat="45.797430" lon="4.663390">
						<ele>427</ele>
						<time>2024-08-13T14:27:32Z</time>
					</trkpt>
					<trkpt lat="45.797280" lon="4.663470">
						<ele>428</ele>
						<time>2024-08-13T14:27:34Z</time>
					</trkpt>
					<trkpt lat="45.797140" lon="4.663460">
						<ele>429</ele>
						<time>2024-08-13T14:27:37Z</time>
					</trkpt>
					<trkpt lat="45.796930" lon="4.663310">
						<ele>432</ele>
						<time>2024-08-13T14:27:41Z</time>
					</trkpt>
					<trkpt lat="45.796690" lon="4.663250">
						<ele>435</ele>
						<time>2024-08-13T14:27:45Z</time>
					</trkpt>
					<trkpt lat="45.796530" lon="4.663330">
						<ele>437</ele>
						<time>2024-08-13T14:27:48Z</time>
					</trkpt>
					<trkpt lat="45.796460" lon="4.663490">
						<ele>438</ele>
						<time>2024-08-13T14:27:51Z</time>
					</trkpt>
					<trkpt lat="45.796410" lon="4.664110">
						<ele>435</ele>
						<time>2024-08-13T14:27:59Z</time>
					</trkpt>
					<trkpt lat="45.796300" lon="4.664540">
						<ele>434</ele>
						<time>2024-08-13T14:28:04Z</time>
					</trkpt>
					<trkpt lat="45.796120" lon="4.664870">
						<ele>435</ele>
						<time>2024-08-13T14:28:09Z</time>
					</trkpt>
					<trkpt lat="45.795600" lon="4.665290">
						<ele>441</ele>
						<time>2024-08-13T14:28:20Z</time>
					</trkpt>
					<trkpt lat="45.795190" lon="4.665330">
						<ele>449</ele>
						<time>2024-08-13T14:28:27Z</time>
					</trkpt>
					<trkpt lat="45.794950" lon="4.665620">
						<ele>449</ele>
						<time>2024-08-13T14:28:33Z</time>
					</trkpt>
					<trkpt lat="45.794720" lon="4.666060">
						<ele>449</ele>
						<time>2024-08-13T14:28:40Z</time>
					</trkpt>
					<trkpt lat="45.794600" lon="4.666550">
						<ele>447</ele>
						<time>2024-08-13T14:28:46Z</time>
					</trkpt>
					<trkpt lat="45.794580" lon="4.667170">
						<ele>444</ele>
						<time>2024-08-13T14:28:54Z</time>
					</trkpt>
					<trkpt lat="45.794550" lon="4.667370">
						<ele>444</ele>
						<time>2024-08-13T14:28:56Z</time>
					</trkpt>
					<trkpt lat="45.794450" lon="4.667630">
						<ele>444</ele>
						<time>2024-08-13T14:29:00Z</time>
					</trkpt>
					<trkpt lat="45.794340" lon="4.667540">
						<ele>446</ele>
						<time>2024-08-13T14:29:02Z</time>
					</trkpt>
					<trkpt lat="45.794220" lon="4.667490">
						<ele>448</ele>
						<time>2024-08-13T14:29:05Z</time>
					</trkpt>
					<trkpt lat="45.794340" lon="4.667540">
						<ele>446</ele>
						<time>2024-08-13T14:29:07Z</time>
					</trkpt>
					<trkpt lat="45.794450" lon="4.667630">
						<ele>444</ele>
						<time>2024-08-13T14:29:09Z</time>
					</trkpt>
					<trkpt lat="45.794290" lon="4.667770">
						<ele>445</ele>
						<time>2024-08-13T14:29:12Z</time>
					</trkpt>
					<trkpt lat="45.793910" lon="4.667920">
						<ele>446</ele>
						<time>2024-08-13T14:29:19Z</time>
					</trkpt>
					<trkpt lat="45.793720" lon="4.667920">
						<ele>446</ele>
						<time>2024-08-13T14:29:23Z</time>
					</trkpt>
					<trkpt lat="45.793540" lon="4.667890">
						<ele>447</ele>
						<time>2024-08-13T14:29:26Z</time>
					</trkpt>
					<trkpt lat="45.793380" lon="4.667820">
						<ele>448</ele>
						<time>2024-08-13T14:29:29Z</time>
					</trkpt>
					<trkpt lat="45.793110" lon="4.667630">
						<ele>451</ele>
						<time>2024-08-13T14:29:34Z</time>
					</trkpt>
					<trkpt lat="45.792970" lon="4.667590">
						<ele>453</ele>
						<time>2024-08-13T14:29:37Z</time>
					</trkpt>
					<trkpt lat="45.792860" lon="4.667610">
						<ele>453</ele>
						<time>2024-08-13T14:29:39Z</time>
					</trkpt>
					<trkpt lat="45.792750" lon="4.667770">
						<ele>452</ele>
						<time>2024-08-13T14:29:42Z</time>
					</trkpt>
					<trkpt lat="45.792710" lon="4.667900">
						<ele>451</ele>
						<time>2024-08-13T14:29:43Z</time>
					</trkpt>
					<trkpt lat="45.792550" lon="4.668950">
						<ele>440</ele>
						<time>2024-08-13T14:29:57Z</time>
					</trkpt>
					<trkpt lat="45.792490" lon="4.669130">
						<ele>438</ele>
						<time>2024-08-13T14:29:59Z</time>
					</trkpt>
					<trkpt lat="45.792410" lon="4.669230">
						<ele>437</ele>
						<time>2024-08-13T14:30:01Z</time>
					</trkpt>
					<trkpt lat="45.792120" lon="4.669480">
						<ele>434</ele>
						<time>2024-08-13T14:30:07Z</time>
					</trkpt>
					<trkpt lat="45.791920" lon="4.669590">
						<ele>433</ele>
						<time>2024-08-13T14:30:11Z</time>
					</trkpt>
					<trkpt lat="45.791720" lon="4.669660">
						<ele>432</ele>
						<time>2024-08-13T14:30:15Z</time>
					</trkpt>
					<trkpt lat="45.791500" lon="4.669700">
						<ele>431</ele>
						<time>2024-08-13T14:30:19Z</time>
					</trkpt>
					<trkpt lat="45.791260" lon="4.669700">
						<ele>429</ele>
						<time>2024-08-13T14:30:23Z</time>
					</trkpt>
					<trkpt lat="45.791140" lon="4.669670">
						<ele>428</ele>
						<time>2024-08-13T14:30:25Z</time>
					</trkpt>
					<trkpt lat="45.790990" lon="4.669550">
						<ele>429</ele>
						<time>2024-08-13T14:30:28Z</time>
					</trkpt>
					<trkpt lat="45.790590" lon="4.669090">
						<ele>432</ele>
						<time>2024-08-13T14:30:37Z</time>
					</trkpt>
					<trkpt lat="45.790100" lon="4.668460">
						<ele>437</ele>
						<time>2024-08-13T14:30:49Z</time>
					</trkpt>
					<trkpt lat="45.789970" lon="4.668400">
						<ele>437</ele>
						<time>2024-08-13T14:30:51Z</time>
					</trkpt>
					<trkpt lat="45.789820" lon="4.668400">
						<ele>436</ele>
						<time>2024-08-13T14:30:54Z</time>
					</trkpt>
					<trkpt lat="45.789730" lon="4.668460">
						<ele>435</ele>
						<time>2024-08-13T14:30:56Z</time>
					</trkpt>
					<trkpt lat="45.789650" lon="4.668560">
						<ele>434</ele>
						<time>2024-08-13T14:30:58Z</time>
					</trkpt>
					<trkpt lat="45.789480" lon="4.668950">
						<ele>429</ele>
						<time>2024-08-13T14:31:03Z</time>
					</trkpt>
					<trkpt lat="45.789400" lon="4.669070">
						<ele>427</ele>
						<time>2024-08-13T14:31:05Z</time>
					</trkpt>
					<trkpt lat="45.789290" lon="4.669170">
						<ele>427</ele>
						<time>2024-08-13T14:31:08Z</time>
					</trkpt>
					<trkpt lat="45.789060" lon="4.669260">
						<ele>425</ele>
						<time>2024-08-13T14:31:12Z</time>
					</trkpt>
					<trkpt lat="45.788910" lon="4.669250">
						<ele>423</ele>
						<time>2024-08-13T14:31:15Z</time>
					</trkpt>
					<trkpt lat="45.788770" lon="4.669160">
						<ele>423</ele>
						<time>2024-08-13T14:31:17Z</time>
					</trkpt>
					<trkpt lat="45.788550" lon="4.668920">
						<ele>422</ele>
						<time>2024-08-13T14:31:22Z</time>
					</trkpt>
					<trkpt lat="45.788320" lon="4.668620">
						<ele>422</ele>
						<time>2024-08-13T14:31:28Z</time>
					</trkpt>
					<trkpt lat="45.787750" lon="4.667670">
						<ele>422</ele>
						<time>2024-08-13T14:31:43Z</time>
					</trkpt>
					<trkpt lat="45.787600" lon="4.667550">
						<ele>421</ele>
						<time>2024-08-13T14:31:46Z</time>
					</trkpt>
					<trkpt lat="45.787400" lon="4.667510">
						<ele>420</ele>
						<time>2024-08-13T14:31:50Z</time>
					</trkpt>
					<trkpt lat="45.787140" lon="4.667600">
						<ele>419</ele>
						<time>2024-08-13T14:31:55Z</time>
					</trkpt>
					<trkpt lat="45.786540" lon="4.668150">
						<ele>411</ele>
						<time>2024-08-13T14:32:07Z</time>
					</trkpt>
					<trkpt lat="45.786260" lon="4.668200">
						<ele>410</ele>
						<time>2024-08-13T14:32:12Z</time>
					</trkpt>
					<trkpt lat="45.786130" lon="4.668160">
						<ele>409</ele>
						<time>2024-08-13T14:32:15Z</time>
					</trkpt>
					<trkpt lat="45.786010" lon="4.668080">
						<ele>409</ele>
						<time>2024-08-13T14:32:17Z</time>
					</trkpt>
					<trkpt lat="45.785810" lon="4.667520">
						<ele>409</ele>
						<time>2024-08-13T14:32:25Z</time>
					</trkpt>
					<trkpt lat="45.785550" lon="4.666440">
						<ele>406</ele>
						<time>2024-08-13T14:32:39Z</time>
					</trkpt>
					<trkpt lat="45.785310" lon="4.665650">
						<ele>401</ele>
						<time>2024-08-13T14:32:50Z</time>
					</trkpt>
					<trkpt lat="45.785170" lon="4.664530">
						<ele>405</ele>
						<time>2024-08-13T14:33:04Z</time>
					</trkpt>
					<trkpt lat="45.785110" lon="4.664360">
						<ele>406</ele>
						<time>2024-08-13T14:33:06Z</time>
					</trkpt>
					<trkpt lat="45.785050" lon="4.664330">
						<ele>406</ele>
						<time>2024-08-13T14:33:07Z</time>
					</trkpt>
					<trkpt lat="45.785010" lon="4.664330">
						<ele>406</ele>
						<time>2024-08-13T14:33:08Z</time>
					</trkpt>
					<trkpt lat="45.784930" lon="4.664380">
						<ele>406</ele>
						<time>2024-08-13T14:33:10Z</time>
					</trkpt>
					<trkpt lat="45.784160" lon="4.665110">
						<ele>404</ele>
						<time>2024-08-13T14:33:26Z</time>
					</trkpt>
					<trkpt lat="45.783810" lon="4.665540">
						<ele>406</ele>
						<time>2024-08-13T14:33:34Z</time>
					</trkpt>
					<trkpt lat="45.783270" lon="4.666520">
						<ele>405</ele>
						<time>2024-08-13T14:33:50Z</time>
					</trkpt>
					<trkpt lat="45.783150" lon="4.666630">
						<ele>404</ele>
						<time>2024-08-13T14:33:52Z</time>
					</trkpt>
					<trkpt lat="45.782720" lon="4.666720">
						<ele>402</ele>
						<time>2024-08-13T14:34:00Z</time>
					</trkpt>
					<trkpt lat="45.782650" lon="4.666670">
						<ele>402</ele>
						<time>2024-08-13T14:34:02Z</time>
					</trkpt>
					<trkpt lat="45.782570" lon="4.666560">
						<ele>403</ele>
						<time>2024-08-13T14:34:04Z</time>
					</trkpt>
					<trkpt lat="45.782190" lon="4.665830">
						<ele>412</ele>
						<time>2024-08-13T14:34:15Z</time>
					</trkpt>
					<trkpt lat="45.782070" lon="4.665700">
						<ele>413</ele>
						<time>2024-08-13T14:34:17Z</time>
					</trkpt>
					<trkpt lat="45.781980" lon="4.665640">
						<ele>413</ele>
						<time>2024-08-13T14:34:19Z</time>
					</trkpt>
					<trkpt lat="45.781930" lon="4.665640">
						<ele>413</ele>
						<time>2024-08-13T14:34:20Z</time>
					</trkpt>
					<trkpt lat="45.781780" lon="4.665730">
						<ele>414</ele>
						<time>2024-08-13T14:34:23Z</time>
					</trkpt>
					<trkpt lat="45.781650" lon="4.666000">
						<ele>414</ele>
						<time>2024-08-13T14:34:27Z</time>
					</trkpt>
					<trkpt lat="45.781490" lon="4.666720">
						<ele>417</ele>
						<time>2024-08-13T14:34:36Z</time>
					</trkpt>
					<trkpt lat="45.781370" lon="4.667850">
						<ele>417</ele>
						<time>2024-08-13T14:34:51Z</time>
					</trkpt>
					<trkpt lat="45.781280" lon="4.668200">
						<ele>417</ele>
						<time>2024-08-13T14:34:55Z</time>
					</trkpt>
					<trkpt lat="45.781090" lon="4.668500">
						<ele>418</ele>
						<time>2024-08-13T14:35:00Z</time>
					</trkpt>
					<trkpt lat="45.780800" lon="4.668740">
						<ele>420</ele>
						<time>2024-08-13T14:35:06Z</time>
					</trkpt>
					<trkpt lat="45.780540" lon="4.668710">
						<ele>420</ele>
						<time>2024-08-13T14:35:11Z</time>
					</trkpt>
					<trkpt lat="45.779500" lon="4.668380">
						<ele>423</ele>
						<time>2024-08-13T14:35:30Z</time>
					</trkpt>
					<trkpt lat="45.778860" lon="4.668400">
						<ele>425</ele>
						<time>2024-08-13T14:35:41Z</time>
					</trkpt>
					<trkpt lat="45.778080" lon="4.668580">
						<ele>427</ele>
						<time>2024-08-13T14:35:55Z</time>
					</trkpt>
					<trkpt lat="45.778020" lon="4.668560">
						<ele>427</ele>
						<time>2024-08-13T14:35:56Z</time>
					</trkpt>
					<trkpt lat="45.777470" lon="4.667140">
						<ele>436</ele>
						<time>2024-08-13T14:36:17Z</time>
					</trkpt>
					<trkpt lat="45.776890" lon="4.665060">
						<ele>438</ele>
						<time>2024-08-13T14:36:44Z</time>
					</trkpt>
					<trkpt lat="45.776770" lon="4.664480">
						<ele>435</ele>
						<time>2024-08-13T14:36:52Z</time>
					</trkpt>
					<trkpt lat="45.776740" lon="4.664060">
						<ele>434</ele>
						<time>2024-08-13T14:36:57Z</time>
					</trkpt>
					<trkpt lat="45.776790" lon="4.663280">
						<ele>435</ele>
						<time>2024-08-13T14:37:07Z</time>
					</trkpt>
					<trkpt lat="45.776770" lon="4.662980">
						<ele>438</ele>
						<time>2024-08-13T14:37:11Z</time>
					</trkpt>
					<trkpt lat="45.776670" lon="4.662820">
						<ele>437</ele>
						<time>2024-08-13T14:37:13Z</time>
					</trkpt>
					<trkpt lat="45.776440" lon="4.662730">
						<ele>439</ele>
						<time>2024-08-13T14:37:17Z</time>
					</trkpt>
					<trkpt lat="45.775940" lon="4.662780">
						<ele>438</ele>
						<time>2024-08-13T14:37:26Z</time>
					</trkpt>
					<trkpt lat="45.775180" lon="4.663130">
						<ele>433</ele>
						<time>2024-08-13T14:37:41Z</time>
					</trkpt>
					<trkpt lat="45.774910" lon="4.663120">
						<ele>433</ele>
						<time>2024-08-13T14:37:45Z</time>
					</trkpt>
					<trkpt lat="45.774640" lon="4.662990">
						<ele>431</ele>
						<time>2024-08-13T14:37:50Z</time>
					</trkpt>
					<trkpt lat="45.774380" lon="4.662770">
						<ele>430</ele>
						<time>2024-08-13T14:37:56Z</time>
					</trkpt>
					<trkpt lat="45.774160" lon="4.662490">
						<ele>430</ele>
						<time>2024-08-13T14:38:01Z</time>
					</trkpt>
					<trkpt lat="45.773950" lon="4.661940">
						<ele>430</ele>
						<time>2024-08-13T14:38:09Z</time>
					</trkpt>
					<trkpt lat="45.773440" lon="4.659970">
						<ele>427</ele>
						<time>2024-08-13T14:38:35Z</time>
					</trkpt>
					<trkpt lat="45.773320" lon="4.659770">
						<ele>427</ele>
						<time>2024-08-13T14:38:38Z</time>
					</trkpt>
					<trkpt lat="45.773120" lon="4.659710">
						<ele>427</ele>
						<time>2024-08-13T14:38:42Z</time>
					</trkpt>
					<trkpt lat="45.772220" lon="4.660070">
						<ele>415</ele>
						<time>2024-08-13T14:38:58Z</time>
					</trkpt>
					<trkpt lat="45.772130" lon="4.660080">
						<ele>413</ele>
						<time>2024-08-13T14:39:00Z</time>
					</trkpt>
					<trkpt lat="45.772040" lon="4.660030">
						<ele>413</ele>
						<time>2024-08-13T14:39:02Z</time>
					</trkpt>
					<trkpt lat="45.771740" lon="4.659520">
						<ele>413</ele>
						<time>2024-08-13T14:39:10Z</time>
					</trkpt>
					<trkpt lat="45.771550" lon="4.659050">
						<ele>413</ele>
						<time>2024-08-13T14:39:17Z</time>
					</trkpt>
					<trkpt lat="45.771320" lon="4.658030">
						<ele>413</ele>
						<time>2024-08-13T14:39:30Z</time>
					</trkpt>
					<trkpt lat="45.771260" lon="4.657970">
						<ele>413</ele>
						<time>2024-08-13T14:39:31Z</time>
					</trkpt>
					<trkpt lat="45.771110" lon="4.657900">
						<ele>412</ele>
						<time>2024-08-13T14:39:34Z</time>
					</trkpt>
					<trkpt lat="45.771050" lon="4.657910">
						<ele>412</ele>
						<time>2024-08-13T14:39:35Z</time>
					</trkpt>
					<trkpt lat="45.770960" lon="4.657990">
						<ele>411</ele>
						<time>2024-08-13T14:39:37Z</time>
					</trkpt>
					<trkpt lat="45.770910" lon="4.658090">
						<ele>410</ele>
						<time>2024-08-13T14:39:39Z</time>
					</trkpt>
					<trkpt lat="45.770830" lon="4.658280">
						<ele>408</ele>
						<time>2024-08-13T14:39:41Z</time>
					</trkpt>
					<trkpt lat="45.770770" lon="4.658620">
						<ele>408</ele>
						<time>2024-08-13T14:39:46Z</time>
					</trkpt>
					<trkpt lat="45.770720" lon="4.659420">
						<ele>410</ele>
						<time>2024-08-13T14:39:56Z</time>
					</trkpt>
					<trkpt lat="45.770760" lon="4.660330">
						<ele>409</ele>
						<time>2024-08-13T14:40:07Z</time>
					</trkpt>
					<trkpt lat="45.770730" lon="4.661060">
						<ele>411</ele>
						<time>2024-08-13T14:40:16Z</time>
					</trkpt>
					<trkpt lat="45.770680" lon="4.661430">
						<ele>413</ele>
						<time>2024-08-13T14:40:21Z</time>
					</trkpt>
					<trkpt lat="45.770600" lon="4.661730">
						<ele>415</ele>
						<time>2024-08-13T14:40:25Z</time>
					</trkpt>
					<trkpt lat="45.770490" lon="4.661930">
						<ele>416</ele>
						<time>2024-08-13T14:40:28Z</time>
					</trkpt>
					<trkpt lat="45.770230" lon="4.662170">
						<ele>418</ele>
						<time>2024-08-13T14:40:34Z</time>
					</trkpt>
					<trkpt lat="45.770040" lon="4.662270">
						<ele>419</ele>
						<time>2024-08-13T14:40:37Z</time>
					</trkpt>
					<trkpt lat="45.769830" lon="4.662290">
						<ele>419</ele>
						<time>2024-08-13T14:40:41Z</time>
					</trkpt>
					<trkpt lat="45.769610" lon="4.662240">
						<ele>419</ele>
						<time>2024-08-13T14:40:45Z</time>
					</trkpt>
					<trkpt lat="45.769400" lon="4.662070">
						<ele>420</ele>
						<time>2024-08-13T14:40:49Z</time>
					</trkpt>
					<trkpt lat="45.769140" lon="4.661810">
						<ele>423</ele>
						<time>2024-08-13T14:40:55Z</time>
					</trkpt>
					<trkpt lat="45.768900" lon="4.661690">
						<ele>426</ele>
						<time>2024-08-13T14:40:59Z</time>
					</trkpt>
					<trkpt lat="45.768560" lon="4.661750">
						<ele>428</ele>
						<time>2024-08-13T14:41:05Z</time>
					</trkpt>
					<trkpt lat="45.768140" lon="4.662040">
						<ele>425</ele>
						<time>2024-08-13T14:41:14Z</time>
					</trkpt>
					<trkpt lat="45.767620" lon="4.662170">
						<ele>422</ele>
						<time>2024-08-13T14:41:23Z</time>
					</trkpt>
					<trkpt lat="45.767430" lon="4.662170">
						<ele>421</ele>
						<time>2024-08-13T14:41:26Z</time>
					</trkpt>
					<trkpt lat="45.767280" lon="4.662050">
						<ele>420</ele>
						<time>2024-08-13T14:41:30Z</time>
					</trkpt>
					<trkpt lat="45.766830" lon="4.661250">
						<ele>423</ele>
						<time>2024-08-13T14:41:42Z</time>
					</trkpt>
					<trkpt lat="45.766680" lon="4.661110">
						<ele>423</ele>
						<time>2024-08-13T14:41:45Z</time>
					</trkpt>
					<trkpt lat="45.766500" lon="4.661020">
						<ele>423</ele>
						<time>2024-08-13T14:41:49Z</time>
					</trkpt>
					<trkpt lat="45.766290" lon="4.660960">
						<ele>424</ele>
						<time>2024-08-13T14:41:53Z</time>
					</trkpt>
					<trkpt lat="45.766100" lon="4.660940">
						<ele>423</ele>
						<time>2024-08-13T14:41:56Z</time>
					</trkpt>
					<trkpt lat="45.765440" lon="4.661180">
						<ele>423</ele>
						<time>2024-08-13T14:42:08Z</time>
					</trkpt>
					<trkpt lat="45.765170" lon="4.661120">
						<ele>425</ele>
						<time>2024-08-13T14:42:13Z</time>
					</trkpt>
					<trkpt lat="45.765020" lon="4.661020">
						<ele>426</ele>
						<time>2024-08-13T14:42:16Z</time>
					</trkpt>
					<trkpt lat="45.764980" lon="4.660940">
						<ele>427</ele>
						<time>2024-08-13T14:42:17Z</time>
					</trkpt>
					<trkpt lat="45.764940" lon="4.660750">
						<ele>427</ele>
						<time>2024-08-13T14:42:20Z</time>
					</trkpt>
					<trkpt lat="45.764580" lon="4.660530">
						<ele>429</ele>
						<time>2024-08-13T14:42:27Z</time>
					</trkpt>
					<trkpt lat="45.764190" lon="4.660350">
						<ele>429</ele>
						<time>2024-08-13T14:42:34Z</time>
					</trkpt>
					<trkpt lat="45.763990" lon="4.660360">
						<ele>428</ele>
						<time>2024-08-13T14:42:37Z</time>
					</trkpt>
					<trkpt lat="45.763440" lon="4.660710">
						<ele>423</ele>
						<time>2024-08-13T14:42:48Z</time>
					</trkpt>
					<trkpt lat="45.763140" lon="4.660930">
						<ele>419</ele>
						<time>2024-08-13T14:42:54Z</time>
					</trkpt>
					<trkpt lat="45.762820" lon="4.661050">
						<ele>416</ele>
						<time>2024-08-13T14:43:00Z</time>
					</trkpt>
					<trkpt lat="45.762690" lon="4.661060">
						<ele>415</ele>
						<time>2024-08-13T14:43:02Z</time>
					</trkpt>
					<trkpt lat="45.761920" lon="4.660800">
						<ele>409</ele>
						<time>2024-08-13T14:43:16Z</time>
					</trkpt>
					<trkpt lat="45.761660" lon="4.660670">
						<ele>406</ele>
						<time>2024-08-13T14:43:21Z</time>
					</trkpt>
					<trkpt lat="45.761560" lon="4.660600">
						<ele>405</ele>
						<time>2024-08-13T14:43:23Z</time>
					</trkpt>
					<trkpt lat="45.761480" lon="4.660500">
						<ele>404</ele>
						<time>2024-08-13T14:43:25Z</time>
					</trkpt>
					<trkpt lat="45.761350" lon="4.660280">
						<ele>402</ele>
						<time>2024-08-13T14:43:29Z</time>
					</trkpt>
					<trkpt lat="45.760840" lon="4.659010">
						<ele>396</ele>
						<time>2024-08-13T14:43:47Z</time>
					</trkpt>
					<trkpt lat="45.760700" lon="4.658850">
						<ele>397</ele>
						<time>2024-08-13T14:43:50Z</time>
					</trkpt>
					<trkpt lat="45.760570" lon="4.658780">
						<ele>397</ele>
						<time>2024-08-13T14:43:53Z</time>
					</trkpt>
					<trkpt lat="45.760430" lon="4.658750">
						<ele>397</ele>
						<time>2024-08-13T14:43:55Z</time>
					</trkpt>
					<trkpt lat="45.760270" lon="4.658740">
						<ele>397</ele>
						<time>2024-08-13T14:43:58Z</time>
					</trkpt>
					<trkpt lat="45.760110" lon="4.658790">
						<ele>396</ele>
						<time>2024-08-13T14:44:01Z</time>
					</trkpt>
					<trkpt lat="45.759990" lon="4.658870">
						<ele>396</ele>
						<time>2024-08-13T14:44:03Z</time>
					</trkpt>
					<trkpt lat="45.759880" lon="4.659020">
						<ele>395</ele>
						<time>2024-08-13T14:44:06Z</time>
					</trkpt>
					<trkpt lat="45.759600" lon="4.659600">
						<ele>392</ele>
						<time>2024-08-13T14:44:15Z</time>
					</trkpt>
					<trkpt lat="45.759400" lon="4.659910">
						<ele>391</ele>
						<time>2024-08-13T14:44:20Z</time>
					</trkpt>
					<trkpt lat="45.759240" lon="4.660070">
						<ele>390</ele>
						<time>2024-08-13T14:44:23Z</time>
					</trkpt>
					<trkpt lat="45.759040" lon="4.660180">
						<ele>390</ele>
						<time>2024-08-13T14:44:27Z</time>
					</trkpt>
					<trkpt lat="45.758760" lon="4.660280">
						<ele>391</ele>
						<time>2024-08-13T14:44:32Z</time>
					</trkpt>
					<trkpt lat="45.758080" lon="4.660470">
						<ele>393</ele>
						<time>2024-08-13T14:44:45Z</time>
					</trkpt>
					<trkpt lat="45.757790" lon="4.660480">
						<ele>394</ele>
						<time>2024-08-13T14:44:50Z</time>
					</trkpt>
					<trkpt lat="45.756630" lon="4.660260">
						<ele>394</ele>
						<time>2024-08-13T14:45:11Z</time>
					</trkpt>
					<trkpt lat="45.755730" lon="4.660170">
						<ele>388</ele>
						<time>2024-08-13T14:45:27Z</time>
					</trkpt>
					<trkpt lat="45.755460" lon="4.660070">
						<ele>386</ele>
						<time>2024-08-13T14:45:32Z</time>
					</trkpt>
					<trkpt lat="45.754890" lon="4.659730">
						<ele>383</ele>
						<time>2024-08-13T14:45:43Z</time>
					</trkpt>
					<trkpt lat="45.754530" lon="4.659400">
						<ele>384</ele>
						<time>2024-08-13T14:45:50Z</time>
					</trkpt>
					<trkpt lat="45.753080" lon="4.657960">
						<ele>390</ele>
						<time>2024-08-13T14:46:22Z</time>
					</trkpt>
					<trkpt lat="45.752990" lon="4.657910">
						<ele>391</ele>
						<time>2024-08-13T14:46:23Z</time>
					</trkpt>
					<trkpt lat="45.752900" lon="4.657910">
						<ele>392</ele>
						<time>2024-08-13T14:46:25Z</time>
					</trkpt>
					<trkpt lat="45.752790" lon="4.657960">
						<ele>393</ele>
						<time>2024-08-13T14:46:27Z</time>
					</trkpt>
					<trkpt lat="45.752400" lon="4.658490">
						<ele>398</ele>
						<time>2024-08-13T14:46:37Z</time>
					</trkpt>
					<trkpt lat="45.751760" lon="4.659160">
						<ele>400</ele>
						<time>2024-08-13T14:46:51Z</time>
					</trkpt>
					<trkpt lat="45.751670" lon="4.659380">
						<ele>402</ele>
						<time>2024-08-13T14:46:54Z</time>
					</trkpt>
					<trkpt lat="45.751670" lon="4.659710">
						<ele>405</ele>
						<time>2024-08-13T14:46:58Z</time>
					</trkpt>
					<trkpt lat="45.751810" lon="4.660080">
						<ele>407</ele>
						<time>2024-08-13T14:47:03Z</time>
					</trkpt>
					<trkpt lat="45.752010" lon="4.660260">
						<ele>407</ele>
						<time>2024-08-13T14:47:07Z</time>
					</trkpt>
					<trkpt lat="45.752380" lon="4.660470">
						<ele>407</ele>
						<time>2024-08-13T14:47:14Z</time>
					</trkpt>
					<trkpt lat="45.752490" lon="4.660580">
						<ele>407</ele>
						<time>2024-08-13T14:47:17Z</time>
					</trkpt>
					<trkpt lat="45.752570" lon="4.660750">
						<ele>408</ele>
						<time>2024-08-13T14:47:19Z</time>
					</trkpt>
					<trkpt lat="45.752630" lon="4.661050">
						<ele>409</ele>
						<time>2024-08-13T14:47:23Z</time>
					</trkpt>
					<trkpt lat="45.752630" lon="4.661150">
						<ele>409</ele>
						<time>2024-08-13T14:47:25Z</time>
					</trkpt>
					<trkpt lat="45.752570" lon="4.661380">
						<ele>411</ele>
						<time>2024-08-13T14:47:28Z</time>
					</trkpt>
					<trkpt lat="45.752180" lon="4.662240">
						<ele>416</ele>
						<time>2024-08-13T14:47:40Z</time>
					</trkpt>
					<trkpt lat="45.751830" lon="4.662930">
						<ele>419</ele>
						<time>2024-08-13T14:47:51Z</time>
					</trkpt>
					<trkpt lat="45.751670" lon="4.663150">
						<ele>420</ele>
						<time>2024-08-13T14:47:55Z</time>
					</trkpt>
					<trkpt lat="45.751510" lon="4.663320">
						<ele>421</ele>
						<time>2024-08-13T14:47:58Z</time>
					</trkpt>
					<trkpt lat="45.750450" lon="4.664170">
						<ele>422</ele>
						<time>2024-08-13T14:48:20Z</time>
					</trkpt>
					<trkpt lat="45.750160" lon="4.664350">
						<ele>423</ele>
						<time>2024-08-13T14:48:26Z</time>
					</trkpt>
					<trkpt lat="45.749710" lon="4.664530">
						<ele>423</ele>
						<time>2024-08-13T14:48:34Z</time>
					</trkpt>
					<trkpt lat="45.749570" lon="4.664540">
						<ele>422</ele>
						<time>2024-08-13T14:48:36Z</time>
					</trkpt>
					<trkpt lat="45.749440" lon="4.664510">
						<ele>422</ele>
						<time>2024-08-13T14:48:39Z</time>
					</trkpt>
					<trkpt lat="45.749310" lon="4.664440">
						<ele>422</ele>
						<time>2024-08-13T14:48:41Z</time>
					</trkpt>
					<trkpt lat="45.748920" lon="4.663950">
						<ele>422</ele>
						<time>2024-08-13T14:48:50Z</time>
					</trkpt>
					<trkpt lat="45.748830" lon="4.663880">
						<ele>421</ele>
						<time>2024-08-13T14:48:52Z</time>
					</trkpt>
					<trkpt lat="45.748580" lon="4.662600">
						<ele>425</ele>
						<time>2024-08-13T14:49:09Z</time>
					</trkpt>
					<trkpt lat="45.748450" lon="4.662070">
						<ele>429</ele>
						<time>2024-08-13T14:49:16Z</time>
					</trkpt>
					<trkpt lat="45.748270" lon="4.661610">
						<ele>431</ele>
						<time>2024-08-13T14:49:22Z</time>
					</trkpt>
					<trkpt lat="45.748240" lon="4.661360">
						<ele>432</ele>
						<time>2024-08-13T14:49:25Z</time>
					</trkpt>
					<trkpt lat="45.748240" lon="4.660670">
						<ele>436</ele>
						<time>2024-08-13T14:49:34Z</time>
					</trkpt>
					<trkpt lat="45.748360" lon="4.659830">
						<ele>442</ele>
						<time>2024-08-13T14:49:45Z</time>
					</trkpt>
					<trkpt lat="45.748360" lon="4.659340">
						<ele>446</ele>
						<time>2024-08-13T14:49:51Z</time>
					</trkpt>
					<trkpt lat="45.748410" lon="4.659090">
						<ele>447</ele>
						<time>2024-08-13T14:49:54Z</time>
					</trkpt>
					<trkpt lat="45.748550" lon="4.658750">
						<ele>449</ele>
						<time>2024-08-13T14:49:59Z</time>
					</trkpt>
					<trkpt lat="45.748650" lon="4.658430">
						<ele>450</ele>
						<time>2024-08-13T14:50:03Z</time>
					</trkpt>
					<trkpt lat="45.748660" lon="4.658050">
						<ele>452</ele>
						<time>2024-08-13T14:50:08Z</time>
					</trkpt>
					<trkpt lat="45.748620" lon="4.657380">
						<ele>456</ele>
						<time>2024-08-13T14:50:16Z</time>
					</trkpt>
					<trkpt lat="45.748490" lon="4.656940">
						<ele>458</ele>
						<time>2024-08-13T14:50:22Z</time>
					</trkpt>
					<trkpt lat="45.748370" lon="4.656680">
						<ele>459</ele>
						<time>2024-08-13T14:50:26Z</time>
					</trkpt>
					<trkpt lat="45.747090" lon="4.655400">
						<ele>471</ele>
						<time>2024-08-13T14:50:54Z</time>
					</trkpt>
					<trkpt lat="45.746820" lon="4.654770">
						<ele>475</ele>
						<time>2024-08-13T14:51:03Z</time>
					</trkpt>
					<trkpt lat="45.746660" lon="4.654270">
						<ele>479</ele>
						<time>2024-08-13T14:51:10Z</time>
					</trkpt>
					<trkpt lat="45.746510" lon="4.653430">
						<ele>484</ele>
						<time>2024-08-13T14:51:21Z</time>
					</trkpt>
					<trkpt lat="45.746540" lon="4.653240">
						<ele>484</ele>
						<time>2024-08-13T14:51:23Z</time>
					</trkpt>
					<trkpt lat="45.746600" lon="4.653060">
						<ele>485</ele>
						<time>2024-08-13T14:51:26Z</time>
					</trkpt>
					<trkpt lat="45.747010" lon="4.652190">
						<ele>486</ele>
						<time>2024-08-13T14:51:39Z</time>
					</trkpt>
					<trkpt lat="45.747110" lon="4.651830">
						<ele>489</ele>
						<time>2024-08-13T14:51:43Z</time>
					</trkpt>
					<trkpt lat="45.747200" lon="4.651120">
						<ele>495</ele>
						<time>2024-08-13T14:51:52Z</time>
					</trkpt>
					<trkpt lat="45.747340" lon="4.650600">
						<ele>498</ele>
						<time>2024-08-13T14:51:59Z</time>
					</trkpt>
					<trkpt lat="45.747490" lon="4.649880">
						<ele>506</ele>
						<time>2024-08-13T14:52:09Z</time>
					</trkpt>
					<trkpt lat="45.747510" lon="4.649560">
						<ele>507</ele>
						<time>2024-08-13T14:52:13Z</time>
					</trkpt>
					<trkpt lat="45.747490" lon="4.649360">
						<ele>508</ele>
						<time>2024-08-13T14:52:15Z</time>
					</trkpt>
					<trkpt lat="45.747350" lon="4.648780">
						<ele>514</ele>
						<time>2024-08-13T14:52:23Z</time>
					</trkpt>
					<trkpt lat="45.747460" lon="4.648490">
						<ele>516</ele>
						<time>2024-08-13T14:52:27Z</time>
					</trkpt>
					<trkpt lat="45.747930" lon="4.647510">
						<ele>518</ele>
						<time>2024-08-13T14:52:42Z</time>
					</trkpt>
					<trkpt lat="45.748120" lon="4.646820">
						<ele>529</ele>
						<time>2024-08-13T14:52:51Z</time>
					</trkpt>
					<trkpt lat="45.748340" lon="4.646290">
						<ele>536</ele>
						<time>2024-08-13T14:52:58Z</time>
					</trkpt>
					<trkpt lat="45.748420" lon="4.646130">
						<ele>539</ele>
						<time>2024-08-13T14:53:01Z</time>
					</trkpt>
					<trkpt lat="45.748480" lon="4.646070">
						<ele>539</ele>
						<time>2024-08-13T14:53:02Z</time>
					</trkpt>
					<trkpt lat="45.748680" lon="4.645960">
						<ele>539</ele>
						<time>2024-08-13T14:53:06Z</time>
					</trkpt>
					<trkpt lat="45.749170" lon="4.645790">
						<ele>535</ele>
						<time>2024-08-13T14:53:15Z</time>
					</trkpt>
					<trkpt lat="45.749260" lon="4.645800">
						<ele>537</ele>
						<time>2024-08-13T14:53:17Z</time>
					</trkpt>
					<trkpt lat="45.749440" lon="4.645910">
						<ele>537</ele>
						<time>2024-08-13T14:53:20Z</time>
					</trkpt>
					<trkpt lat="45.749800" lon="4.646210">
						<ele>536</ele>
						<time>2024-08-13T14:53:28Z</time>
					</trkpt>
					<trkpt lat="45.749880" lon="4.646230">
						<ele>537</ele>
						<time>2024-08-13T14:53:29Z</time>
					</trkpt>
					<trkpt lat="45.750040" lon="4.646210">
						<ele>539</ele>
						<time>2024-08-13T14:53:32Z</time>
					</trkpt>
					<trkpt lat="45.750160" lon="4.646150">
						<ele>539</ele>
						<time>2024-08-13T14:53:34Z</time>
					</trkpt>
					<trkpt lat="45.750330" lon="4.646000">
						<ele>542</ele>
						<time>2024-08-13T14:53:38Z</time>
					</trkpt>
					<trkpt lat="45.750620" lon="4.645600">
						<ele>549</ele>
						<time>2024-08-13T14:53:45Z</time>
					</trkpt>
					<trkpt lat="45.750770" lon="4.645450">
						<ele>551</ele>
						<time>2024-08-13T14:53:48Z</time>
					</trkpt>
					<trkpt lat="45.751210" lon="4.645160">
						<ele>552</ele>
						<time>2024-08-13T14:53:57Z</time>
					</trkpt>
					<trkpt lat="45.751440" lon="4.644930">
						<ele>555</ele>
						<time>2024-08-13T14:54:02Z</time>
					</trkpt>
					<trkpt lat="45.751610" lon="4.644650">
						<ele>559</ele>
						<time>2024-08-13T14:54:06Z</time>
					</trkpt>
					<trkpt lat="45.751970" lon="4.643770">
						<ele>569</ele>
						<time>2024-08-13T14:54:19Z</time>
					</trkpt>
					<trkpt lat="45.752280" lon="4.643400">
						<ele>567</ele>
						<time>2024-08-13T14:54:26Z</time>
					</trkpt>
					<trkpt lat="45.752510" lon="4.642970">
						<ele>568</ele>
						<time>2024-08-13T14:54:33Z</time>
					</trkpt>
					<trkpt lat="45.752620" lon="4.642690">
						<ele>570</ele>
						<time>2024-08-13T14:54:37Z</time>
					</trkpt>
					<trkpt lat="45.752720" lon="4.642310">
						<ele>574</ele>
						<time>2024-08-13T14:54:42Z</time>
					</trkpt>
					<trkpt lat="45.752870" lon="4.641570">
						<ele>580</ele>
						<time>2024-08-13T14:54:51Z</time>
					</trkpt>
					<trkpt lat="45.753100" lon="4.640650">
						<ele>586</ele>
						<time>2024-08-13T14:55:04Z</time>
					</trkpt>
					<trkpt lat="45.753190" lon="4.640410">
						<ele>588</ele>
						<time>2024-08-13T14:55:07Z</time>
					</trkpt>
					<trkpt lat="45.753290" lon="4.640230">
						<ele>589</ele>
						<time>2024-08-13T14:55:10Z</time>
					</trkpt>
					<trkpt lat="45.753750" lon="4.639670">
						<ele>595</ele>
						<time>2024-08-13T14:55:21Z</time>
					</trkpt>
					<trkpt lat="45.754090" lon="4.639130">
						<ele>599</ele>
						<time>2024-08-13T14:55:30Z</time>
					</trkpt>
					<trkpt lat="45.754310" lon="4.638700">
						<ele>605</ele>
						<time>2024-08-13T14:55:36Z</time>
					</trkpt>
					<trkpt lat="45.754400" lon="4.638570">
						<ele>606</ele>
						<time>2024-08-13T14:55:38Z</time>
					</trkpt>
					<trkpt lat="45.754540" lon="4.638450">
						<ele>606</ele>
						<time>2024-08-13T14:55:41Z</time>
					</trkpt>
					<trkpt lat="45.754980" lon="4.638260">
						<ele>600</ele>
						<time>2024-08-13T14:55:50Z</time>
					</trkpt>
					<trkpt lat="45.755190" lon="4.638080">
						<ele>602</ele>
						<time>2024-08-13T14:55:54Z</time>
					</trkpt>
					<trkpt lat="45.755440" lon="4.637760">
						<ele>606</ele>
						<time>2024-08-13T14:56:00Z</time>
					</trkpt>
					<trkpt lat="45.756100" lon="4.636710">
						<ele>615</ele>
						<time>2024-08-13T14:56:17Z</time>
					</trkpt>
					<trkpt lat="45.756250" lon="4.636220">
						<ele>615</ele>
						<time>2024-08-13T14:56:24Z</time>
					</trkpt>
					<trkpt lat="45.756280" lon="4.635820">
						<ele>617</ele>
						<time>2024-08-13T14:56:29Z</time>
					</trkpt>
					<trkpt lat="45.756240" lon="4.635340">
						<ele>619</ele>
						<time>2024-08-13T14:56:35Z</time>
					</trkpt>
					<trkpt lat="45.756060" lon="4.634080">
						<ele>628</ele>
						<time>2024-08-13T14:56:51Z</time>
					</trkpt>
					<trkpt lat="45.755950" lon="4.633090">
						<ele>637</ele>
						<time>2024-08-13T14:57:03Z</time>
					</trkpt>
					<trkpt lat="45.755940" lon="4.632560">
						<ele>640</ele>
						<time>2024-08-13T14:57:10Z</time>
					</trkpt>
					<trkpt lat="45.756130" lon="4.630930">
						<ele>657</ele>
						<time>2024-08-13T14:57:31Z</time>
					</trkpt>
					<trkpt lat="45.756160" lon="4.630800">
						<ele>659</ele>
						<time>2024-08-13T14:57:32Z</time>
					</trkpt>
					<trkpt lat="45.756230" lon="4.630660">
						<ele>661</ele>
						<time>2024-08-13T14:57:34Z</time>
					</trkpt>
					<trkpt lat="45.756340" lon="4.630600">
						<ele>660</ele>
						<time>2024-08-13T14:57:36Z</time>
					</trkpt>
					<trkpt lat="45.756470" lon="4.630610">
						<ele>658</ele>
						<time>2024-08-13T14:57:39Z</time>
					</trkpt>
					<trkpt lat="45.756600" lon="4.630680">
						<ele>654</ele>
						<time>2024-08-13T14:57:41Z</time>
					</trkpt>
					<trkpt lat="45.756720" lon="4.630770">
						<ele>652</ele>
						<time>2024-08-13T14:57:44Z</time>
					</trkpt>
					<trkpt lat="45.757270" lon="4.631310">
						<ele>648</ele>
						<time>2024-08-13T14:57:56Z</time>
					</trkpt>
					<trkpt lat="45.757400" lon="4.631360">
						<ele>649</ele>
						<time>2024-08-13T14:57:58Z</time>
					</trkpt>
					<trkpt lat="45.757510" lon="4.631350">
						<ele>651</ele>
						<time>2024-08-13T14:58:00Z</time>
					</trkpt>
					<trkpt lat="45.757790" lon="4.631210">
						<ele>661</ele>
						<time>2024-08-13T14:58:05Z</time>
					</trkpt>
					<trkpt lat="45.757910" lon="4.631190">
						<ele>664</ele>
						<time>2024-08-13T14:58:07Z</time>
					</trkpt>
					<trkpt lat="45.758070" lon="4.631230">
						<ele>666</ele>
						<time>2024-08-13T14:58:10Z</time>
					</trkpt>
					<trkpt lat="45.758370" lon="4.631470">
						<ele>666</ele>
						<time>2024-08-13T14:58:16Z</time>
					</trkpt>
					<trkpt lat="45.758940" lon="4.632120">
						<ele>668</ele>
						<time>2024-08-13T14:58:29Z</time>
					</trkpt>
					<trkpt lat="45.759160" lon="4.632310">
						<ele>670</ele>
						<time>2024-08-13T14:58:34Z</time>
					</trkpt>
					<trkpt lat="45.759440" lon="4.632480">
						<ele>669</ele>
						<time>2024-08-13T14:58:39Z</time>
					</trkpt>
					<trkpt lat="45.759830" lon="4.632560">
						<ele>671</ele>
						<time>2024-08-13T14:58:46Z</time>
					</trkpt>
					<trkpt lat="45.759920" lon="4.632550">
						<ele>673</ele>
						<time>2024-08-13T14:58:48Z</time>
					</trkpt>
					<trkpt lat="45.760110" lon="4.632480">
						<ele>674</ele>
						<time>2024-08-13T14:58:51Z</time>
					</trkpt>
					<trkpt lat="45.760250" lon="4.632380">
						<ele>675</ele>
						<time>2024-08-13T14:58:54Z</time>
					</trkpt>
					<trkpt lat="45.760460" lon="4.632140">
						<ele>679</ele>
						<time>2024-08-13T14:58:59Z</time>
					</trkpt>
					<trkpt lat="45.760780" lon="4.631740">
						<ele>685</ele>
						<time>2024-08-13T14:59:06Z</time>
					</trkpt>
					<trkpt lat="45.760920" lon="4.631500">
						<ele>690</ele>
						<time>2024-08-13T14:59:10Z</time>
					</trkpt>
					<trkpt lat="45.761400" lon="4.630530">
						<ele>702</ele>
						<time>2024-08-13T14:59:25Z</time>
					</trkpt>
					<trkpt lat="45.761520" lon="4.630390">
						<ele>702</ele>
						<time>2024-08-13T14:59:28Z</time>
					</trkpt>
					<trkpt lat="45.761590" lon="4.630360">
						<ele>702</ele>
						<time>2024-08-13T14:59:29Z</time>
					</trkpt>
					<trkpt lat="45.761630" lon="4.630370">
						<ele>702</ele>
						<time>2024-08-13T14:59:30Z</time>
					</trkpt>
					<trkpt lat="45.761750" lon="4.630490">
						<ele>702</ele>
						<time>2024-08-13T14:59:33Z</time>
					</trkpt>
					<trkpt lat="45.761800" lon="4.630650">
						<ele>701</ele>
						<time>2024-08-13T14:59:35Z</time>
					</trkpt>
					<trkpt lat="45.761930" lon="4.631700">
						<ele>698</ele>
						<time>2024-08-13T14:59:48Z</time>
					</trkpt>
					<trkpt lat="45.761950" lon="4.632460">
						<ele>693</ele>
						<time>2024-08-13T14:59:57Z</time>
					</trkpt>
					<trkpt lat="45.761990" lon="4.632850">
						<ele>693</ele>
						<time>2024-08-13T15:00:02Z</time>
					</trkpt>
					<trkpt lat="45.762050" lon="4.633000">
						<ele>694</ele>
						<time>2024-08-13T15:00:04Z</time>
					</trkpt>
					<trkpt lat="45.762110" lon="4.633080">
						<ele>696</ele>
						<time>2024-08-13T15:00:06Z</time>
					</trkpt>
					<trkpt lat="45.762210" lon="4.633100">
						<ele>699</ele>
						<time>2024-08-13T15:00:08Z</time>
					</trkpt>
					<trkpt lat="45.762310" lon="4.633020">
						<ele>703</ele>
						<time>2024-08-13T15:00:10Z</time>
					</trkpt>
					<trkpt lat="45.762340" lon="4.632930">
						<ele>704</ele>
						<time>2024-08-13T15:00:11Z</time>
					</trkpt>
					<trkpt lat="45.762340" lon="4.632750">
						<ele>705</ele>
						<time>2024-08-13T15:00:13Z</time>
					</trkpt>
					<trkpt lat="45.762280" lon="4.632540">
						<ele>704</ele>
						<time>2024-08-13T15:00:16Z</time>
					</trkpt>
					<trkpt lat="45.762250" lon="4.631860">
						<ele>707</ele>
						<time>2024-08-13T15:00:24Z</time>
					</trkpt>
					<trkpt lat="45.762270" lon="4.631420">
						<ele>709</ele>
						<time>2024-08-13T15:00:30Z</time>
					</trkpt>
					<trkpt lat="45.762400" lon="4.630590">
						<ele>714</ele>
						<time>2024-08-13T15:00:40Z</time>
					</trkpt>
					<trkpt lat="45.762830" lon="4.628910">
						<ele>723</ele>
						<time>2024-08-13T15:01:03Z</time>
					</trkpt>
					<trkpt lat="45.763070" lon="4.627260">
						<ele>724</ele>
						<time>2024-08-13T15:01:24Z</time>
					</trkpt>
					<trkpt lat="45.763020" lon="4.626910">
						<ele>724</ele>
						<time>2024-08-13T15:01:28Z</time>
					</trkpt>
					<trkpt lat="45.762940" lon="4.626660">
						<ele>725</ele>
						<time>2024-08-13T15:01:31Z</time>
					</trkpt>
					<trkpt lat="45.762820" lon="4.626540">
						<ele>727</ele>
						<time>2024-08-13T15:01:34Z</time>
					</trkpt>
					<trkpt lat="45.762390" lon="4.626490">
						<ele>734</ele>
						<time>2024-08-13T15:01:42Z</time>
					</trkpt>
					<trkpt lat="45.761930" lon="4.626250">
						<ele>737</ele>
						<time>2024-08-13T15:01:50Z</time>
					</trkpt>
					<trkpt lat="45.761520" lon="4.625780">
						<ele>741</ele>
						<time>2024-08-13T15:02:00Z</time>
					</trkpt>
					<trkpt lat="45.761110" lon="4.625200">
						<ele>741</ele>
						<time>2024-08-13T15:02:10Z</time>
					</trkpt>
					<trkpt lat="45.760700" lon="4.624720">
						<ele>747</ele>
						<time>2024-08-13T15:02:19Z</time>
					</trkpt>
					<trkpt lat="45.760060" lon="4.623870">
						<ele>754</ele>
						<time>2024-08-13T15:02:35Z</time>
					</trkpt>
					<trkpt lat="45.759660" lon="4.623030">
						<ele>756</ele>
						<time>2024-08-13T15:02:48Z</time>
					</trkpt>
					<trkpt lat="45.759520" lon="4.622830">
						<ele>757</ele>
						<time>2024-08-13T15:02:51Z</time>
					</trkpt>
					<trkpt lat="45.758690" lon="4.622140">
						<ele>761</ele>
						<time>2024-08-13T15:03:08Z</time>
					</trkpt>
					<trkpt lat="45.758570" lon="4.622010">
						<ele>761</ele>
						<time>2024-08-13T15:03:11Z</time>
					</trkpt>
					<trkpt lat="45.758130" lon="4.621490">
						<ele>756</ele>
						<time>2024-08-13T15:03:21Z</time>
					</trkpt>
					<trkpt lat="45.757580" lon="4.620580">
						<ele>756</ele>
						<time>2024-08-13T15:03:36Z</time>
					</trkpt>
					<trkpt lat="45.756440" lon="4.618170">
						<ele>756</ele>
						<time>2024-08-13T15:04:12Z</time>
					</trkpt>
					<trkpt lat="45.756240" lon="4.617680">
						<ele>756</ele>
						<time>2024-08-13T15:04:19Z</time>
					</trkpt>
					<trkpt lat="45.756190" lon="4.617290">
						<ele>758</ele>
						<time>2024-08-13T15:04:24Z</time>
					</trkpt>
					<trkpt lat="45.756190" lon="4.616970">
						<ele>759</ele>
						<time>2024-08-13T15:04:28Z</time>
					</trkpt>
					<trkpt lat="45.756250" lon="4.616020">
						<ele>756</ele>
						<time>2024-08-13T15:04:40Z</time>
					</trkpt>
					<trkpt lat="45.756230" lon="4.615710">
						<ele>754</ele>
						<time>2024-08-13T15:04:44Z</time>
					</trkpt>
					<trkpt lat="45.756150" lon="4.615170">
						<ele>752</ele>
						<time>2024-08-13T15:04:51Z</time>
					</trkpt>
					<trkpt lat="45.756100" lon="4.614940">
						<ele>752</ele>
						<time>2024-08-13T15:04:54Z</time>
					</trkpt>
					<trkpt lat="45.755900" lon="4.614380">
						<ele>753</ele>
						<time>2024-08-13T15:05:01Z</time>
					</trkpt>
					<trkpt lat="45.755600" lon="4.613930">
						<ele>755</ele>
						<time>2024-08-13T15:05:09Z</time>
					</trkpt>
					<trkpt lat="45.755330" lon="4.613680">
						<ele>755</ele>
						<time>2024-08-13T15:05:15Z</time>
					</trkpt>
					<trkpt lat="45.754960" lon="4.613460">
						<ele>754</ele>
						<time>2024-08-13T15:05:22Z</time>
					</trkpt>
					<trkpt lat="45.754340" lon="4.613200">
						<ele>756</ele>
						<time>2024-08-13T15:05:33Z</time>
					</trkpt>
					<trkpt lat="45.754180" lon="4.613100">
						<ele>755</ele>
						<time>2024-08-13T15:05:37Z</time>
					</trkpt>
					<trkpt lat="45.753830" lon="4.612810">
						<ele>757</ele>
						<time>2024-08-13T15:05:44Z</time>
					</trkpt>
					<trkpt lat="45.752900" lon="4.611740">
						<ele>755</ele>
						<time>2024-08-13T15:06:05Z</time>
					</trkpt>
					<trkpt lat="45.752650" lon="4.611410">
						<ele>754</ele>
						<time>2024-08-13T15:06:11Z</time>
					</trkpt>
					<trkpt lat="45.751990" lon="4.610270">
						<ele>748</ele>
						<time>2024-08-13T15:06:29Z</time>
					</trkpt>
					<trkpt lat="45.751810" lon="4.610040">
						<ele>748</ele>
						<time>2024-08-13T15:06:34Z</time>
					</trkpt>
					<trkpt lat="45.751630" lon="4.609910">
						<ele>747</ele>
						<time>2024-08-13T15:06:37Z</time>
					</trkpt>
					<trkpt lat="45.751450" lon="4.609870">
						<ele>747</ele>
						<time>2024-08-13T15:06:41Z</time>
					</trkpt>
					<trkpt lat="45.750500" lon="4.609810">
						<ele>747</ele>
						<time>2024-08-13T15:06:57Z</time>
					</trkpt>
					<trkpt lat="45.749800" lon="4.609730">
						<ele>745</ele>
						<time>2024-08-13T15:07:10Z</time>
					</trkpt>
					<trkpt lat="45.749550" lon="4.609730">
						<ele>742</ele>
						<time>2024-08-13T15:07:14Z</time>
					</trkpt>
					<trkpt lat="45.749360" lon="4.609760">
						<ele>740</ele>
						<time>2024-08-13T15:07:18Z</time>
					</trkpt>
					<trkpt lat="45.749150" lon="4.609890">
						<ele>739</ele>
						<time>2024-08-13T15:07:22Z</time>
					</trkpt>
					<trkpt lat="45.748940" lon="4.610080">
						<ele>737</ele>
						<time>2024-08-13T15:07:26Z</time>
					</trkpt>
					<trkpt lat="45.748230" lon="4.610810">
						<ele>735</ele>
						<time>2024-08-13T15:07:42Z</time>
					</trkpt>
					<trkpt lat="45.748090" lon="4.611010">
						<ele>735</ele>
						<time>2024-08-13T15:07:45Z</time>
					</trkpt>
					<trkpt lat="45.747800" lon="4.611650">
						<ele>738</ele>
						<time>2024-08-13T15:07:55Z</time>
					</trkpt>
					<trkpt lat="45.747760" lon="4.611550">
						<ele>737</ele>
						<time>2024-08-13T15:07:56Z</time>
					</trkpt>
					<trkpt lat="45.747600" lon="4.611310">
						<ele>734</ele>
						<time>2024-08-13T15:08:00Z</time>
					</trkpt>
					<trkpt lat="45.747490" lon="4.611220">
						<ele>733</ele>
						<time>2024-08-13T15:08:03Z</time>
					</trkpt>
					<trkpt lat="45.746710" lon="4.610350">
						<ele>728</ele>
						<time>2024-08-13T15:08:20Z</time>
					</trkpt>
					<trkpt lat="45.746390" lon="4.609830">
						<ele>726</ele>
						<time>2024-08-13T15:08:29Z</time>
					</trkpt>
					<trkpt lat="45.746080" lon="4.609190">
						<ele>726</ele>
						<time>2024-08-13T15:08:39Z</time>
					</trkpt>
					<trkpt lat="45.745930" lon="4.608640">
						<ele>722</ele>
						<time>2024-08-13T15:08:46Z</time>
					</trkpt>
					<trkpt lat="45.745720" lon="4.607140">
						<ele>707</ele>
						<time>2024-08-13T15:09:05Z</time>
					</trkpt>
					<trkpt lat="45.745620" lon="4.606660">
						<ele>705</ele>
						<time>2024-08-13T15:09:11Z</time>
					</trkpt>
					<trkpt lat="45.744990" lon="4.605010">
						<ele>699</ele>
						<time>2024-08-13T15:09:34Z</time>
					</trkpt>
					<trkpt lat="45.744130" lon="4.603210">
						<ele>702</ele>
						<time>2024-08-13T15:10:02Z</time>
					</trkpt>
					<trkpt lat="45.744090" lon="4.603000">
						<ele>706</ele>
						<time>2024-08-13T15:10:04Z</time>
					</trkpt>
					<trkpt lat="45.744110" lon="4.602840">
						<ele>706</ele>
						<time>2024-08-13T15:10:06Z</time>
					</trkpt>
					<trkpt lat="45.744450" lon="4.602340">
						<ele>695</ele>
						<time>2024-08-13T15:10:15Z</time>
					</trkpt>
					<trkpt lat="45.744720" lon="4.601710">
						<ele>692</ele>
						<time>2024-08-13T15:10:24Z</time>
					</trkpt>
					<trkpt lat="45.744820" lon="4.601580">
						<ele>689</ele>
						<time>2024-08-13T15:10:26Z</time>
					</trkpt>
					<trkpt lat="45.745010" lon="4.601450">
						<ele>682</ele>
						<time>2024-08-13T15:10:30Z</time>
					</trkpt>
					<trkpt lat="45.745180" lon="4.601230">
						<ele>679</ele>
						<time>2024-08-13T15:10:34Z</time>
					</trkpt>
					<trkpt lat="45.745390" lon="4.600890">
						<ele>676</ele>
						<time>2024-08-13T15:10:40Z</time>
					</trkpt>
					<trkpt lat="45.746250" lon="4.598700">
						<ele>664</ele>
						<time>2024-08-13T15:11:11Z</time>
					</trkpt>
					<trkpt lat="45.746410" lon="4.598140">
						<ele>660</ele>
						<time>2024-08-13T15:11:19Z</time>
					</trkpt>
					<trkpt lat="45.746440" lon="4.597680">
						<ele>656</ele>
						<time>2024-08-13T15:11:24Z</time>
					</trkpt>
					<trkpt lat="45.746360" lon="4.597330">
						<ele>653</ele>
						<time>2024-08-13T15:11:29Z</time>
					</trkpt>
					<trkpt lat="45.746200" lon="4.597030">
						<ele>651</ele>
						<time>2024-08-13T15:11:34Z</time>
					</trkpt>
					<trkpt lat="45.745990" lon="4.596800">
						<ele>651</ele>
						<time>2024-08-13T15:11:38Z</time>
					</trkpt>
					<trkpt lat="45.745840" lon="4.596750">
						<ele>652</ele>
						<time>2024-08-13T15:11:41Z</time>
					</trkpt>
					<trkpt lat="45.745490" lon="4.596730">
						<ele>661</ele>
						<time>2024-08-13T15:11:47Z</time>
					</trkpt>
					<trkpt lat="45.745390" lon="4.596680">
						<ele>663</ele>
						<time>2024-08-13T15:11:49Z</time>
					</trkpt>
					<trkpt lat="45.745320" lon="4.596500">
						<ele>663</ele>
						<time>2024-08-13T15:11:52Z</time>
					</trkpt>
					<trkpt lat="45.745320" lon="4.596190">
						<ele>660</ele>
						<time>2024-08-13T15:11:56Z</time>
					</trkpt>
					<trkpt lat="45.745470" lon="4.595360">
						<ele>655</ele>
						<time>2024-08-13T15:12:06Z</time>
					</trkpt>
					<trkpt lat="45.745640" lon="4.594890">
						<ele>652</ele>
						<time>2024-08-13T15:12:13Z</time>
					</trkpt>
					<trkpt lat="45.745850" lon="4.594610">
						<ele>648</ele>
						<time>2024-08-13T15:12:18Z</time>
					</trkpt>
					<trkpt lat="45.746350" lon="4.594240">
						<ele>636</ele>
						<time>2024-08-13T15:12:28Z</time>
					</trkpt>
					<trkpt lat="45.746490" lon="4.593990">
						<ele>635</ele>
						<time>2024-08-13T15:12:32Z</time>
					</trkpt>
					<trkpt lat="45.746690" lon="4.593530">
						<ele>635</ele>
						<time>2024-08-13T15:12:39Z</time>
					</trkpt>
					<trkpt lat="45.747110" lon="4.592980">
						<ele>623</ele>
						<time>2024-08-13T15:12:49Z</time>
					</trkpt>
					<trkpt lat="45.747250" lon="4.592700">
						<ele>620</ele>
						<time>2024-08-13T15:12:53Z</time>
					</trkpt>
					<trkpt lat="45.747320" lon="4.592400">
						<ele>619</ele>
						<time>2024-08-13T15:12:57Z</time>
					</trkpt>
					<trkpt lat="45.747230" lon="4.590610">
						<ele>621</ele>
						<time>2024-08-13T15:13:19Z</time>
					</trkpt>
					<trkpt lat="45.747270" lon="4.590210">
						<ele>621</ele>
						<time>2024-08-13T15:13:24Z</time>
					</trkpt>
					<trkpt lat="45.747390" lon="4.589880">
						<ele>618</ele>
						<time>2024-08-13T15:13:29Z</time>
					</trkpt>
					<trkpt lat="45.747590" lon="4.589720">
						<ele>613</ele>
						<time>2024-08-13T15:13:33Z</time>
					</trkpt>
					<trkpt lat="45.747910" lon="4.589690">
						<ele>605</ele>
						<time>2024-08-13T15:13:39Z</time>
					</trkpt>
					<trkpt lat="45.748010" lon="4.589650">
						<ele>604</ele>
						<time>2024-08-13T15:13:41Z</time>
					</trkpt>
					<trkpt lat="45.748130" lon="4.589440">
						<ele>605</ele>
						<time>2024-08-13T15:13:44Z</time>
					</trkpt>
					<trkpt lat="45.748280" lon="4.589330">
						<ele>604</ele>
						<time>2024-08-13T15:13:47Z</time>
					</trkpt>
					<trkpt lat="45.748710" lon="4.589410">
						<ele>596</ele>
						<time>2024-08-13T15:13:55Z</time>
					</trkpt>
					<trkpt lat="45.749570" lon="4.589910">
						<ele>579</ele>
						<time>2024-08-13T15:14:11Z</time>
					</trkpt>
					<trkpt lat="45.749770" lon="4.589970">
						<ele>578</ele>
						<time>2024-08-13T15:14:15Z</time>
					</trkpt>
					<trkpt lat="45.749930" lon="4.589880">
						<ele>577</ele>
						<time>2024-08-13T15:14:18Z</time>
					</trkpt>
					<trkpt lat="45.750040" lon="4.589690">
						<ele>576</ele>
						<time>2024-08-13T15:14:21Z</time>
					</trkpt>
					<trkpt lat="45.750070" lon="4.589410">
						<ele>575</ele>
						<time>2024-08-13T15:14:24Z</time>
					</trkpt>
					<trkpt lat="45.750060" lon="4.589250">
						<ele>575</ele>
						<time>2024-08-13T15:14:26Z</time>
					</trkpt>
					<trkpt lat="45.749890" lon="4.588630">
						<ele>577</ele>
						<time>2024-08-13T15:14:35Z</time>
					</trkpt>
					<trkpt lat="45.749920" lon="4.588230">
						<ele>574</ele>
						<time>2024-08-13T15:14:40Z</time>
					</trkpt>
					<trkpt lat="45.750240" lon="4.586600">
						<ele>563</ele>
						<time>2024-08-13T15:15:01Z</time>
					</trkpt>
					<trkpt lat="45.750600" lon="4.586090">
						<ele>555</ele>
						<time>2024-08-13T15:15:10Z</time>
					</trkpt>
					<trkpt lat="45.750710" lon="4.585700">
						<ele>554</ele>
						<time>2024-08-13T15:15:15Z</time>
					</trkpt>
					<trkpt lat="45.750790" lon="4.585060">
						<ele>551</ele>
						<time>2024-08-13T15:15:23Z</time>
					</trkpt>
					<trkpt lat="45.750980" lon="4.584150">
						<ele>543</ele>
						<time>2024-08-13T15:15:35Z</time>
					</trkpt>
					<trkpt lat="45.751140" lon="4.583640">
						<ele>540</ele>
						<time>2024-08-13T15:15:42Z</time>
					</trkpt>
					<trkpt lat="45.751140" lon="4.583260">
						<ele>538</ele>
						<time>2024-08-13T15:15:46Z</time>
					</trkpt>
					<trkpt lat="45.751020" lon="4.582000">
						<ele>527</ele>
						<time>2024-08-13T15:16:02Z</time>
					</trkpt>
					<trkpt lat="45.750910" lon="4.581430">
						<ele>523</ele>
						<time>2024-08-13T15:16:10Z</time>
					</trkpt>
					<trkpt lat="45.750690" lon="4.580500">
						<ele>517</ele>
						<time>2024-08-13T15:16:22Z</time>
					</trkpt>
					<trkpt lat="45.750390" lon="4.579650">
						<ele>511</ele>
						<time>2024-08-13T15:16:34Z</time>
					</trkpt>
					<trkpt lat="45.749580" lon="4.577480">
						<ele>503</ele>
						<time>2024-08-13T15:17:04Z</time>
					</trkpt>
					<trkpt lat="45.748820" lon="4.576220">
						<ele>496</ele>
						<time>2024-08-13T15:17:25Z</time>
					</trkpt>
					<trkpt lat="45.748430" lon="4.575380">
						<ele>491</ele>
						<time>2024-08-13T15:17:37Z</time>
					</trkpt>
					<trkpt lat="45.748140" lon="4.574460">
						<ele>488</ele>
						<time>2024-08-13T15:17:50Z</time>
					</trkpt>
					<trkpt lat="45.747710" lon="4.572860">
						<ele>479</ele>
						<time>2024-08-13T15:18:11Z</time>
					</trkpt>
					<trkpt lat="45.747630" lon="4.572770">
						<ele>478</ele>
						<time>2024-08-13T15:18:13Z</time>
					</trkpt>
					<trkpt lat="45.747530" lon="4.572760">
						<ele>476</ele>
						<time>2024-08-13T15:18:15Z</time>
					</trkpt>
					<trkpt lat="45.747460" lon="4.572820">
						<ele>474</ele>
						<time>2024-08-13T15:18:16Z</time>
					</trkpt>
					<trkpt lat="45.747420" lon="4.572970">
						<ele>472</ele>
						<time>2024-08-13T15:18:18Z</time>
					</trkpt>
					<trkpt lat="45.747440" lon="4.573140">
						<ele>473</ele>
						<time>2024-08-13T15:18:20Z</time>
					</trkpt>
					<trkpt lat="45.747630" lon="4.573960">
						<ele>474</ele>
						<time>2024-08-13T15:18:31Z</time>
					</trkpt>
					<trkpt lat="45.748120" lon="4.576440">
						<ele>469</ele>
						<time>2024-08-13T15:19:03Z</time>
					</trkpt>
					<trkpt lat="45.748450" lon="4.577800">
						<ele>469</ele>
						<time>2024-08-13T15:19:21Z</time>
					</trkpt>
					<trkpt lat="45.748440" lon="4.578010">
						<ele>469</ele>
						<time>2024-08-13T15:19:24Z</time>
					</trkpt>
					<trkpt lat="45.748390" lon="4.578130">
						<ele>468</ele>
						<time>2024-08-13T15:19:25Z</time>
					</trkpt>
					<trkpt lat="45.748310" lon="4.578210">
						<ele>467</ele>
						<time>2024-08-13T15:19:27Z</time>
					</trkpt>
					<trkpt lat="45.748180" lon="4.578190">
						<ele>467</ele>
						<time>2024-08-13T15:19:29Z</time>
					</trkpt>
					<trkpt lat="45.748040" lon="4.578030">
						<ele>466</ele>
						<time>2024-08-13T15:19:33Z</time>
					</trkpt>
					<trkpt lat="45.747610" lon="4.577440">
						<ele>459</ele>
						<time>2024-08-13T15:19:43Z</time>
					</trkpt>
					<trkpt lat="45.747250" lon="4.576750">
						<ele>451</ele>
						<time>2024-08-13T15:19:54Z</time>
					</trkpt>
					<trkpt lat="45.747000" lon="4.576400">
						<ele>447</ele>
						<time>2024-08-13T15:20:00Z</time>
					</trkpt>
					<trkpt lat="45.746270" lon="4.575550">
						<ele>440</ele>
						<time>2024-08-13T15:20:17Z</time>
					</trkpt>
					<trkpt lat="45.746050" lon="4.575130">
						<ele>437</ele>
						<time>2024-08-13T15:20:23Z</time>
					</trkpt>
					<trkpt lat="45.745840" lon="4.574820">
						<ele>434</ele>
						<time>2024-08-13T15:20:29Z</time>
					</trkpt>
					<trkpt lat="45.745440" lon="4.574350">
						<ele>434</ele>
						<time>2024-08-13T15:20:38Z</time>
					</trkpt>
					<trkpt lat="45.745210" lon="4.573770">
						<ele>428</ele>
						<time>2024-08-13T15:20:46Z</time>
					</trkpt>
					<trkpt lat="45.745050" lon="4.573500">
						<ele>424</ele>
						<time>2024-08-13T15:20:51Z</time>
					</trkpt>
					<trkpt lat="45.744690" lon="4.573260">
						<ele>426</ele>
						<time>2024-08-13T15:20:58Z</time>
					</trkpt>
					<trkpt lat="45.744600" lon="4.573030">
						<ele>425</ele>
						<time>2024-08-13T15:21:01Z</time>
					</trkpt>
					<trkpt lat="45.744350" lon="4.572130">
						<ele>419</ele>
						<time>2024-08-13T15:21:13Z</time>
					</trkpt>
					<trkpt lat="45.744210" lon="4.571340">
						<ele>411</ele>
						<time>2024-08-13T15:21:23Z</time>
					</trkpt>
					<trkpt lat="45.744130" lon="4.571160">
						<ele>408</ele>
						<time>2024-08-13T15:21:26Z</time>
					</trkpt>
					<trkpt lat="45.743940" lon="4.571110">
						<ele>406</ele>
						<time>2024-08-13T15:21:29Z</time>
					</trkpt>
					<trkpt lat="45.742840" lon="4.571260">
						<ele>403</ele>
						<time>2024-08-13T15:21:49Z</time>
					</trkpt>
					<trkpt lat="45.742140" lon="4.571320">
						<ele>399</ele>
						<time>2024-08-13T15:22:01Z</time>
					</trkpt>
					<trkpt lat="45.741850" lon="4.571420">
						<ele>398</ele>
						<time>2024-08-13T15:22:07Z</time>
					</trkpt>
					<trkpt lat="45.741660" lon="4.571560">
						<ele>397</ele>
						<time>2024-08-13T15:22:10Z</time>
					</trkpt>
					<trkpt lat="45.741470" lon="4.571630">
						<ele>400</ele>
						<time>2024-08-13T15:22:14Z</time>
					</trkpt>
					<trkpt lat="45.741290" lon="4.571660">
						<ele>402</ele>
						<time>2024-08-13T15:22:17Z</time>
					</trkpt>
					<trkpt lat="45.741240" lon="4.571660">
						<ele>402</ele>
						<time>2024-08-13T15:22:18Z</time>
					</trkpt>
					<trkpt lat="45.741160" lon="4.571600">
						<ele>402</ele>
						<time>2024-08-13T15:22:20Z</time>
					</trkpt>
					<trkpt lat="45.741120" lon="4.571450">
						<ele>401</ele>
						<time>2024-08-13T15:22:22Z</time>
					</trkpt>
					<trkpt lat="45.741130" lon="4.571270">
						<ele>400</ele>
						<time>2024-08-13T15:22:24Z</time>
					</trkpt>
					<trkpt lat="45.741190" lon="4.571150">
						<ele>398</ele>
						<time>2024-08-13T15:22:26Z</time>
					</trkpt>
					<trkpt lat="45.741460" lon="4.570860">
						<ele>394</ele>
						<time>2024-08-13T15:22:32Z</time>
					</trkpt>
					<trkpt lat="45.741830" lon="4.570730">
						<ele>393</ele>
						<time>2024-08-13T15:22:38Z</time>
					</trkpt>
					<trkpt lat="45.742030" lon="4.570620">
						<ele>394</ele>
						<time>2024-08-13T15:22:42Z</time>
					</trkpt>
					<trkpt lat="45.742200" lon="4.570440">
						<ele>393</ele>
						<time>2024-08-13T15:22:46Z</time>
					</trkpt>
					<trkpt lat="45.742640" lon="4.570190">
						<ele>389</ele>
						<time>2024-08-13T15:22:54Z</time>
					</trkpt>
					<trkpt lat="45.742800" lon="4.570170">
						<ele>388</ele>
						<time>2024-08-13T15:22:57Z</time>
					</trkpt>
					<trkpt lat="45.743140" lon="4.569870">
						<ele>385</ele>
						<time>2024-08-13T15:23:04Z</time>
					</trkpt>
					<trkpt lat="45.743580" lon="4.569540">
						<ele>385</ele>
						<time>2024-08-13T15:23:13Z</time>
					</trkpt>
					<trkpt lat="45.744360" lon="4.569060">
						<ele>378</ele>
						<time>2024-08-13T15:23:28Z</time>
					</trkpt>
					<trkpt lat="45.745050" lon="4.568340">
						<ele>372</ele>
						<time>2024-08-13T15:23:44Z</time>
					</trkpt>
					<trkpt lat="45.745210" lon="4.568210">
						<ele>373</ele>
						<time>2024-08-13T15:23:47Z</time>
					</trkpt>
					<trkpt lat="45.745510" lon="4.568170">
						<ele>371</ele>
						<time>2024-08-13T15:23:52Z</time>
					</trkpt>
					<trkpt lat="45.745660" lon="4.568080">
						<ele>370</ele>
						<time>2024-08-13T15:23:55Z</time>
					</trkpt>
					<trkpt lat="45.745970" lon="4.567770">
						<ele>370</ele>
						<time>2024-08-13T15:24:02Z</time>
					</trkpt>
					<trkpt lat="45.746760" lon="4.566790">
						<ele>363</ele>
						<time>2024-08-13T15:24:20Z</time>
					</trkpt>
					<trkpt lat="45.747150" lon="4.566260">
						<ele>363</ele>
						<time>2024-08-13T15:24:30Z</time>
					</trkpt>
					<trkpt lat="45.747440" lon="4.565550">
						<ele>357</ele>
						<time>2024-08-13T15:24:40Z</time>
					</trkpt>
					<trkpt lat="45.747700" lon="4.564690">
						<ele>361</ele>
						<time>2024-08-13T15:24:52Z</time>
					</trkpt>
					<trkpt lat="45.747940" lon="4.564510">
						<ele>362</ele>
						<time>2024-08-13T15:24:57Z</time>
					</trkpt>
					<trkpt lat="45.748290" lon="4.563830">
						<ele>356</ele>
						<time>2024-08-13T15:25:07Z</time>
					</trkpt>
					<trkpt lat="45.749510" lon="4.562490">
						<ele>346</ele>
						<time>2024-08-13T15:25:34Z</time>
					</trkpt>
					<trkpt lat="45.749700" lon="4.562380">
						<ele>345</ele>
						<time>2024-08-13T15:25:38Z</time>
					</trkpt>
					<trkpt lat="45.750120" lon="4.562260">
						<ele>344</ele>
						<time>2024-08-13T15:25:46Z</time>
					</trkpt>
					<trkpt lat="45.750330" lon="4.562130">
						<ele>343</ele>
						<time>2024-08-13T15:25:50Z</time>
					</trkpt>
					<trkpt lat="45.750780" lon="4.561750">
						<ele>337</ele>
						<time>2024-08-13T15:25:59Z</time>
					</trkpt>
					<trkpt lat="45.751100" lon="4.561680">
						<ele>337</ele>
						<time>2024-08-13T15:26:05Z</time>
					</trkpt>
					<trkpt lat="45.751500" lon="4.561670">
						<ele>339</ele>
						<time>2024-08-13T15:26:12Z</time>
					</trkpt>
					<trkpt lat="45.752240" lon="4.561420">
						<ele>337</ele>
						<time>2024-08-13T15:26:26Z</time>
					</trkpt>
					<trkpt lat="45.752520" lon="4.561350">
						<ele>336</ele>
						<time>2024-08-13T15:26:31Z</time>
					</trkpt>
					<trkpt lat="45.753230" lon="4.561330">
						<ele>332</ele>
						<time>2024-08-13T15:26:43Z</time>
					</trkpt>
					<trkpt lat="45.754270" lon="4.561190">
						<ele>327</ele>
						<time>2024-08-13T15:27:02Z</time>
					</trkpt>
					<trkpt lat="45.754480" lon="4.561230">
						<ele>328</ele>
						<time>2024-08-13T15:27:06Z</time>
					</trkpt>
					<trkpt lat="45.754700" lon="4.561330">
						<ele>328</ele>
						<time>2024-08-13T15:27:10Z</time>
					</trkpt>
					<trkpt lat="45.755220" lon="4.561760">
						<ele>330</ele>
						<time>2024-08-13T15:27:20Z</time>
					</trkpt>
					<trkpt lat="45.755650" lon="4.562070">
						<ele>329</ele>
						<time>2024-08-13T15:27:29Z</time>
					</trkpt>
					<trkpt lat="45.757030" lon="4.562820">
						<ele>322</ele>
						<time>2024-08-13T15:27:55Z</time>
					</trkpt>
					<trkpt lat="45.757190" lon="4.562890">
						<ele>321</ele>
						<time>2024-08-13T15:27:58Z</time>
					</trkpt>
					<trkpt lat="45.758240" lon="4.563160">
						<ele>312</ele>
						<time>2024-08-13T15:28:17Z</time>
					</trkpt>
					<trkpt lat="45.759130" lon="4.563560">
						<ele>308</ele>
						<time>2024-08-13T15:28:34Z</time>
					</trkpt>
					<trkpt lat="45.760080" lon="4.563850">
						<ele>305</ele>
						<time>2024-08-13T15:28:51Z</time>
					</trkpt>
					<trkpt lat="45.760520" lon="4.564050">
						<ele>303</ele>
						<time>2024-08-13T15:28:59Z</time>
					</trkpt>
					<trkpt lat="45.760760" lon="4.564120">
						<ele>301</ele>
						<time>2024-08-13T15:29:04Z</time>
					</trkpt>
					<trkpt lat="45.761870" lon="4.564220">
						<ele>295</ele>
						<time>2024-08-13T15:29:23Z</time>
					</trkpt>
					<trkpt lat="45.763030" lon="4.564260">
						<ele>292</ele>
						<time>2024-08-13T15:29:44Z</time>
					</trkpt>
					<trkpt lat="45.763160" lon="4.564300">
						<ele>292</ele>
						<time>2024-08-13T15:29:46Z</time>
					</trkpt>
					<trkpt lat="45.763500" lon="4.564480">
						<ele>292</ele>
						<time>2024-08-13T15:29:53Z</time>
					</trkpt>
					<trkpt lat="45.763580" lon="4.564500">
						<ele>292</ele>
						<time>2024-08-13T15:29:54Z</time>
					</trkpt>
					<trkpt lat="45.763810" lon="4.564470">
						<ele>290</ele>
						<time>2024-08-13T15:29:58Z</time>
					</trkpt>
					<trkpt lat="45.764330" lon="4.564210">
						<ele>288</ele>
						<time>2024-08-13T15:30:08Z</time>
					</trkpt>
					<trkpt lat="45.764860" lon="4.563990">
						<ele>294</ele>
						<time>2024-08-13T15:30:18Z</time>
					</trkpt>
					<trkpt lat="45.764960" lon="4.563860">
						<ele>297</ele>
						<time>2024-08-13T15:30:20Z</time>
					</trkpt>
					<trkpt lat="45.765370" lon="4.564060">
						<ele>299</ele>
						<time>2024-08-13T15:30:28Z</time>
					</trkpt>
					<trkpt lat="45.765590" lon="4.564240">
						<ele>299</ele>
						<time>2024-08-13T15:30:33Z</time>
					</trkpt>
					<trkpt lat="45.766160" lon="4.564820">
						<ele>297</ele>
						<time>2024-08-13T15:30:45Z</time>
					</trkpt>
					<trkpt lat="45.767080" lon="4.565390">
						<ele>298</ele>
						<time>2024-08-13T15:31:03Z</time>
					</trkpt>
					<trkpt lat="45.767200" lon="4.565550">
						<ele>297</ele>
						<time>2024-08-13T15:31:06Z</time>
					</trkpt>
					<trkpt lat="45.767530" lon="4.566270">
						<ele>294</ele>
						<time>2024-08-13T15:31:17Z</time>
					</trkpt>
					<trkpt lat="45.768010" lon="4.567020">
						<ele>292</ele>
						<time>2024-08-13T15:31:29Z</time>
					</trkpt>
					<trkpt lat="45.768160" lon="4.567150">
						<ele>292</ele>
						<time>2024-08-13T15:31:32Z</time>
					</trkpt>
					<trkpt lat="45.768610" lon="4.567420">
						<ele>293</ele>
						<time>2024-08-13T15:31:41Z</time>
					</trkpt>
					<trkpt lat="45.770430" lon="4.568410">
						<ele>289</ele>
						<time>2024-08-13T15:32:16Z</time>
					</trkpt>
					<trkpt lat="45.771140" lon="4.568680">
						<ele>288</ele>
						<time>2024-08-13T15:32:29Z</time>
					</trkpt>
					<trkpt lat="45.771540" lon="4.568800">
						<ele>287</ele>
						<time>2024-08-13T15:32:36Z</time>
					</trkpt>
					<trkpt lat="45.773270" lon="4.568900">
						<ele>284</ele>
						<time>2024-08-13T15:33:07Z</time>
					</trkpt>
					<trkpt lat="45.773520" lon="4.568870">
						<ele>284</ele>
						<time>2024-08-13T15:33:11Z</time>
					</trkpt>
					<trkpt lat="45.773980" lon="4.568640">
						<ele>286</ele>
						<time>2024-08-13T15:33:20Z</time>
					</trkpt>
					<trkpt lat="45.774170" lon="4.568600">
						<ele>286</ele>
						<time>2024-08-13T15:33:23Z</time>
					</trkpt>
					<trkpt lat="45.773980" lon="4.568640">
						<ele>286</ele>
						<time>2024-08-13T15:33:27Z</time>
					</trkpt>
					<trkpt lat="45.773850" lon="4.568260">
						<ele>290</ele>
						<time>2024-08-13T15:33:32Z</time>
					</trkpt>
					<trkpt lat="45.773710" lon="4.568070">
						<ele>292</ele>
						<time>2024-08-13T15:33:35Z</time>
					</trkpt>
					<trkpt lat="45.773240" lon="4.567770">
						<ele>294</ele>
						<time>2024-08-13T15:33:45Z</time>
					</trkpt>
					<trkpt lat="45.773160" lon="4.567660">
						<ele>296</ele>
						<time>2024-08-13T15:33:46Z</time>
					</trkpt>
					<trkpt lat="45.773150" lon="4.567540">
						<ele>297</ele>
						<time>2024-08-13T15:33:48Z</time>
					</trkpt>
					<trkpt lat="45.773030" lon="4.567540">
						<ele>299</ele>
						<time>2024-08-13T15:33:50Z</time>
					</trkpt>
					<trkpt lat="45.772890" lon="4.567440">
						<ele>303</ele>
						<time>2024-08-13T15:33:53Z</time>
					</trkpt>
					<trkpt lat="45.772660" lon="4.566530">
						<ele>306</ele>
						<time>2024-08-13T15:34:05Z</time>
					</trkpt>
					<trkpt lat="45.772080" lon="4.565550">
						<ele>310</ele>
						<time>2024-08-13T15:34:21Z</time>
					</trkpt>
					<trkpt lat="45.771950" lon="4.565450">
						<ele>311</ele>
						<time>2024-08-13T15:34:23Z</time>
					</trkpt>
					<trkpt lat="45.771620" lon="4.565280">
						<ele>312</ele>
						<time>2024-08-13T15:34:30Z</time>
					</trkpt>
					<trkpt lat="45.771330" lon="4.564970">
						<ele>316</ele>
						<time>2024-08-13T15:34:36Z</time>
					</trkpt>
					<trkpt lat="45.771170" lon="4.564400">
						<ele>319</ele>
						<time>2024-08-13T15:34:44Z</time>
					</trkpt>
					<trkpt lat="45.770780" lon="4.563680">
						<ele>321</ele>
						<time>2024-08-13T15:34:55Z</time>
					</trkpt>
					<trkpt lat="45.770710" lon="4.563490">
						<ele>321</ele>
						<time>2024-08-13T15:34:58Z</time>
					</trkpt>
					<trkpt lat="45.770670" lon="4.563230">
						<ele>320</ele>
						<time>2024-08-13T15:35:01Z</time>
					</trkpt>
					<trkpt lat="45.770630" lon="4.562510">
						<ele>320</ele>
						<time>2024-08-13T15:35:10Z</time>
					</trkpt>
					<trkpt lat="45.770520" lon="4.561300">
						<ele>330</ele>
						<time>2024-08-13T15:35:25Z</time>
					</trkpt>
					<trkpt lat="45.770430" lon="4.560610">
						<ele>334</ele>
						<time>2024-08-13T15:35:34Z</time>
					</trkpt>
					<trkpt lat="45.770240" lon="4.560090">
						<ele>339</ele>
						<time>2024-08-13T15:35:41Z</time>
					</trkpt>
					<trkpt lat="45.770110" lon="4.559470">
						<ele>343</ele>
						<time>2024-08-13T15:35:49Z</time>
					</trkpt>
					<trkpt lat="45.770070" lon="4.558830">
						<ele>343</ele>
						<time>2024-08-13T15:35:57Z</time>
					</trkpt>
					<trkpt lat="45.769920" lon="4.557640">
						<ele>344</ele>
						<time>2024-08-13T15:36:12Z</time>
					</trkpt>
					<trkpt lat="45.769900" lon="4.557070">
						<ele>345</ele>
						<time>2024-08-13T15:36:19Z</time>
					</trkpt>
					<trkpt lat="45.769630" lon="4.555750">
						<ele>351</ele>
						<time>2024-08-13T15:36:36Z</time>
					</trkpt>
					<trkpt lat="45.769700" lon="4.555100">
						<ele>353</ele>
						<time>2024-08-13T15:36:45Z</time>
					</trkpt>
					<trkpt lat="45.769840" lon="4.554260">
						<ele>358</ele>
						<time>2024-08-13T15:36:55Z</time>
					</trkpt>
					<trkpt lat="45.770030" lon="4.553340">
						<ele>365</ele>
						<time>2024-08-13T15:37:07Z</time>
					</trkpt>
					<trkpt lat="45.770220" lon="4.552560">
						<ele>368</ele>
						<time>2024-08-13T15:37:17Z</time>
					</trkpt>
					<trkpt lat="45.770270" lon="4.551980">
						<ele>369</ele>
						<time>2024-08-13T15:37:25Z</time>
					</trkpt>
					<trkpt lat="45.770280" lon="4.551340">
						<ele>371</ele>
						<time>2024-08-13T15:37:33Z</time>
					</trkpt>
					<trkpt lat="45.770230" lon="4.551090">
						<ele>372</ele>
						<time>2024-08-13T15:37:36Z</time>
					</trkpt>
					<trkpt lat="45.770140" lon="4.550950">
						<ele>374</ele>
						<time>2024-08-13T15:37:38Z</time>
					</trkpt>
					<trkpt lat="45.769850" lon="4.550740">
						<ele>376</ele>
						<time>2024-08-13T15:37:44Z</time>
					</trkpt>
					<trkpt lat="45.769780" lon="4.550630">
						<ele>376</ele>
						<time>2024-08-13T15:37:46Z</time>
					</trkpt>
					<trkpt lat="45.769750" lon="4.550410">
						<ele>377</ele>
						<time>2024-08-13T15:37:49Z</time>
					</trkpt>
					<trkpt lat="45.769740" lon="4.549840">
						<ele>379</ele>
						<time>2024-08-13T15:37:56Z</time>
					</trkpt>
					<trkpt lat="45.769580" lon="4.549200">
						<ele>381</ele>
						<time>2024-08-13T15:38:04Z</time>
					</trkpt>
					<trkpt lat="45.769790" lon="4.547000">
						<ele>393</ele>
						<time>2024-08-13T15:38:32Z</time>
					</trkpt>
					<trkpt lat="45.769920" lon="4.546330">
						<ele>397</ele>
						<time>2024-08-13T15:38:40Z</time>
					</trkpt>
					<trkpt lat="45.769880" lon="4.545860">
						<ele>397</ele>
						<time>2024-08-13T15:38:46Z</time>
					</trkpt>
					<trkpt lat="45.769740" lon="4.545350">
						<ele>399</ele>
						<time>2024-08-13T15:38:53Z</time>
					</trkpt>
					<trkpt lat="45.769460" lon="4.544710">
						<ele>401</ele>
						<time>2024-08-13T15:39:02Z</time>
					</trkpt>
					<trkpt lat="45.769170" lon="4.544170">
						<ele>401</ele>
						<time>2024-08-13T15:39:11Z</time>
					</trkpt>
					<trkpt lat="45.768990" lon="4.543960">
						<ele>400</ele>
						<time>2024-08-13T15:39:15Z</time>
					</trkpt>
					<trkpt lat="45.768740" lon="4.543760">
						<ele>398</ele>
						<time>2024-08-13T15:39:20Z</time>
					</trkpt>
					<trkpt lat="45.768620" lon="4.543600">
						<ele>398</ele>
						<time>2024-08-13T15:39:23Z</time>
					</trkpt>
					<trkpt lat="45.768360" lon="4.543140">
						<ele>399</ele>
						<time>2024-08-13T15:39:30Z</time>
					</trkpt>
					<trkpt lat="45.768160" lon="4.542900">
						<ele>401</ele>
						<time>2024-08-13T15:39:35Z</time>
					</trkpt>
					<trkpt lat="45.767970" lon="4.542740">
						<ele>402</ele>
						<time>2024-08-13T15:39:39Z</time>
					</trkpt>
					<trkpt lat="45.767660" lon="4.542700">
						<ele>401</ele>
						<time>2024-08-13T15:39:44Z</time>
					</trkpt>
					<trkpt lat="45.767440" lon="4.542590">
						<ele>401</ele>
						<time>2024-08-13T15:39:49Z</time>
					</trkpt>
					<trkpt lat="45.766630" lon="4.541740">
						<ele>403</ele>
						<time>2024-08-13T15:40:06Z</time>
					</trkpt>
					<trkpt lat="45.766310" lon="4.541550">
						<ele>404</ele>
						<time>2024-08-13T15:40:13Z</time>
					</trkpt>
					<trkpt lat="45.766090" lon="4.541460">
						<ele>404</ele>
						<time>2024-08-13T15:40:17Z</time>
					</trkpt>
					<trkpt lat="45.765840" lon="4.541440">
						<ele>404</ele>
						<time>2024-08-13T15:40:21Z</time>
					</trkpt>
					<trkpt lat="45.765600" lon="4.541290">
						<ele>404</ele>
						<time>2024-08-13T15:40:26Z</time>
					</trkpt>
					<trkpt lat="45.765490" lon="4.541130">
						<ele>404</ele>
						<time>2024-08-13T15:40:29Z</time>
					</trkpt>
					<trkpt lat="45.765450" lon="4.540830">
						<ele>404</ele>
						<time>2024-08-13T15:40:32Z</time>
					</trkpt>
					<trkpt lat="45.765640" lon="4.539970">
						<ele>407</ele>
						<time>2024-08-13T15:40:44Z</time>
					</trkpt>
					<trkpt lat="45.765740" lon="4.539020">
						<ele>413</ele>
						<time>2024-08-13T15:40:55Z</time>
					</trkpt>
					<trkpt lat="45.765720" lon="4.538370">
						<ele>418</ele>
						<time>2024-08-13T15:41:04Z</time>
					</trkpt>
					<trkpt lat="45.765880" lon="4.537370">
						<ele>425</ele>
						<time>2024-08-13T15:41:16Z</time>
					</trkpt>
					<trkpt lat="45.765940" lon="4.536850">
						<ele>430</ele>
						<time>2024-08-13T15:41:23Z</time>
					</trkpt>
					<trkpt lat="45.765930" lon="4.535750">
						<ele>441</ele>
						<time>2024-08-13T15:41:36Z</time>
					</trkpt>
					<trkpt lat="45.766010" lon="4.534520">
						<ele>448</ele>
						<time>2024-08-13T15:41:52Z</time>
					</trkpt>
					<trkpt lat="45.766140" lon="4.533800">
						<ele>451</ele>
						<time>2024-08-13T15:42:01Z</time>
					</trkpt>
					<trkpt lat="45.766150" lon="4.533440">
						<ele>453</ele>
						<time>2024-08-13T15:42:06Z</time>
					</trkpt>
					<trkpt lat="45.766110" lon="4.532980">
						<ele>454</ele>
						<time>2024-08-13T15:42:11Z</time>
					</trkpt>
					<trkpt lat="45.766000" lon="4.532230">
						<ele>455</ele>
						<time>2024-08-13T15:42:21Z</time>
					</trkpt>
					<trkpt lat="45.765810" lon="4.531390">
						<ele>456</ele>
						<time>2024-08-13T15:42:32Z</time>
					</trkpt>
					<trkpt lat="45.765600" lon="4.530770">
						<ele>459</ele>
						<time>2024-08-13T15:42:40Z</time>
					</trkpt>
					<trkpt lat="45.765380" lon="4.529820">
						<ele>461</ele>
						<time>2024-08-13T15:42:53Z</time>
					</trkpt>
					<trkpt lat="45.765270" lon="4.529600">
						<ele>462</ele>
						<time>2024-08-13T15:42:56Z</time>
					</trkpt>
					<trkpt lat="45.765130" lon="4.529480">
						<ele>464</ele>
						<time>2024-08-13T15:42:59Z</time>
					</trkpt>
					<trkpt lat="45.764560" lon="4.529110">
						<ele>468</ele>
						<time>2024-08-13T15:43:10Z</time>
					</trkpt>
					<trkpt lat="45.764460" lon="4.528970">
						<ele>471</ele>
						<time>2024-08-13T15:43:13Z</time>
					</trkpt>
					<trkpt lat="45.764420" lon="4.528850">
						<ele>472</ele>
						<time>2024-08-13T15:43:14Z</time>
					</trkpt>
					<trkpt lat="45.764400" lon="4.528650">
						<ele>474</ele>
						<time>2024-08-13T15:43:17Z</time>
					</trkpt>
					<trkpt lat="45.764390" lon="4.528040">
						<ele>481</ele>
						<time>2024-08-13T15:43:24Z</time>
					</trkpt>
					<trkpt lat="45.764500" lon="4.527850">
						<ele>483</ele>
						<time>2024-08-13T15:43:27Z</time>
					</trkpt>
					<trkpt lat="45.764680" lon="4.527820">
						<ele>483</ele>
						<time>2024-08-13T15:43:31Z</time>
					</trkpt>
					<trkpt lat="45.765030" lon="4.527830">
						<ele>482</ele>
						<time>2024-08-13T15:43:37Z</time>
					</trkpt>
					<trkpt lat="45.765230" lon="4.527780">
						<ele>482</ele>
						<time>2024-08-13T15:43:40Z</time>
					</trkpt>
					<trkpt lat="45.765330" lon="4.527720">
						<ele>483</ele>
						<time>2024-08-13T15:43:42Z</time>
					</trkpt>
					<trkpt lat="45.765420" lon="4.527610">
						<ele>485</ele>
						<time>2024-08-13T15:43:44Z</time>
					</trkpt>
					<trkpt lat="45.765730" lon="4.527170">
						<ele>490</ele>
						<time>2024-08-13T15:43:52Z</time>
					</trkpt>
					<trkpt lat="45.765860" lon="4.526800">
						<ele>493</ele>
						<time>2024-08-13T15:43:57Z</time>
					</trkpt>
					<trkpt lat="45.766000" lon="4.526090">
						<ele>494</ele>
						<time>2024-08-13T15:44:07Z</time>
					</trkpt>
					<trkpt lat="45.766070" lon="4.525850">
						<ele>494</ele>
						<time>2024-08-13T15:44:10Z</time>
					</trkpt>
					<trkpt lat="45.766180" lon="4.525680">
						<ele>494</ele>
						<time>2024-08-13T15:44:13Z</time>
					</trkpt>
					<trkpt lat="45.766600" lon="4.525270">
						<ele>496</ele>
						<time>2024-08-13T15:44:22Z</time>
					</trkpt>
					<trkpt lat="45.766780" lon="4.524990">
						<ele>497</ele>
						<time>2024-08-13T15:44:26Z</time>
					</trkpt>
					<trkpt lat="45.766950" lon="4.524660">
						<ele>497</ele>
						<time>2024-08-13T15:44:32Z</time>
					</trkpt>
					<trkpt lat="45.767000" lon="4.524480">
						<ele>498</ele>
						<time>2024-08-13T15:44:34Z</time>
					</trkpt>
					<trkpt lat="45.766950" lon="4.524240">
						<ele>500</ele>
						<time>2024-08-13T15:44:37Z</time>
					</trkpt>
					<trkpt lat="45.766670" lon="4.524000">
						<ele>504</ele>
						<time>2024-08-13T15:44:43Z</time>
					</trkpt>
					<trkpt lat="45.766550" lon="4.523840">
						<ele>503</ele>
						<time>2024-08-13T15:44:46Z</time>
					</trkpt>
					<trkpt lat="45.766480" lon="4.523650">
						<ele>503</ele>
						<time>2024-08-13T15:44:48Z</time>
					</trkpt>
					<trkpt lat="45.766350" lon="4.522290">
						<ele>507</ele>
						<time>2024-08-13T15:45:05Z</time>
					</trkpt>
					<trkpt lat="45.766290" lon="4.521970">
						<ele>507</ele>
						<time>2024-08-13T15:45:10Z</time>
					</trkpt>
					<trkpt lat="45.766090" lon="4.521190">
						<ele>504</ele>
						<time>2024-08-13T15:45:20Z</time>
					</trkpt>
					<trkpt lat="45.766070" lon="4.520980">
						<ele>504</ele>
						<time>2024-08-13T15:45:23Z</time>
					</trkpt>
					<trkpt lat="45.766080" lon="4.520730">
						<ele>505</ele>
						<time>2024-08-13T15:45:26Z</time>
					</trkpt>
					<trkpt lat="45.766170" lon="4.520490">
						<ele>507</ele>
						<time>2024-08-13T15:45:29Z</time>
					</trkpt>
					<trkpt lat="45.766770" lon="4.519230">
						<ele>517</ele>
						<time>2024-08-13T15:45:48Z</time>
					</trkpt>
					<trkpt lat="45.766790" lon="4.519070">
						<ele>518</ele>
						<time>2024-08-13T15:45:50Z</time>
					</trkpt>
					<trkpt lat="45.766760" lon="4.518890">
						<ele>520</ele>
						<time>2024-08-13T15:45:52Z</time>
					</trkpt>
					<trkpt lat="45.766650" lon="4.518730">
						<ele>519</ele>
						<time>2024-08-13T15:45:55Z</time>
					</trkpt>
					<trkpt lat="45.766290" lon="4.518450">
						<ele>516</ele>
						<time>2024-08-13T15:46:02Z</time>
					</trkpt>
					<trkpt lat="45.766090" lon="4.518250">
						<ele>515</ele>
						<time>2024-08-13T15:46:07Z</time>
					</trkpt>
					<trkpt lat="45.765940" lon="4.518030">
						<ele>515</ele>
						<time>2024-08-13T15:46:10Z</time>
					</trkpt>
					<trkpt lat="45.765700" lon="4.517300">
						<ele>520</ele>
						<time>2024-08-13T15:46:21Z</time>
					</trkpt>
					<trkpt lat="45.765600" lon="4.516870">
						<ele>523</ele>
						<time>2024-08-13T15:46:26Z</time>
					</trkpt>
					<trkpt lat="45.765520" lon="4.516730">
						<ele>523</ele>
						<time>2024-08-13T15:46:28Z</time>
					</trkpt>
					<trkpt lat="45.765420" lon="4.516610">
						<ele>523</ele>
						<time>2024-08-13T15:46:31Z</time>
					</trkpt>
					<trkpt lat="45.765310" lon="4.516560">
						<ele>522</ele>
						<time>2024-08-13T15:46:33Z</time>
					</trkpt>
					<trkpt lat="45.764970" lon="4.516500">
						<ele>519</ele>
						<time>2024-08-13T15:46:39Z</time>
					</trkpt>
					<trkpt lat="45.764730" lon="4.516380">
						<ele>519</ele>
						<time>2024-08-13T15:46:43Z</time>
					</trkpt>
					<trkpt lat="45.764630" lon="4.516270">
						<ele>519</ele>
						<time>2024-08-13T15:46:46Z</time>
					</trkpt>
					<trkpt lat="45.764430" lon="4.515900">
						<ele>520</ele>
						<time>2024-08-13T15:46:51Z</time>
					</trkpt>
					<trkpt lat="45.764370" lon="4.515620">
						<ele>520</ele>
						<time>2024-08-13T15:46:55Z</time>
					</trkpt>
					<trkpt lat="45.764310" lon="4.515130">
						<ele>521</ele>
						<time>2024-08-13T15:47:01Z</time>
					</trkpt>
					<trkpt lat="45.764260" lon="4.513910">
						<ele>527</ele>
						<time>2024-08-13T15:47:16Z</time>
					</trkpt>
					<trkpt lat="45.764230" lon="4.513660">
						<ele>528</ele>
						<time>2024-08-13T15:47:20Z</time>
					</trkpt>
					<trkpt lat="45.764040" lon="4.513010">
						<ele>528</ele>
						<time>2024-08-13T15:47:28Z</time>
					</trkpt>
					<trkpt lat="45.763930" lon="4.512280">
						<ele>534</ele>
						<time>2024-08-13T15:47:38Z</time>
					</trkpt>
					<trkpt lat="45.763860" lon="4.512120">
						<ele>536</ele>
						<time>2024-08-13T15:47:40Z</time>
					</trkpt>
					<trkpt lat="45.763760" lon="4.511980">
						<ele>537</ele>
						<time>2024-08-13T15:47:42Z</time>
					</trkpt>
					<trkpt lat="45.763650" lon="4.511900">
						<ele>537</ele>
						<time>2024-08-13T15:47:45Z</time>
					</trkpt>
					<trkpt lat="45.763450" lon="4.511920">
						<ele>536</ele>
						<time>2024-08-13T15:47:48Z</time>
					</trkpt>
					<trkpt lat="45.763230" lon="4.512030">
						<ele>534</ele>
						<time>2024-08-13T15:47:52Z</time>
					</trkpt>
					<trkpt lat="45.762690" lon="4.512560">
						<ele>531</ele>
						<time>2024-08-13T15:48:04Z</time>
					</trkpt>
					<trkpt lat="45.762500" lon="4.512710">
						<ele>530</ele>
						<time>2024-08-13T15:48:08Z</time>
					</trkpt>
					<trkpt lat="45.762330" lon="4.512800">
						<ele>529</ele>
						<time>2024-08-13T15:48:11Z</time>
					</trkpt>
					<trkpt lat="45.761970" lon="4.512850">
						<ele>530</ele>
						<time>2024-08-13T15:48:17Z</time>
					</trkpt>
					<trkpt lat="45.761800" lon="4.512840">
						<ele>530</ele>
						<time>2024-08-13T15:48:21Z</time>
					</trkpt>
					<trkpt lat="45.761620" lon="4.512780">
						<ele>531</ele>
						<time>2024-08-13T15:48:24Z</time>
					</trkpt>
					<trkpt lat="45.761480" lon="4.512690">
						<ele>531</ele>
						<time>2024-08-13T15:48:27Z</time>
					</trkpt>
					<trkpt lat="45.761370" lon="4.512550">
						<ele>532</ele>
						<time>2024-08-13T15:48:29Z</time>
					</trkpt>
					<trkpt lat="45.761260" lon="4.512310">
						<ele>532</ele>
						<time>2024-08-13T15:48:33Z</time>
					</trkpt>
					<trkpt lat="45.761230" lon="4.512120">
						<ele>532</ele>
						<time>2024-08-13T15:48:35Z</time>
					</trkpt>
					<trkpt lat="45.761230" lon="4.511950">
						<ele>533</ele>
						<time>2024-08-13T15:48:37Z</time>
					</trkpt>
					<trkpt lat="45.761430" lon="4.510360">
						<ele>532</ele>
						<time>2024-08-13T15:48:57Z</time>
					</trkpt>
					<trkpt lat="45.761550" lon="4.510040">
						<ele>531</ele>
						<time>2024-08-13T15:49:02Z</time>
					</trkpt>
					<trkpt lat="45.761760" lon="4.509710">
						<ele>532</ele>
						<time>2024-08-13T15:49:07Z</time>
					</trkpt>
					<trkpt lat="45.762120" lon="4.509270">
						<ele>534</ele>
						<time>2024-08-13T15:49:16Z</time>
					</trkpt>
					<trkpt lat="45.762180" lon="4.509140">
						<ele>534</ele>
						<time>2024-08-13T15:49:18Z</time>
					</trkpt>
					<trkpt lat="45.762220" lon="4.508990">
						<ele>533</ele>
						<time>2024-08-13T15:49:20Z</time>
					</trkpt>
					<trkpt lat="45.762220" lon="4.508540">
						<ele>529</ele>
						<time>2024-08-13T15:49:25Z</time>
					</trkpt>
					<trkpt lat="45.762270" lon="4.508150">
						<ele>525</ele>
						<time>2024-08-13T15:49:30Z</time>
					</trkpt>
					<trkpt lat="45.762480" lon="4.507720">
						<ele>522</ele>
						<time>2024-08-13T15:49:37Z</time>
					</trkpt>
					<trkpt lat="45.762660" lon="4.507560">
						<ele>521</ele>
						<time>2024-08-13T15:49:40Z</time>
					</trkpt>
					<trkpt lat="45.763030" lon="4.507440">
						<ele>521</ele>
						<time>2024-08-13T15:49:47Z</time>
					</trkpt>
					<trkpt lat="45.764010" lon="4.506970">
						<ele>520</ele>
						<time>2024-08-13T15:50:06Z</time>
					</trkpt>
					<trkpt lat="45.764270" lon="4.506820">
						<ele>520</ele>
						<time>2024-08-13T15:50:11Z</time>
					</trkpt>
					<trkpt lat="45.764440" lon="4.506650">
						<ele>518</ele>
						<time>2024-08-13T15:50:14Z</time>
					</trkpt>
					<trkpt lat="45.765360" lon="4.505520">
						<ele>516</ele>
						<time>2024-08-13T15:50:36Z</time>
					</trkpt>
					<trkpt lat="45.765430" lon="4.505400">
						<ele>517</ele>
						<time>2024-08-13T15:50:38Z</time>
					</trkpt>
					<trkpt lat="45.765470" lon="4.505170">
						<ele>516</ele>
						<time>2024-08-13T15:50:41Z</time>
					</trkpt>
					<trkpt lat="45.765440" lon="4.505010">
						<ele>516</ele>
						<time>2024-08-13T15:50:43Z</time>
					</trkpt>
					<trkpt lat="45.765330" lon="4.504850">
						<ele>516</ele>
						<time>2024-08-13T15:50:46Z</time>
					</trkpt>
					<trkpt lat="45.764670" lon="4.504150">
						<ele>515</ele>
						<time>2024-08-13T15:51:00Z</time>
					</trkpt>
					<trkpt lat="45.764540" lon="4.503920">
						<ele>516</ele>
						<time>2024-08-13T15:51:04Z</time>
					</trkpt>
					<trkpt lat="45.764440" lon="4.503620">
						<ele>518</ele>
						<time>2024-08-13T15:51:08Z</time>
					</trkpt>
					<trkpt lat="45.764400" lon="4.503350">
						<ele>519</ele>
						<time>2024-08-13T15:51:11Z</time>
					</trkpt>
					<trkpt lat="45.764400" lon="4.503140">
						<ele>520</ele>
						<time>2024-08-13T15:51:14Z</time>
					</trkpt>
					<trkpt lat="45.764460" lon="4.502790">
						<ele>522</ele>
						<time>2024-08-13T15:51:18Z</time>
					</trkpt>
					<trkpt lat="45.764680" lon="4.501910">
						<ele>528</ele>
						<time>2024-08-13T15:51:30Z</time>
					</trkpt>
					<trkpt lat="45.764680" lon="4.501650">
						<ele>530</ele>
						<time>2024-08-13T15:51:33Z</time>
					</trkpt>
					<trkpt lat="45.764610" lon="4.501420">
						<ele>531</ele>
						<time>2024-08-13T15:51:36Z</time>
					</trkpt>
					<trkpt lat="45.764520" lon="4.501260">
						<ele>532</ele>
						<time>2024-08-13T15:51:39Z</time>
					</trkpt>
					<trkpt lat="45.764370" lon="4.501110">
						<ele>533</ele>
						<time>2024-08-13T15:51:42Z</time>
					</trkpt>
					<trkpt lat="45.763900" lon="4.500860">
						<ele>534</ele>
						<time>2024-08-13T15:51:51Z</time>
					</trkpt>
					<trkpt lat="45.763740" lon="4.500680">
						<ele>536</ele>
						<time>2024-08-13T15:51:55Z</time>
					</trkpt>
					<trkpt lat="45.763570" lon="4.500420">
						<ele>538</ele>
						<time>2024-08-13T15:51:59Z</time>
					</trkpt>
					<trkpt lat="45.763400" lon="4.500220">
						<ele>539</ele>
						<time>2024-08-13T15:52:03Z</time>
					</trkpt>
					<trkpt lat="45.763230" lon="4.500110">
						<ele>540</ele>
						<time>2024-08-13T15:52:06Z</time>
					</trkpt>
					<trkpt lat="45.763050" lon="4.500050">
						<ele>542</ele>
						<time>2024-08-13T15:52:10Z</time>
					</trkpt>
					<trkpt lat="45.762350" lon="4.499960">
						<ele>545</ele>
						<time>2024-08-13T15:52:22Z</time>
					</trkpt>
					<trkpt lat="45.762070" lon="4.499850">
						<ele>546</ele>
						<time>2024-08-13T15:52:27Z</time>
					</trkpt>
					<trkpt lat="45.761910" lon="4.499750">
						<ele>547</ele>
						<time>2024-08-13T15:52:31Z</time>
					</trkpt>
					<trkpt lat="45.761700" lon="4.499520">
						<ele>549</ele>
						<time>2024-08-13T15:52:35Z</time>
					</trkpt>
					<trkpt lat="45.761520" lon="4.498590">
						<ele>548</ele>
						<time>2024-08-13T15:52:47Z</time>
					</trkpt>
					<trkpt lat="45.761540" lon="4.498130">
						<ele>546</ele>
						<time>2024-08-13T15:52:53Z</time>
					</trkpt>
					<trkpt lat="45.761720" lon="4.497220">
						<ele>546</ele>
						<time>2024-08-13T15:53:05Z</time>
					</trkpt>
					<trkpt lat="45.761700" lon="4.496400">
						<ele>548</ele>
						<time>2024-08-13T15:53:15Z</time>
					</trkpt>
					<trkpt lat="45.761600" lon="4.496210">
						<ele>549</ele>
						<time>2024-08-13T15:53:18Z</time>
					</trkpt>
					<trkpt lat="45.761440" lon="4.496100">
						<ele>550</ele>
						<time>2024-08-13T15:53:21Z</time>
					</trkpt>
					<trkpt lat="45.761290" lon="4.496050">
						<ele>550</ele>
						<time>2024-08-13T15:53:24Z</time>
					</trkpt>
					<trkpt lat="45.761090" lon="4.496080">
						<ele>548</ele>
						<time>2024-08-13T15:53:27Z</time>
					</trkpt>
					<trkpt lat="45.760790" lon="4.496250">
						<ele>542</ele>
						<time>2024-08-13T15:53:33Z</time>
					</trkpt>
					<trkpt lat="45.760560" lon="4.496270">
						<ele>540</ele>
						<time>2024-08-13T15:53:37Z</time>
					</trkpt>
					<trkpt lat="45.760270" lon="4.496180">
						<ele>540</ele>
						<time>2024-08-13T15:53:42Z</time>
					</trkpt>
					<trkpt lat="45.760070" lon="4.496090">
						<ele>540</ele>
						<time>2024-08-13T15:53:46Z</time>
					</trkpt>
					<trkpt lat="45.759600" lon="4.496090">
						<ele>537</ele>
						<time>2024-08-13T15:53:54Z</time>
					</trkpt>
					<trkpt lat="45.758850" lon="4.495870">
						<ele>538</ele>
						<time>2024-08-13T15:54:08Z</time>
					</trkpt>
					<trkpt lat="45.758350" lon="4.495650">
						<ele>538</ele>
						<time>2024-08-13T15:54:17Z</time>
					</trkpt>
					<trkpt lat="45.757610" lon="4.495380">
						<ele>530</ele>
						<time>2024-08-13T15:54:31Z</time>
					</trkpt>
					<trkpt lat="45.757460" lon="4.495250">
						<ele>528</ele>
						<time>2024-08-13T15:54:34Z</time>
					</trkpt>
					<trkpt lat="45.757330" lon="4.495080">
						<ele>528</ele>
						<time>2024-08-13T15:54:37Z</time>
					</trkpt>
					<trkpt lat="45.757270" lon="4.494860">
						<ele>528</ele>
						<time>2024-08-13T15:54:40Z</time>
					</trkpt>
					<trkpt lat="45.757280" lon="4.494090">
						<ele>531</ele>
						<time>2024-08-13T15:54:50Z</time>
					</trkpt>
					<trkpt lat="45.757320" lon="4.493830">
						<ele>529</ele>
						<time>2024-08-13T15:54:53Z</time>
					</trkpt>
					<trkpt lat="45.757400" lon="4.493790">
						<ele>530</ele>
						<time>2024-08-13T15:54:55Z</time>
					</trkpt>
					<trkpt lat="45.757540" lon="4.493600">
						<ele>531</ele>
						<time>2024-08-13T15:54:58Z</time>
					</trkpt>
					<trkpt lat="45.758300" lon="4.492310">
						<ele>534</ele>
						<time>2024-08-13T15:55:19Z</time>
					</trkpt>
					<trkpt lat="45.758840" lon="4.491460">
						<ele>539</ele>
						<time>2024-08-13T15:55:33Z</time>
					</trkpt>
					<trkpt lat="45.758930" lon="4.491260">
						<ele>540</ele>
						<time>2024-08-13T15:55:36Z</time>
					</trkpt>
					<trkpt lat="45.759000" lon="4.491020">
						<ele>540</ele>
						<time>2024-08-13T15:55:39Z</time>
					</trkpt>
					<trkpt lat="45.759150" lon="4.490170">
						<ele>543</ele>
						<time>2024-08-13T15:55:50Z</time>
					</trkpt>
					<trkpt lat="45.759180" lon="4.489800">
						<ele>545</ele>
						<time>2024-08-13T15:55:55Z</time>
					</trkpt>
					<trkpt lat="45.759190" lon="4.489150">
						<ele>547</ele>
						<time>2024-08-13T15:56:03Z</time>
					</trkpt>
					<trkpt lat="45.759320" lon="4.488310">
						<ele>548</ele>
						<time>2024-08-13T15:56:14Z</time>
					</trkpt>
					<trkpt lat="45.759590" lon="4.487530">
						<ele>551</ele>
						<time>2024-08-13T15:56:24Z</time>
					</trkpt>
					<trkpt lat="45.759600" lon="4.487260">
						<ele>552</ele>
						<time>2024-08-13T15:56:28Z</time>
					</trkpt>
					<trkpt lat="45.759530" lon="4.486830">
						<ele>553</ele>
						<time>2024-08-13T15:56:33Z</time>
					</trkpt>
					<trkpt lat="45.759350" lon="4.486330">
						<ele>552</ele>
						<time>2024-08-13T15:56:40Z</time>
					</trkpt>
					<trkpt lat="45.759350" lon="4.485960">
						<ele>554</ele>
						<time>2024-08-13T15:56:45Z</time>
					</trkpt>
					<trkpt lat="45.759560" lon="4.484340">
						<ele>560</ele>
						<time>2024-08-13T15:57:05Z</time>
					</trkpt>
					<trkpt lat="45.759670" lon="4.484000">
						<ele>561</ele>
						<time>2024-08-13T15:57:10Z</time>
					</trkpt>
					<trkpt lat="45.759720" lon="4.483670">
						<ele>560</ele>
						<time>2024-08-13T15:57:14Z</time>
					</trkpt>
					<trkpt lat="45.759700" lon="4.483000">
						<ele>557</ele>
						<time>2024-08-13T15:57:22Z</time>
					</trkpt>
					<trkpt lat="45.759740" lon="4.482720">
						<ele>557</ele>
						<time>2024-08-13T15:57:26Z</time>
					</trkpt>
					<trkpt lat="45.760010" lon="4.482100">
						<ele>558</ele>
						<time>2024-08-13T15:57:35Z</time>
					</trkpt>
					<trkpt lat="45.760160" lon="4.481930">
						<ele>559</ele>
						<time>2024-08-13T15:57:39Z</time>
					</trkpt>
					<trkpt lat="45.761030" lon="4.481260">
						<ele>558</ele>
						<time>2024-08-13T15:57:56Z</time>
					</trkpt>
					<trkpt lat="45.761280" lon="4.481130">
						<ele>558</ele>
						<time>2024-08-13T15:58:01Z</time>
					</trkpt>
					<trkpt lat="45.761410" lon="4.481090">
						<ele>558</ele>
						<time>2024-08-13T15:58:03Z</time>
					</trkpt>
					<trkpt lat="45.761610" lon="4.481080">
						<ele>559</ele>
						<time>2024-08-13T15:58:07Z</time>
					</trkpt>
					<trkpt lat="45.761930" lon="4.481180">
						<ele>559</ele>
						<time>2024-08-13T15:58:13Z</time>
					</trkpt>
					<trkpt lat="45.762810" lon="4.481270">
						<ele>560</ele>
						<time>2024-08-13T15:58:28Z</time>
					</trkpt>
					<trkpt lat="45.762970" lon="4.481250">
						<ele>560</ele>
						<time>2024-08-13T15:58:31Z</time>
					</trkpt>
					<trkpt lat="45.763860" lon="4.480810">
						<ele>560</ele>
						<time>2024-08-13T15:58:48Z</time>
					</trkpt>
					<trkpt lat="45.763990" lon="4.480680">
						<ele>560</ele>
						<time>2024-08-13T15:58:51Z</time>
					</trkpt>
					<trkpt lat="45.764110" lon="4.480470">
						<ele>561</ele>
						<time>2024-08-13T15:58:54Z</time>
					</trkpt>
					<trkpt lat="45.764140" lon="4.480170">
						<ele>559</ele>
						<time>2024-08-13T15:58:58Z</time>
					</trkpt>
					<trkpt lat="45.764090" lon="4.479620">
						<ele>557</ele>
						<time>2024-08-13T15:59:05Z</time>
					</trkpt>
					<trkpt lat="45.764100" lon="4.479460">
						<ele>557</ele>
						<time>2024-08-13T15:59:07Z</time>
					</trkpt>
					<trkpt lat="45.764190" lon="4.479270">
						<ele>558</ele>
						<time>2024-08-13T15:59:10Z</time>
					</trkpt>
					<trkpt lat="45.764350" lon="4.479060">
						<ele>558</ele>
						<time>2024-08-13T15:59:13Z</time>
					</trkpt>
					<trkpt lat="45.764930" lon="4.478770">
						<ele>560</ele>
						<time>2024-08-13T15:59:24Z</time>
					</trkpt>
					<trkpt lat="45.765090" lon="4.478650">
						<ele>561</ele>
						<time>2024-08-13T15:59:28Z</time>
					</trkpt>
					<trkpt lat="45.765230" lon="4.478450">
						<ele>560</ele>
						<time>2024-08-13T15:59:31Z</time>
					</trkpt>
					<trkpt lat="45.765530" lon="4.477730">
						<ele>561</ele>
						<time>2024-08-13T15:59:41Z</time>
					</trkpt>
					<trkpt lat="45.765800" lon="4.477300">
						<ele>562</ele>
						<time>2024-08-13T15:59:49Z</time>
					</trkpt>
					<trkpt lat="45.765950" lon="4.477120">
						<ele>562</ele>
						<time>2024-08-13T15:59:52Z</time>
					</trkpt>
					<trkpt lat="45.766190" lon="4.476980">
						<ele>561</ele>
						<time>2024-08-13T15:59:57Z</time>
					</trkpt>
					<trkpt lat="45.766630" lon="4.476900">
						<ele>561</ele>
						<time>2024-08-13T16:00:05Z</time>
					</trkpt>
					<trkpt lat="45.766780" lon="4.476820">
						<ele>562</ele>
						<time>2024-08-13T16:00:08Z</time>
					</trkpt>
					<trkpt lat="45.766920" lon="4.476690">
						<ele>563</ele>
						<time>2024-08-13T16:00:10Z</time>
					</trkpt>
					<trkpt lat="45.767660" lon="4.475810">
						<ele>566</ele>
						<time>2024-08-13T16:00:28Z</time>
					</trkpt>
					<trkpt lat="45.767980" lon="4.475490">
						<ele>566</ele>
						<time>2024-08-13T16:00:35Z</time>
					</trkpt>
					<trkpt lat="45.768370" lon="4.475230">
						<ele>567</ele>
						<time>2024-08-13T16:00:42Z</time>
					</trkpt>
					<trkpt lat="45.768970" lon="4.474990">
						<ele>566</ele>
						<time>2024-08-13T16:00:53Z</time>
					</trkpt>
					<trkpt lat="45.769230" lon="4.474830">
						<ele>566</ele>
						<time>2024-08-13T16:00:58Z</time>
					</trkpt>
					<trkpt lat="45.769380" lon="4.474700">
						<ele>567</ele>
						<time>2024-08-13T16:01:01Z</time>
					</trkpt>
					<trkpt lat="45.769550" lon="4.474450">
						<ele>566</ele>
						<time>2024-08-13T16:01:06Z</time>
					</trkpt>
					<trkpt lat="45.769770" lon="4.473860">
						<ele>562</ele>
						<time>2024-08-13T16:01:14Z</time>
					</trkpt>
					<trkpt lat="45.770030" lon="4.473570">
						<ele>561</ele>
						<time>2024-08-13T16:01:20Z</time>
					</trkpt>
					<trkpt lat="45.770200" lon="4.473440">
						<ele>560</ele>
						<time>2024-08-13T16:01:23Z</time>
					</trkpt>
					<trkpt lat="45.770460" lon="4.473320">
						<ele>558</ele>
						<time>2024-08-13T16:01:28Z</time>
					</trkpt>
					<trkpt lat="45.770670" lon="4.473320">
						<ele>559</ele>
						<time>2024-08-13T16:01:32Z</time>
					</trkpt>
					<trkpt lat="45.770800" lon="4.473370">
						<ele>560</ele>
						<time>2024-08-13T16:01:34Z</time>
					</trkpt>
					<trkpt lat="45.771400" lon="4.473860">
						<ele>565</ele>
						<time>2024-08-13T16:01:47Z</time>
					</trkpt>
					<trkpt lat="45.771560" lon="4.473950">
						<ele>565</ele>
						<time>2024-08-13T16:01:50Z</time>
					</trkpt>
					<trkpt lat="45.771980" lon="4.474050">
						<ele>565</ele>
						<time>2024-08-13T16:01:57Z</time>
					</trkpt>
					<trkpt lat="45.772170" lon="4.474050">
						<ele>566</ele>
						<time>2024-08-13T16:02:01Z</time>
					</trkpt>
					<trkpt lat="45.772280" lon="4.474010">
						<ele>565</ele>
						<time>2024-08-13T16:02:03Z</time>
					</trkpt>
					<trkpt lat="45.772440" lon="4.473890">
						<ele>565</ele>
						<time>2024-08-13T16:02:06Z</time>
					</trkpt>
					<trkpt lat="45.772540" lon="4.473700">
						<ele>565</ele>
						<time>2024-08-13T16:02:09Z</time>
					</trkpt>
					<trkpt lat="45.772600" lon="4.473360">
						<ele>565</ele>
						<time>2024-08-13T16:02:13Z</time>
					</trkpt>
					<trkpt lat="45.772470" lon="4.472790">
						<ele>564</ele>
						<time>2024-08-13T16:02:21Z</time>
					</trkpt>
					<trkpt lat="45.772490" lon="4.472510">
						<ele>565</ele>
						<time>2024-08-13T16:02:24Z</time>
					</trkpt>
					<trkpt lat="45.772550" lon="4.472390">
						<ele>564</ele>
						<time>2024-08-13T16:02:26Z</time>
					</trkpt>
					<trkpt lat="45.772670" lon="4.472280">
						<ele>564</ele>
						<time>2024-08-13T16:02:28Z</time>
					</trkpt>
					<trkpt lat="45.772810" lon="4.472230">
						<ele>564</ele>
						<time>2024-08-13T16:02:31Z</time>
					</trkpt>
					<trkpt lat="45.773500" lon="4.472170">
						<ele>567</ele>
						<time>2024-08-13T16:02:43Z</time>
					</trkpt>
					<trkpt lat="45.773760" lon="4.472180">
						<ele>567</ele>
						<time>2024-08-13T16:02:48Z</time>
					</trkpt>
					<trkpt lat="45.774160" lon="4.472290">
						<ele>569</ele>
						<time>2024-08-13T16:02:55Z</time>
					</trkpt>
					<trkpt lat="45.774420" lon="4.472330">
						<ele>572</ele>
						<time>2024-08-13T16:03:00Z</time>
					</trkpt>
					<trkpt lat="45.774510" lon="4.472280">
						<ele>572</ele>
						<time>2024-08-13T16:03:02Z</time>
					</trkpt>
					<trkpt lat="45.774630" lon="4.472150">
						<ele>572</ele>
						<time>2024-08-13T16:03:04Z</time>
					</trkpt>
					<trkpt lat="45.775000" lon="4.471640">
						<ele>571</ele>
						<time>2024-08-13T16:03:13Z</time>
					</trkpt>
					<trkpt lat="45.775530" lon="4.471200">
						<ele>572</ele>
						<time>2024-08-13T16:03:24Z</time>
					</trkpt>
					<trkpt lat="45.775710" lon="4.471110">
						<ele>573</ele>
						<time>2024-08-13T16:03:28Z</time>
					</trkpt>
					<trkpt lat="45.775900" lon="4.471050">
						<ele>574</ele>
						<time>2024-08-13T16:03:31Z</time>
					</trkpt>
					<trkpt lat="45.776370" lon="4.471200">
						<ele>580</ele>
						<time>2024-08-13T16:03:40Z</time>
					</trkpt>
					<trkpt lat="45.776570" lon="4.471190">
						<ele>581</ele>
						<time>2024-08-13T16:03:43Z</time>
					</trkpt>
					<trkpt lat="45.776810" lon="4.471090">
						<ele>580</ele>
						<time>2024-08-13T16:03:48Z</time>
					</trkpt>
					<trkpt lat="45.777050" lon="4.471050">
						<ele>579</ele>
						<time>2024-08-13T16:03:52Z</time>
					</trkpt>
					<trkpt lat="45.777220" lon="4.471080">
						<ele>579</ele>
						<time>2024-08-13T16:03:55Z</time>
					</trkpt>
					<trkpt lat="45.777390" lon="4.471190">
						<ele>581</ele>
						<time>2024-08-13T16:03:58Z</time>
					</trkpt>
					<trkpt lat="45.777720" lon="4.471540">
						<ele>587</ele>
						<time>2024-08-13T16:04:06Z</time>
					</trkpt>
					<trkpt lat="45.777890" lon="4.471670">
						<ele>588</ele>
						<time>2024-08-13T16:04:09Z</time>
					</trkpt>
					<trkpt lat="45.778780" lon="4.471780">
						<ele>593</ele>
						<time>2024-08-13T16:04:25Z</time>
					</trkpt>
					<trkpt lat="45.779030" lon="4.471770">
						<ele>595</ele>
						<time>2024-08-13T16:04:29Z</time>
					</trkpt>
					<trkpt lat="45.779170" lon="4.471710">
						<ele>596</ele>
						<time>2024-08-13T16:04:32Z</time>
					</trkpt>
					<trkpt lat="45.779600" lon="4.471240">
						<ele>594</ele>
						<time>2024-08-13T16:04:42Z</time>
					</trkpt>
					<trkpt lat="45.779740" lon="4.471140">
						<ele>594</ele>
						<time>2024-08-13T16:04:44Z</time>
					</trkpt>
					<trkpt lat="45.779900" lon="4.471080">
						<ele>594</ele>
						<time>2024-08-13T16:04:47Z</time>
					</trkpt>
					<trkpt lat="45.780050" lon="4.471090">
						<ele>595</ele>
						<time>2024-08-13T16:04:50Z</time>
					</trkpt>
					<trkpt lat="45.780210" lon="4.471160">
						<ele>597</ele>
						<time>2024-08-13T16:04:53Z</time>
					</trkpt>
					<trkpt lat="45.780530" lon="4.471510">
						<ele>602</ele>
						<time>2024-08-13T16:05:00Z</time>
					</trkpt>
					<trkpt lat="45.780690" lon="4.471620">
						<ele>603</ele>
						<time>2024-08-13T16:05:03Z</time>
					</trkpt>
					<trkpt lat="45.780870" lon="4.471680">
						<ele>604</ele>
						<time>2024-08-13T16:05:07Z</time>
					</trkpt>
					<trkpt lat="45.781020" lon="4.471660">
						<ele>605</ele>
						<time>2024-08-13T16:05:09Z</time>
					</trkpt>
					<trkpt lat="45.781630" lon="4.471330">
						<ele>608</ele>
						<time>2024-08-13T16:05:21Z</time>
					</trkpt>
					<trkpt lat="45.781840" lon="4.471170">
						<ele>610</ele>
						<time>2024-08-13T16:05:25Z</time>
					</trkpt>
					<trkpt lat="45.781950" lon="4.471020">
						<ele>611</ele>
						<time>2024-08-13T16:05:28Z</time>
					</trkpt>
					<trkpt lat="45.782220" lon="4.470350">
						<ele>609</ele>
						<time>2024-08-13T16:05:37Z</time>
					</trkpt>
					<trkpt lat="45.782350" lon="4.470130">
						<ele>609</ele>
						<time>2024-08-13T16:05:41Z</time>
					</trkpt>
					<trkpt lat="45.782450" lon="4.470030">
						<ele>610</ele>
						<time>2024-08-13T16:05:43Z</time>
					</trkpt>
					<trkpt lat="45.782610" lon="4.469950">
						<ele>609</ele>
						<time>2024-08-13T16:05:46Z</time>
					</trkpt>
					<trkpt lat="45.782820" lon="4.469970">
						<ele>609</ele>
						<time>2024-08-13T16:05:50Z</time>
					</trkpt>
					<trkpt lat="45.783750" lon="4.470510">
						<ele>614</ele>
						<time>2024-08-13T16:06:08Z</time>
					</trkpt>
					<trkpt lat="45.783900" lon="4.470650">
						<ele>615</ele>
						<time>2024-08-13T16:06:11Z</time>
					</trkpt>
					<trkpt lat="45.784060" lon="4.470920">
						<ele>616</ele>
						<time>2024-08-13T16:06:15Z</time>
					</trkpt>
					<trkpt lat="45.784240" lon="4.471520">
						<ele>621</ele>
						<time>2024-08-13T16:06:24Z</time>
					</trkpt>
					<trkpt lat="45.784350" lon="4.471800">
						<ele>624</ele>
						<time>2024-08-13T16:06:28Z</time>
					</trkpt>
					<trkpt lat="45.784710" lon="4.472270">
						<ele>627</ele>
						<time>2024-08-13T16:06:36Z</time>
					</trkpt>
					<trkpt lat="45.784940" lon="4.472470">
						<ele>627</ele>
						<time>2024-08-13T16:06:41Z</time>
					</trkpt>
					<trkpt lat="45.785150" lon="4.472510">
						<ele>627</ele>
						<time>2024-08-13T16:06:45Z</time>
					</trkpt>
					<trkpt lat="45.785370" lon="4.472510">
						<ele>628</ele>
						<time>2024-08-13T16:06:49Z</time>
					</trkpt>
					<trkpt lat="45.786050" lon="4.472260">
						<ele>628</ele>
						<time>2024-08-13T16:07:01Z</time>
					</trkpt>
					<trkpt lat="45.786190" lon="4.472230">
						<ele>628</ele>
						<time>2024-08-13T16:07:04Z</time>
					</trkpt>
					<trkpt lat="45.786280" lon="4.472110">
						<ele>629</ele>
						<time>2024-08-13T16:07:06Z</time>
					</trkpt>
					<trkpt lat="45.786420" lon="4.472050">
						<ele>630</ele>
						<time>2024-08-13T16:07:08Z</time>
					</trkpt>
					<trkpt lat="45.787410" lon="4.471780">
						<ele>636</ele>
						<time>2024-08-13T16:07:26Z</time>
					</trkpt>
					<trkpt lat="45.787630" lon="4.471690">
						<ele>637</ele>
						<time>2024-08-13T16:07:30Z</time>
					</trkpt>
					<trkpt lat="45.787810" lon="4.471550">
						<ele>637</ele>
						<time>2024-08-13T16:07:34Z</time>
					</trkpt>
					<trkpt lat="45.787940" lon="4.471400">
						<ele>637</ele>
						<time>2024-08-13T16:07:37Z</time>
					</trkpt>
					<trkpt lat="45.789210" lon="4.469300">
						<ele>647</ele>
						<time>2024-08-13T16:08:12Z</time>
					</trkpt>
					<trkpt lat="45.790050" lon="4.468120">
						<ele>657</ele>
						<time>2024-08-13T16:08:32Z</time>
					</trkpt>
					<trkpt lat="45.790090" lon="4.467950">
						<ele>659</ele>
						<time>2024-08-13T16:08:35Z</time>
					</trkpt>
					<trkpt lat="45.790090" lon="4.467740">
						<ele>662</ele>
						<time>2024-08-13T16:08:37Z</time>
					</trkpt>
					<trkpt lat="45.789920" lon="4.467320">
						<ele>663</ele>
						<time>2024-08-13T16:08:43Z</time>
					</trkpt>
					<trkpt lat="45.789890" lon="4.466850">
						<ele>665</ele>
						<time>2024-08-13T16:08:49Z</time>
					</trkpt>
					<trkpt lat="45.790080" lon="4.466340">
						<ele>667</ele>
						<time>2024-08-13T16:08:56Z</time>
					</trkpt>
					<trkpt lat="45.790290" lon="4.466080">
						<ele>666</ele>
						<time>2024-08-13T16:09:01Z</time>
					</trkpt>
					<trkpt lat="45.790700" lon="4.465720">
						<ele>663</ele>
						<time>2024-08-13T16:09:10Z</time>
					</trkpt>
					<trkpt lat="45.790890" lon="4.465660">
						<ele>662</ele>
						<time>2024-08-13T16:09:13Z</time>
					</trkpt>
					<trkpt lat="45.791190" lon="4.465670">
						<ele>661</ele>
						<time>2024-08-13T16:09:19Z</time>
					</trkpt>
					<trkpt lat="45.791990" lon="4.465790">
						<ele>660</ele>
						<time>2024-08-13T16:09:33Z</time>
					</trkpt>
					<trkpt lat="45.792200" lon="4.465780">
						<ele>660</ele>
						<time>2024-08-13T16:09:37Z</time>
					</trkpt>
					<trkpt lat="45.792340" lon="4.465740">
						<ele>660</ele>
						<time>2024-08-13T16:09:39Z</time>
					</trkpt>
					<trkpt lat="45.793300" lon="4.464870">
						<ele>661</ele>
						<time>2024-08-13T16:09:59Z</time>
					</trkpt>
					<trkpt lat="45.793580" lon="4.464560">
						<ele>659</ele>
						<time>2024-08-13T16:10:06Z</time>
					</trkpt>
					<trkpt lat="45.793990" lon="4.464030">
						<ele>659</ele>
						<time>2024-08-13T16:10:16Z</time>
					</trkpt>
					<trkpt lat="45.794120" lon="4.463790">
						<ele>660</ele>
						<time>2024-08-13T16:10:19Z</time>
					</trkpt>
					<trkpt lat="45.794420" lon="4.462880">
						<ele>662</ele>
						<time>2024-08-13T16:10:32Z</time>
					</trkpt>
					<trkpt lat="45.794970" lon="4.460520">
						<ele>673</ele>
						<time>2024-08-13T16:11:03Z</time>
					</trkpt>
					<trkpt lat="45.795100" lon="4.460070">
						<ele>674</ele>
						<time>2024-08-13T16:11:09Z</time>
					</trkpt>
					<trkpt lat="45.795190" lon="4.459890">
						<ele>675</ele>
						<time>2024-08-13T16:11:11Z</time>
					</trkpt>
					<trkpt lat="45.795370" lon="4.459620">
						<ele>676</ele>
						<time>2024-08-13T16:11:16Z</time>
					</trkpt>
					<trkpt lat="45.795540" lon="4.459450">
						<ele>678</ele>
						<time>2024-08-13T16:11:20Z</time>
					</trkpt>
					<trkpt lat="45.796470" lon="4.458730">
						<ele>683</ele>
						<time>2024-08-13T16:11:39Z</time>
					</trkpt>
					<trkpt lat="45.796720" lon="4.458630">
						<ele>684</ele>
						<time>2024-08-13T16:11:43Z</time>
					</trkpt>
					<trkpt lat="45.796900" lon="4.458610">
						<ele>684</ele>
						<time>2024-08-13T16:11:46Z</time>
					</trkpt>
					<trkpt lat="45.797810" lon="4.458860">
						<ele>694</ele>
						<time>2024-08-13T16:12:03Z</time>
					</trkpt>
					<trkpt lat="45.798030" lon="4.458870">
						<ele>696</ele>
						<time>2024-08-13T16:12:07Z</time>
					</trkpt>
					<trkpt lat="45.798200" lon="4.458810">
						<ele>697</ele>
						<time>2024-08-13T16:12:10Z</time>
					</trkpt>
					<trkpt lat="45.798340" lon="4.458720">
						<ele>697</ele>
						<time>2024-08-13T16:12:13Z</time>
					</trkpt>
					<trkpt lat="45.798520" lon="4.458440">
						<ele>698</ele>
						<time>2024-08-13T16:12:17Z</time>
					</trkpt>
					<trkpt lat="45.798600" lon="4.458230">
						<ele>699</ele>
						<time>2024-08-13T16:12:20Z</time>
					</trkpt>
					<trkpt lat="45.799050" lon="4.456920">
						<ele>704</ele>
						<time>2024-08-13T16:12:38Z</time>
					</trkpt>
					<trkpt lat="45.799120" lon="4.456590">
						<ele>705</ele>
						<time>2024-08-13T16:12:43Z</time>
					</trkpt>
					<trkpt lat="45.799140" lon="4.456030">
						<ele>706</ele>
						<time>2024-08-13T16:12:50Z</time>
					</trkpt>
					<trkpt lat="45.798910" lon="4.452430">
						<ele>718</ele>
						<time>2024-08-13T16:13:35Z</time>
					</trkpt>
					<trkpt lat="45.798820" lon="4.451970">
						<ele>718</ele>
						<time>2024-08-13T16:13:40Z</time>
					</trkpt>
					<trkpt lat="45.798620" lon="4.451480">
						<ele>719</ele>
						<time>2024-08-13T16:13:48Z</time>
					</trkpt>
					<trkpt lat="45.798350" lon="4.451010">
						<ele>719</ele>
						<time>2024-08-13T16:13:55Z</time>
					</trkpt>
					<trkpt lat="45.798130" lon="4.450840">
						<ele>719</ele>
						<time>2024-08-13T16:14:00Z</time>
					</trkpt>
					<trkpt lat="45.797180" lon="4.450240">
						<ele>730</ele>
						<time>2024-08-13T16:14:18Z</time>
					</trkpt>
					<trkpt lat="45.796950" lon="4.450150">
						<ele>735</ele>
						<time>2024-08-13T16:14:22Z</time>
					</trkpt>
					<trkpt lat="45.796760" lon="4.450150">
						<ele>738</ele>
						<time>2024-08-13T16:14:26Z</time>
					</trkpt>
					<trkpt lat="45.796510" lon="4.450210">
						<ele>739</ele>
						<time>2024-08-13T16:14:30Z</time>
					</trkpt>
					<trkpt lat="45.796080" lon="4.450390">
						<ele>740</ele>
						<time>2024-08-13T16:14:38Z</time>
					</trkpt>
					<trkpt lat="45.795500" lon="4.450870">
						<ele>731</ele>
						<time>2024-08-13T16:14:50Z</time>
					</trkpt>
					<trkpt lat="45.795300" lon="4.450980">
						<ele>729</ele>
						<time>2024-08-13T16:14:54Z</time>
					</trkpt>
					<trkpt lat="45.795070" lon="4.451040">
						<ele>729</ele>
						<time>2024-08-13T16:14:58Z</time>
					</trkpt>
					<trkpt lat="45.794900" lon="4.451030">
						<ele>728</ele>
						<time>2024-08-13T16:15:01Z</time>
					</trkpt>
					<trkpt lat="45.794760" lon="4.450930">
						<ele>727</ele>
						<time>2024-08-13T16:15:04Z</time>
					</trkpt>
					<trkpt lat="45.794660" lon="4.450770">
						<ele>727</ele>
						<time>2024-08-13T16:15:06Z</time>
					</trkpt>
					<trkpt lat="45.794610" lon="4.450590">
						<ele>727</ele>
						<time>2024-08-13T16:15:09Z</time>
					</trkpt>
					<trkpt lat="45.794590" lon="4.450370">
						<ele>727</ele>
						<time>2024-08-13T16:15:12Z</time>
					</trkpt>
					<trkpt lat="45.794600" lon="4.450100">
						<ele>728</ele>
						<time>2024-08-13T16:15:15Z</time>
					</trkpt>
					<trkpt lat="45.794850" lon="4.448490">
						<ele>725</ele>
						<time>2024-08-13T16:15:35Z</time>
					</trkpt>
					<trkpt lat="45.794860" lon="4.448300">
						<ele>724</ele>
						<time>2024-08-13T16:15:38Z</time>
					</trkpt>
					<trkpt lat="45.794420" lon="4.446100">
						<ele>721</ele>
						<time>2024-08-13T16:16:06Z</time>
					</trkpt>
					<trkpt lat="45.794320" lon="4.445730">
						<ele>720</ele>
						<time>2024-08-13T16:16:11Z</time>
					</trkpt>
					<trkpt lat="45.794210" lon="4.445530">
						<ele>719</ele>
						<time>2024-08-13T16:16:14Z</time>
					</trkpt>
					<trkpt lat="45.794080" lon="4.445360">
						<ele>719</ele>
						<time>2024-08-13T16:16:17Z</time>
					</trkpt>
					<trkpt lat="45.793650" lon="4.445100">
						<ele>721</ele>
						<time>2024-08-13T16:16:26Z</time>
					</trkpt>
					<trkpt lat="45.793540" lon="4.445000">
						<ele>722</ele>
						<time>2024-08-13T16:16:28Z</time>
					</trkpt>
					<trkpt lat="45.793420" lon="4.444840">
						<ele>723</ele>
						<time>2024-08-13T16:16:31Z</time>
					</trkpt>
					<trkpt lat="45.793340" lon="4.444680">
						<ele>724</ele>
						<time>2024-08-13T16:16:33Z</time>
					</trkpt>
					<trkpt lat="45.793290" lon="4.444440">
						<ele>723</ele>
						<time>2024-08-13T16:16:36Z</time>
					</trkpt>
					<trkpt lat="45.793300" lon="4.442880">
						<ele>725</ele>
						<time>2024-08-13T16:16:56Z</time>
					</trkpt>
					<trkpt lat="45.793600" lon="4.440430">
						<ele>726</ele>
						<time>2024-08-13T16:17:27Z</time>
					</trkpt>
					<trkpt lat="45.793850" lon="4.440240">
						<ele>727</ele>
						<time>2024-08-13T16:17:32Z</time>
					</trkpt>
					<trkpt lat="45.794110" lon="4.440080">
						<ele>729</ele>
						<time>2024-08-13T16:17:37Z</time>
					</trkpt>
					<trkpt lat="45.794310" lon="4.439880">
						<ele>729</ele>
						<time>2024-08-13T16:17:41Z</time>
					</trkpt>
					<trkpt lat="45.794770" lon="4.439140">
						<ele>735</ele>
						<time>2024-08-13T16:17:53Z</time>
					</trkpt>
					<trkpt lat="45.794870" lon="4.439030">
						<ele>736</ele>
						<time>2024-08-13T16:17:56Z</time>
					</trkpt>
					<trkpt lat="45.795210" lon="4.438890">
						<ele>738</ele>
						<time>2024-08-13T16:18:02Z</time>
					</trkpt>
					<trkpt lat="45.796320" lon="4.438720">
						<ele>735</ele>
						<time>2024-08-13T16:18:22Z</time>
					</trkpt>
					<trkpt lat="45.796480" lon="4.438640">
						<ele>735</ele>
						<time>2024-08-13T16:18:25Z</time>
					</trkpt>
					<trkpt lat="45.796950" lon="4.438220">
						<ele>740</ele>
						<time>2024-08-13T16:18:35Z</time>
					</trkpt>
					<trkpt lat="45.797110" lon="4.438020">
						<ele>741</ele>
						<time>2024-08-13T16:18:38Z</time>
					</trkpt>
					<trkpt lat="45.797520" lon="4.437230">
						<ele>747</ele>
						<time>2024-08-13T16:18:51Z</time>
					</trkpt>
					<trkpt lat="45.797890" lon="4.436620">
						<ele>741</ele>
						<time>2024-08-13T16:19:01Z</time>
					</trkpt>
					<trkpt lat="45.798020" lon="4.436340">
						<ele>737</ele>
						<time>2024-08-13T16:19:05Z</time>
					</trkpt>
					<trkpt lat="45.798180" lon="4.435840">
						<ele>733</ele>
						<time>2024-08-13T16:19:12Z</time>
					</trkpt>
					<trkpt lat="45.798240" lon="4.435380">
						<ele>734</ele>
						<time>2024-08-13T16:19:18Z</time>
					</trkpt>
					<trkpt lat="45.798300" lon="4.435170">
						<ele>733</ele>
						<time>2024-08-13T16:19:20Z</time>
					</trkpt>
					<trkpt lat="45.798430" lon="4.434970">
						<ele>734</ele>
						<time>2024-08-13T16:19:24Z</time>
					</trkpt>
					<trkpt lat="45.798570" lon="4.434820">
						<ele>735</ele>
						<time>2024-08-13T16:19:27Z</time>
					</trkpt>
					<trkpt lat="45.798720" lon="4.434740">
						<ele>736</ele>
						<time>2024-08-13T16:19:30Z</time>
					</trkpt>
					<trkpt lat="45.798890" lon="4.434710">
						<ele>735</ele>
						<time>2024-08-13T16:19:33Z</time>
					</trkpt>
					<trkpt lat="45.799220" lon="4.434760">
						<ele>732</ele>
						<time>2024-08-13T16:19:39Z</time>
					</trkpt>
					<trkpt lat="45.799390" lon="4.434750">
						<ele>731</ele>
						<time>2024-08-13T16:19:42Z</time>
					</trkpt>
					<trkpt lat="45.799570" lon="4.434690">
						<ele>731</ele>
						<time>2024-08-13T16:19:45Z</time>
					</trkpt>
					<trkpt lat="45.799810" lon="4.434490">
						<ele>732</ele>
						<time>2024-08-13T16:19:50Z</time>
					</trkpt>
					<trkpt lat="45.800080" lon="4.434110">
						<ele>734</ele>
						<time>2024-08-13T16:19:57Z</time>
					</trkpt>
					<trkpt lat="45.800290" lon="4.433910">
						<ele>737</ele>
						<time>2024-08-13T16:20:01Z</time>
					</trkpt>
					<trkpt lat="45.801000" lon="4.433360">
						<ele>738</ele>
						<time>2024-08-13T16:20:15Z</time>
					</trkpt>
					<trkpt lat="45.801390" lon="4.433120">
						<ele>734</ele>
						<time>2024-08-13T16:20:23Z</time>
					</trkpt>
					<trkpt lat="45.802100" lon="4.432900">
						<ele>725</ele>
						<time>2024-08-13T16:20:36Z</time>
					</trkpt>
					<trkpt lat="45.802230" lon="4.432780">
						<ele>725</ele>
						<time>2024-08-13T16:20:39Z</time>
					</trkpt>
					<trkpt lat="45.802330" lon="4.432610">
						<ele>724</ele>
						<time>2024-08-13T16:20:41Z</time>
					</trkpt>
					<trkpt lat="45.802390" lon="4.432360">
						<ele>724</ele>
						<time>2024-08-13T16:20:45Z</time>
					</trkpt>
					<trkpt lat="45.802410" lon="4.432130">
						<ele>723</ele>
						<time>2024-08-13T16:20:48Z</time>
					</trkpt>
					<trkpt lat="45.802300" lon="4.431230">
						<ele>722</ele>
						<time>2024-08-13T16:20:59Z</time>
					</trkpt>
					<trkpt lat="45.802320" lon="4.430780">
						<ele>720</ele>
						<time>2024-08-13T16:21:05Z</time>
					</trkpt>
					<trkpt lat="45.802460" lon="4.430300">
						<ele>719</ele>
						<time>2024-08-13T16:21:11Z</time>
					</trkpt>
					<trkpt lat="45.802710" lon="4.429750">
						<ele>715</ele>
						<time>2024-08-13T16:21:19Z</time>
					</trkpt>
					<trkpt lat="45.802830" lon="4.429380">
						<ele>713</ele>
						<time>2024-08-13T16:21:24Z</time>
					</trkpt>
					<trkpt lat="45.802920" lon="4.428040">
						<ele>712</ele>
						<time>2024-08-13T16:21:41Z</time>
					</trkpt>
					<trkpt lat="45.803040" lon="4.427750">
						<ele>711</ele>
						<time>2024-08-13T16:21:45Z</time>
					</trkpt>
					<trkpt lat="45.803110" lon="4.427640">
						<ele>711</ele>
						<time>2024-08-13T16:21:47Z</time>
					</trkpt>
					<trkpt lat="45.803600" lon="4.427300">
						<ele>708</ele>
						<time>2024-08-13T16:21:57Z</time>
					</trkpt>
					<trkpt lat="45.803760" lon="4.427150">
						<ele>706</ele>
						<time>2024-08-13T16:22:00Z</time>
					</trkpt>
					<trkpt lat="45.803870" lon="4.426960">
						<ele>706</ele>
						<time>2024-08-13T16:22:03Z</time>
					</trkpt>
					<trkpt lat="45.804080" lon="4.426490">
						<ele>706</ele>
						<time>2024-08-13T16:22:10Z</time>
					</trkpt>
					<trkpt lat="45.804360" lon="4.426180">
						<ele>705</ele>
						<time>2024-08-13T16:22:16Z</time>
					</trkpt>
					<trkpt lat="45.807250" lon="4.423420">
						<ele>710</ele>
						<time>2024-08-13T16:23:18Z</time>
					</trkpt>
					<trkpt lat="45.807480" lon="4.423330">
						<ele>711</ele>
						<time>2024-08-13T16:23:22Z</time>
					</trkpt>
					<trkpt lat="45.808610" lon="4.423180">
						<ele>716</ele>
						<time>2024-08-13T16:23:42Z</time>
					</trkpt>
					<trkpt lat="45.808860" lon="4.423090">
						<ele>716</ele>
						<time>2024-08-13T16:23:47Z</time>
					</trkpt>
					<trkpt lat="45.809120" lon="4.422880">
						<ele>715</ele>
						<time>2024-08-13T16:23:52Z</time>
					</trkpt>
					<trkpt lat="45.809300" lon="4.422660">
						<ele>715</ele>
						<time>2024-08-13T16:23:57Z</time>
					</trkpt>
					<trkpt lat="45.811190" lon="4.419830">
						<ele>717</ele>
						<time>2024-08-13T16:24:45Z</time>
					</trkpt>
					<trkpt lat="45.811340" lon="4.419560">
						<ele>719</ele>
						<time>2024-08-13T16:24:49Z</time>
					</trkpt>
					<trkpt lat="45.811450" lon="4.419220">
						<ele>720</ele>
						<time>2024-08-13T16:24:54Z</time>
					</trkpt>
					<trkpt lat="45.811490" lon="4.418910">
						<ele>721</ele>
						<time>2024-08-13T16:24:58Z</time>
					</trkpt>
					<trkpt lat="45.811480" lon="4.418560">
						<ele>722</ele>
						<time>2024-08-13T16:25:02Z</time>
					</trkpt>
					<trkpt lat="45.811240" lon="4.416600">
						<ele>722</ele>
						<time>2024-08-13T16:25:27Z</time>
					</trkpt>
					<trkpt lat="45.811190" lon="4.416300">
						<ele>723</ele>
						<time>2024-08-13T16:25:31Z</time>
					</trkpt>
					<trkpt lat="45.811110" lon="4.416020">
						<ele>723</ele>
						<time>2024-08-13T16:25:35Z</time>
					</trkpt>
					<trkpt lat="45.811000" lon="4.415870">
						<ele>723</ele>
						<time>2024-08-13T16:25:37Z</time>
					</trkpt>
					<trkpt lat="45.810870" lon="4.415770">
						<ele>722</ele>
						<time>2024-08-13T16:25:40Z</time>
					</trkpt>
					<trkpt lat="45.810320" lon="4.415570">
						<ele>723</ele>
						<time>2024-08-13T16:25:50Z</time>
					</trkpt>
					<trkpt lat="45.810090" lon="4.415450">
						<ele>725</ele>
						<time>2024-08-13T16:25:54Z</time>
					</trkpt>
					<trkpt lat="45.809310" lon="4.414760">
						<ele>728</ele>
						<time>2024-08-13T16:26:11Z</time>
					</trkpt>
					<trkpt lat="45.809160" lon="4.414590">
						<ele>727</ele>
						<time>2024-08-13T16:26:14Z</time>
					</trkpt>
					<trkpt lat="45.809060" lon="4.414400">
						<ele>728</ele>
						<time>2024-08-13T16:26:17Z</time>
					</trkpt>
					<trkpt lat="45.809010" lon="4.414200">
						<ele>728</ele>
						<time>2024-08-13T16:26:20Z</time>
					</trkpt>
					<trkpt lat="45.809010" lon="4.414010">
						<ele>728</ele>
						<time>2024-08-13T16:26:22Z</time>
					</trkpt>
					<trkpt lat="45.809040" lon="4.413760">
						<ele>729</ele>
						<time>2024-08-13T16:26:25Z</time>
					</trkpt>
					<trkpt lat="45.809830" lon="4.411100">
						<ele>735</ele>
						<time>2024-08-13T16:27:01Z</time>
					</trkpt>
					<trkpt lat="45.810330" lon="4.410380">
						<ele>735</ele>
						<time>2024-08-13T16:27:14Z</time>
					</trkpt>
					<trkpt lat="45.811940" lon="4.408220">
						<ele>731</ele>
						<time>2024-08-13T16:27:53Z</time>
					</trkpt>
					<trkpt lat="45.812550" lon="4.407110">
						<ele>730</ele>
						<time>2024-08-13T16:28:10Z</time>
					</trkpt>
					<trkpt lat="45.812680" lon="4.406780">
						<ele>732</ele>
						<time>2024-08-13T16:28:15Z</time>
					</trkpt>
					<trkpt lat="45.812750" lon="4.406170">
						<ele>731</ele>
						<time>2024-08-13T16:28:23Z</time>
					</trkpt>
					<trkpt lat="45.812780" lon="4.405590">
						<ele>728</ele>
						<time>2024-08-13T16:28:30Z</time>
					</trkpt>
					<trkpt lat="45.812870" lon="4.405220">
						<ele>727</ele>
						<time>2024-08-13T16:28:35Z</time>
					</trkpt>
					<trkpt lat="45.813020" lon="4.404940">
						<ele>726</ele>
						<time>2024-08-13T16:28:39Z</time>
					</trkpt>
					<trkpt lat="45.813430" lon="4.404650">
						<ele>725</ele>
						<time>2024-08-13T16:28:47Z</time>
					</trkpt>
					<trkpt lat="45.814000" lon="4.404370">
						<ele>721</ele>
						<time>2024-08-13T16:28:58Z</time>
					</trkpt>
					<trkpt lat="45.814180" lon="4.404370">
						<ele>721</ele>
						<time>2024-08-13T16:29:01Z</time>
					</trkpt>
					<trkpt lat="45.814480" lon="4.404470">
						<ele>720</ele>
						<time>2024-08-13T16:29:07Z</time>
					</trkpt>
					<trkpt lat="45.815190" lon="4.404790">
						<ele>722</ele>
						<time>2024-08-13T16:29:20Z</time>
					</trkpt>
					<trkpt lat="45.816660" lon="4.404820">
						<ele>724</ele>
						<time>2024-08-13T16:29:46Z</time>
					</trkpt>
					<trkpt lat="45.817020" lon="4.404860">
						<ele>725</ele>
						<time>2024-08-13T16:29:53Z</time>
					</trkpt>
					<trkpt lat="45.817110" lon="4.404850">
						<ele>725</ele>
						<time>2024-08-13T16:29:54Z</time>
					</trkpt>
					<trkpt lat="45.817130" lon="4.404970">
						<ele>726</ele>
						<time>2024-08-13T16:29:56Z</time>
					</trkpt>
					<trkpt lat="45.817180" lon="4.405050">
						<ele>726</ele>
						<time>2024-08-13T16:29:57Z</time>
					</trkpt>
					<trkpt lat="45.818040" lon="4.405850">
						<ele>719</ele>
						<time>2024-08-13T16:30:15Z</time>
					</trkpt>
					<trkpt lat="45.818260" lon="4.405930">
						<ele>716</ele>
						<time>2024-08-13T16:30:19Z</time>
					</trkpt>
					<trkpt lat="45.818580" lon="4.405940">
						<ele>714</ele>
						<time>2024-08-13T16:30:25Z</time>
					</trkpt>
					<trkpt lat="45.818750" lon="4.405880">
						<ele>714</ele>
						<time>2024-08-13T16:30:28Z</time>
					</trkpt>
					<trkpt lat="45.818930" lon="4.405740">
						<ele>714</ele>
						<time>2024-08-13T16:30:32Z</time>
					</trkpt>
					<trkpt lat="45.819370" lon="4.405180">
						<ele>715</ele>
						<time>2024-08-13T16:30:42Z</time>
					</trkpt>
					<trkpt lat="45.819590" lon="4.405020">
						<ele>714</ele>
						<time>2024-08-13T16:30:47Z</time>
					</trkpt>
					<trkpt lat="45.819810" lon="4.404950">
						<ele>712</ele>
						<time>2024-08-13T16:30:51Z</time>
					</trkpt>
					<trkpt lat="45.820080" lon="4.404950">
						<ele>709</ele>
						<time>2024-08-13T16:30:55Z</time>
					</trkpt>
					<trkpt lat="45.820330" lon="4.405060">
						<ele>705</ele>
						<time>2024-08-13T16:31:00Z</time>
					</trkpt>
					<trkpt lat="45.820560" lon="4.405230">
						<ele>702</ele>
						<time>2024-08-13T16:31:05Z</time>
					</trkpt>
					<trkpt lat="45.820730" lon="4.405290">
						<ele>700</ele>
						<time>2024-08-13T16:31:08Z</time>
					</trkpt>
					<trkpt lat="45.820820" lon="4.405280">
						<ele>700</ele>
						<time>2024-08-13T16:31:09Z</time>
					</trkpt>
					<trkpt lat="45.820920" lon="4.405200">
						<ele>699</ele>
						<time>2024-08-13T16:31:11Z</time>
					</trkpt>
					<trkpt lat="45.821350" lon="4.404290">
						<ele>704</ele>
						<time>2024-08-13T16:31:25Z</time>
					</trkpt>
					<trkpt lat="45.821490" lon="4.404110">
						<ele>702</ele>
						<time>2024-08-13T16:31:28Z</time>
					</trkpt>
					<trkpt lat="45.821660" lon="4.403950">
						<ele>700</ele>
						<time>2024-08-13T16:31:32Z</time>
					</trkpt>
					<trkpt lat="45.822500" lon="4.403280">
						<ele>695</ele>
						<time>2024-08-13T16:31:49Z</time>
					</trkpt>
					<trkpt lat="45.822610" lon="4.403240">
						<ele>696</ele>
						<time>2024-08-13T16:31:51Z</time>
					</trkpt>
					<trkpt lat="45.822710" lon="4.403240">
						<ele>697</ele>
						<time>2024-08-13T16:31:53Z</time>
					</trkpt>
					<trkpt lat="45.822820" lon="4.403280">
						<ele>697</ele>
						<time>2024-08-13T16:31:55Z</time>
					</trkpt>
					<trkpt lat="45.822920" lon="4.403370">
						<ele>697</ele>
						<time>2024-08-13T16:31:57Z</time>
					</trkpt>
					<trkpt lat="45.823730" lon="4.404360">
						<ele>690</ele>
						<time>2024-08-13T16:32:16Z</time>
					</trkpt>
					<trkpt lat="45.823920" lon="4.404480">
						<ele>689</ele>
						<time>2024-08-13T16:32:20Z</time>
					</trkpt>
					<trkpt lat="45.824160" lon="4.404560">
						<ele>689</ele>
						<time>2024-08-13T16:32:24Z</time>
					</trkpt>
					<trkpt lat="45.824300" lon="4.404640">
						<ele>689</ele>
						<time>2024-08-13T16:32:27Z</time>
					</trkpt>
					<trkpt lat="45.824390" lon="4.404730">
						<ele>688</ele>
						<time>2024-08-13T16:32:29Z</time>
					</trkpt>
					<trkpt lat="45.824480" lon="4.404880">
						<ele>686</ele>
						<time>2024-08-13T16:32:31Z</time>
					</trkpt>
					<trkpt lat="45.824600" lon="4.405250">
						<ele>682</ele>
						<time>2024-08-13T16:32:36Z</time>
					</trkpt>
					<trkpt lat="45.825040" lon="4.406960">
						<ele>673</ele>
						<time>2024-08-13T16:32:59Z</time>
					</trkpt>
					<trkpt lat="45.825090" lon="4.407290">
						<ele>672</ele>
						<time>2024-08-13T16:33:03Z</time>
					</trkpt>
					<trkpt lat="45.825090" lon="4.407740">
						<ele>671</ele>
						<time>2024-08-13T16:33:09Z</time>
					</trkpt>
					<trkpt lat="45.824850" lon="4.409350">
						<ele>663</ele>
						<time>2024-08-13T16:33:29Z</time>
					</trkpt>
					<trkpt lat="45.824850" lon="4.409720">
						<ele>661</ele>
						<time>2024-08-13T16:33:34Z</time>
					</trkpt>
					<trkpt lat="45.824930" lon="4.410090">
						<ele>660</ele>
						<time>2024-08-13T16:33:38Z</time>
					</trkpt>
					<trkpt lat="45.825110" lon="4.410460">
						<ele>658</ele>
						<time>2024-08-13T16:33:44Z</time>
					</trkpt>
					<trkpt lat="45.825340" lon="4.410690">
						<ele>656</ele>
						<time>2024-08-13T16:33:49Z</time>
					</trkpt>
					<trkpt lat="45.825500" lon="4.410740">
						<ele>656</ele>
						<time>2024-08-13T16:33:52Z</time>
					</trkpt>
					<trkpt lat="45.825620" lon="4.410770">
						<ele>656</ele>
						<time>2024-08-13T16:33:54Z</time>
					</trkpt>
					<trkpt lat="45.826610" lon="4.410830">
						<ele>651</ele>
						<time>2024-08-13T16:34:12Z</time>
					</trkpt>
					<trkpt lat="45.826740" lon="4.410910">
						<ele>651</ele>
						<time>2024-08-13T16:34:14Z</time>
					</trkpt>
					<trkpt lat="45.826830" lon="4.411040">
						<ele>651</ele>
						<time>2024-08-13T16:34:17Z</time>
					</trkpt>
					<trkpt lat="45.826910" lon="4.411360">
						<ele>650</ele>
						<time>2024-08-13T16:34:21Z</time>
					</trkpt>
					<trkpt lat="45.826950" lon="4.411770">
						<ele>647</ele>
						<time>2024-08-13T16:34:26Z</time>
					</trkpt>
					<trkpt lat="45.827000" lon="4.412020">
						<ele>644</ele>
						<time>2024-08-13T16:34:29Z</time>
					</trkpt>
					<trkpt lat="45.827090" lon="4.412180">
						<ele>642</ele>
						<time>2024-08-13T16:34:32Z</time>
					</trkpt>
					<trkpt lat="45.827300" lon="4.412300">
						<ele>640</ele>
						<time>2024-08-13T16:34:36Z</time>
					</trkpt>
					<trkpt lat="45.827400" lon="4.412300">
						<ele>640</ele>
						<time>2024-08-13T16:34:37Z</time>
					</trkpt>
					<trkpt lat="45.827550" lon="4.412240">
						<ele>640</ele>
						<time>2024-08-13T16:34:40Z</time>
					</trkpt>
					<trkpt lat="45.828650" lon="4.411720">
						<ele>637</ele>
						<time>2024-08-13T16:35:01Z</time>
					</trkpt>
					<trkpt lat="45.828810" lon="4.411690">
						<ele>637</ele>
						<time>2024-08-13T16:35:04Z</time>
					</trkpt>
					<trkpt lat="45.829010" lon="4.411770">
						<ele>636</ele>
						<time>2024-08-13T16:35:07Z</time>
					</trkpt>
					<trkpt lat="45.829070" lon="4.411830">
						<ele>635</ele>
						<time>2024-08-13T16:35:09Z</time>
					</trkpt>
					<trkpt lat="45.829170" lon="4.412080">
						<ele>635</ele>
						<time>2024-08-13T16:35:12Z</time>
					</trkpt>
					<trkpt lat="45.829160" lon="4.412230">
						<ele>635</ele>
						<time>2024-08-13T16:35:14Z</time>
					</trkpt>
					<trkpt lat="45.828780" lon="4.413590">
						<ele>630</ele>
						<time>2024-08-13T16:35:32Z</time>
					</trkpt>
					<trkpt lat="45.828720" lon="4.414060">
						<ele>627</ele>
						<time>2024-08-13T16:35:38Z</time>
					</trkpt>
					<trkpt lat="45.828730" lon="4.414440">
						<ele>624</ele>
						<time>2024-08-13T16:35:43Z</time>
					</trkpt>
					<trkpt lat="45.828780" lon="4.414660">
						<ele>623</ele>
						<time>2024-08-13T16:35:46Z</time>
					</trkpt>
					<trkpt lat="45.828850" lon="4.414810">
						<ele>622</ele>
						<time>2024-08-13T16:35:48Z</time>
					</trkpt>
					<trkpt lat="45.829000" lon="4.415020">
						<ele>622</ele>
						<time>2024-08-13T16:35:52Z</time>
					</trkpt>
					<trkpt lat="45.829600" lon="4.415510">
						<ele>618</ele>
						<time>2024-08-13T16:36:04Z</time>
					</trkpt>
					<trkpt lat="45.829770" lon="4.415610">
						<ele>617</ele>
						<time>2024-08-13T16:36:07Z</time>
					</trkpt>
					<trkpt lat="45.829910" lon="4.415670">
						<ele>616</ele>
						<time>2024-08-13T16:36:10Z</time>
					</trkpt>
					<trkpt lat="45.830040" lon="4.415670">
						<ele>616</ele>
						<time>2024-08-13T16:36:12Z</time>
					</trkpt>
					<trkpt lat="45.830810" lon="4.415540">
						<ele>618</ele>
						<time>2024-08-13T16:36:26Z</time>
					</trkpt>
					<trkpt lat="45.831100" lon="4.415580">
						<ele>617</ele>
						<time>2024-08-13T16:36:31Z</time>
					</trkpt>
					<trkpt lat="45.831270" lon="4.415750">
						<ele>615</ele>
						<time>2024-08-13T16:36:35Z</time>
					</trkpt>
					<trkpt lat="45.831360" lon="4.416000">
						<ele>614</ele>
						<time>2024-08-13T16:36:38Z</time>
					</trkpt>
					<trkpt lat="45.831350" lon="4.416340">
						<ele>615</ele>
						<time>2024-08-13T16:36:43Z</time>
					</trkpt>
					<trkpt lat="45.831220" lon="4.416580">
						<ele>614</ele>
						<time>2024-08-13T16:36:46Z</time>
					</trkpt>
					<trkpt lat="45.831030" lon="4.416760">
						<ele>612</ele>
						<time>2024-08-13T16:36:50Z</time>
					</trkpt>
					<trkpt lat="45.829540" lon="4.417740">
						<ele>603</ele>
						<time>2024-08-13T16:37:20Z</time>
					</trkpt>
					<trkpt lat="45.828830" lon="4.418330">
						<ele>600</ele>
						<time>2024-08-13T16:37:34Z</time>
					</trkpt>
					<trkpt lat="45.828530" lon="4.418670">
						<ele>599</ele>
						<time>2024-08-13T16:37:41Z</time>
					</trkpt>
					<trkpt lat="45.827970" lon="4.419810">
						<ele>597</ele>
						<time>2024-08-13T16:37:58Z</time>
					</trkpt>
					<trkpt lat="45.827470" lon="4.421090">
						<ele>591</ele>
						<time>2024-08-13T16:38:16Z</time>
					</trkpt>
					<trkpt lat="45.827470" lon="4.421440">
						<ele>593</ele>
						<time>2024-08-13T16:38:21Z</time>
					</trkpt>
					<trkpt lat="45.827650" lon="4.422470">
						<ele>594</ele>
						<time>2024-08-13T16:38:34Z</time>
					</trkpt>
					<trkpt lat="45.827650" lon="4.422800">
						<ele>594</ele>
						<time>2024-08-13T16:38:38Z</time>
					</trkpt>
					<trkpt lat="45.827580" lon="4.423340">
						<ele>590</ele>
						<time>2024-08-13T16:38:45Z</time>
					</trkpt>
					<trkpt lat="45.827600" lon="4.423640">
						<ele>590</ele>
						<time>2024-08-13T16:38:49Z</time>
					</trkpt>
					<trkpt lat="45.827740" lon="4.424160">
						<ele>591</ele>
						<time>2024-08-13T16:38:56Z</time>
					</trkpt>
					<trkpt lat="45.828010" lon="4.424970">
						<ele>583</ele>
						<time>2024-08-13T16:39:07Z</time>
					</trkpt>
					<trkpt lat="45.828260" lon="4.425270">
						<ele>579</ele>
						<time>2024-08-13T16:39:12Z</time>
					</trkpt>
					<trkpt lat="45.828420" lon="4.425330">
						<ele>579</ele>
						<time>2024-08-13T16:39:15Z</time>
					</trkpt>
					<trkpt lat="45.828810" lon="4.425600">
						<ele>581</ele>
						<time>2024-08-13T16:39:23Z</time>
					</trkpt>
					<trkpt lat="45.830150" lon="4.426830">
						<ele>573</ele>
						<time>2024-08-13T16:39:51Z</time>
					</trkpt>
					<trkpt lat="45.830570" lon="4.427030">
						<ele>571</ele>
						<time>2024-08-13T16:39:59Z</time>
					</trkpt>
					<trkpt lat="45.831020" lon="4.426940">
						<ele>574</ele>
						<time>2024-08-13T16:40:07Z</time>
					</trkpt>
					<trkpt lat="45.831210" lon="4.426870">
						<ele>576</ele>
						<time>2024-08-13T16:40:11Z</time>
					</trkpt>
					<trkpt lat="45.831380" lon="4.426990">
						<ele>573</ele>
						<time>2024-08-13T16:40:14Z</time>
					</trkpt>
					<trkpt lat="45.831470" lon="4.427110">
						<ele>570</ele>
						<time>2024-08-13T16:40:16Z</time>
					</trkpt>
					<trkpt lat="45.831870" lon="4.427970">
						<ele>566</ele>
						<time>2024-08-13T16:40:29Z</time>
					</trkpt>
					<trkpt lat="45.831940" lon="4.428350">
						<ele>565</ele>
						<time>2024-08-13T16:40:34Z</time>
					</trkpt>
					<trkpt lat="45.831950" lon="4.428860">
						<ele>563</ele>
						<time>2024-08-13T16:40:40Z</time>
					</trkpt>
					<trkpt lat="45.832040" lon="4.429270">
						<ele>563</ele>
						<time>2024-08-13T16:40:46Z</time>
					</trkpt>
					<trkpt lat="45.832170" lon="4.429640">
						<ele>559</ele>
						<time>2024-08-13T16:40:51Z</time>
					</trkpt>
					<trkpt lat="45.832320" lon="4.429860">
						<ele>555</ele>
						<time>2024-08-13T16:40:55Z</time>
					</trkpt>
					<trkpt lat="45.832750" lon="4.430400">
						<ele>551</ele>
						<time>2024-08-13T16:41:05Z</time>
					</trkpt>
					<trkpt lat="45.832940" lon="4.430590">
						<ele>551</ele>
						<time>2024-08-13T16:41:09Z</time>
					</trkpt>
					<trkpt lat="45.833420" lon="4.431220">
						<ele>544</ele>
						<time>2024-08-13T16:41:21Z</time>
					</trkpt>
					<trkpt lat="45.833710" lon="4.431750">
						<ele>539</ele>
						<time>2024-08-13T16:41:29Z</time>
					</trkpt>
					<trkpt lat="45.834040" lon="4.432140">
						<ele>537</ele>
						<time>2024-08-13T16:41:37Z</time>
					</trkpt>
					<trkpt lat="45.834210" lon="4.432300">
						<ele>533</ele>
						<time>2024-08-13T16:41:40Z</time>
					</trkpt>
					<trkpt lat="45.834540" lon="4.432480">
						<ele>533</ele>
						<time>2024-08-13T16:41:46Z</time>
					</trkpt>
					<trkpt lat="45.834610" lon="4.432560">
						<ele>533</ele>
						<time>2024-08-13T16:41:48Z</time>
					</trkpt>
					<trkpt lat="45.834780" lon="4.432900">
						<ele>532</ele>
						<time>2024-08-13T16:41:53Z</time>
					</trkpt>
					<trkpt lat="45.835040" lon="4.433240">
						<ele>529</ele>
						<time>2024-08-13T16:41:59Z</time>
					</trkpt>
					<trkpt lat="45.835370" lon="4.433930">
						<ele>532</ele>
						<time>2024-08-13T16:42:10Z</time>
					</trkpt>
					<trkpt lat="45.835430" lon="4.434140">
						<ele>532</ele>
						<time>2024-08-13T16:42:13Z</time>
					</trkpt>
					<trkpt lat="45.835450" lon="4.434570">
						<ele>531</ele>
						<time>2024-08-13T16:42:18Z</time>
					</trkpt>
					<trkpt lat="45.835430" lon="4.434890">
						<ele>530</ele>
						<time>2024-08-13T16:42:22Z</time>
					</trkpt>
					<trkpt lat="45.835230" lon="4.436150">
						<ele>524</ele>
						<time>2024-08-13T16:42:38Z</time>
					</trkpt>
					<trkpt lat="45.835240" lon="4.436760">
						<ele>522</ele>
						<time>2024-08-13T16:42:46Z</time>
					</trkpt>
					<trkpt lat="45.835210" lon="4.437330">
						<ele>521</ele>
						<time>2024-08-13T16:42:53Z</time>
					</trkpt>
					<trkpt lat="45.835100" lon="4.437940">
						<ele>517</ele>
						<time>2024-08-13T16:43:00Z</time>
					</trkpt>
					<trkpt lat="45.835030" lon="4.438170">
						<ele>515</ele>
						<time>2024-08-13T16:43:04Z</time>
					</trkpt>
					<trkpt lat="45.834660" lon="4.438980">
						<ele>510</ele>
						<time>2024-08-13T16:43:16Z</time>
					</trkpt>
					<trkpt lat="45.834480" lon="4.439430">
						<ele>504</ele>
						<time>2024-08-13T16:43:22Z</time>
					</trkpt>
					<trkpt lat="45.834380" lon="4.439920">
						<ele>500</ele>
						<time>2024-08-13T16:43:28Z</time>
					</trkpt>
					<trkpt lat="45.834400" lon="4.440150">
						<ele>499</ele>
						<time>2024-08-13T16:43:31Z</time>
					</trkpt>
					<trkpt lat="45.834540" lon="4.440530">
						<ele>499</ele>
						<time>2024-08-13T16:43:37Z</time>
					</trkpt>
					<trkpt lat="45.836340" lon="4.443980">
						<ele>493</ele>
						<time>2024-08-13T16:44:30Z</time>
					</trkpt>
					<trkpt lat="45.836560" lon="4.444460">
						<ele>493</ele>
						<time>2024-08-13T16:44:37Z</time>
					</trkpt>
					<trkpt lat="45.836630" lon="4.444740">
						<ele>491</ele>
						<time>2024-08-13T16:44:41Z</time>
					</trkpt>
					<trkpt lat="45.836750" lon="4.445840">
						<ele>489</ele>
						<time>2024-08-13T16:44:55Z</time>
					</trkpt>
					<trkpt lat="45.836850" lon="4.446130">
						<ele>486</ele>
						<time>2024-08-13T16:44:59Z</time>
					</trkpt>
					<trkpt lat="45.837090" lon="4.446450">
						<ele>485</ele>
						<time>2024-08-13T16:45:04Z</time>
					</trkpt>
					<trkpt lat="45.837910" lon="4.446950">
						<ele>482</ele>
						<time>2024-08-13T16:45:20Z</time>
					</trkpt>
					<trkpt lat="45.838090" lon="4.447090">
						<ele>481</ele>
						<time>2024-08-13T16:45:24Z</time>
					</trkpt>
					<trkpt lat="45.838270" lon="4.447320">
						<ele>478</ele>
						<time>2024-08-13T16:45:28Z</time>
					</trkpt>
					<trkpt lat="45.838690" lon="4.448360">
						<ele>473</ele>
						<time>2024-08-13T16:45:43Z</time>
					</trkpt>
					<trkpt lat="45.838830" lon="4.448500">
						<ele>474</ele>
						<time>2024-08-13T16:45:46Z</time>
					</trkpt>
					<trkpt lat="45.839080" lon="4.448660">
						<ele>474</ele>
						<time>2024-08-13T16:45:51Z</time>
					</trkpt>
					<trkpt lat="45.840050" lon="4.448790">
						<ele>477</ele>
						<time>2024-08-13T16:46:08Z</time>
					</trkpt>
					<trkpt lat="45.840180" lon="4.448830">
						<ele>477</ele>
						<time>2024-08-13T16:46:11Z</time>
					</trkpt>
					<trkpt lat="45.840330" lon="4.448920">
						<ele>477</ele>
						<time>2024-08-13T16:46:14Z</time>
					</trkpt>
					<trkpt lat="45.840590" lon="4.449180">
						<ele>473</ele>
						<time>2024-08-13T16:46:19Z</time>
					</trkpt>
					<trkpt lat="45.841260" lon="4.450180">
						<ele>477</ele>
						<time>2024-08-13T16:46:36Z</time>
					</trkpt>
					<trkpt lat="45.841410" lon="4.450510">
						<ele>478</ele>
						<time>2024-08-13T16:46:41Z</time>
					</trkpt>
					<trkpt lat="45.841510" lon="4.451150">
						<ele>476</ele>
						<time>2024-08-13T16:46:49Z</time>
					</trkpt>
					<trkpt lat="45.841430" lon="4.452860">
						<ele>466</ele>
						<time>2024-08-13T16:47:11Z</time>
					</trkpt>
					<trkpt lat="45.841510" lon="4.453260">
						<ele>464</ele>
						<time>2024-08-13T16:47:16Z</time>
					</trkpt>
					<trkpt lat="45.841580" lon="4.453480">
						<ele>461</ele>
						<time>2024-08-13T16:47:19Z</time>
					</trkpt>
					<trkpt lat="45.841680" lon="4.453680">
						<ele>459</ele>
						<time>2024-08-13T16:47:22Z</time>
					</trkpt>
					<trkpt lat="45.841830" lon="4.453880">
						<ele>459</ele>
						<time>2024-08-13T16:47:26Z</time>
					</trkpt>
					<trkpt lat="45.841960" lon="4.454010">
						<ele>458</ele>
						<time>2024-08-13T16:47:28Z</time>
					</trkpt>
					<trkpt lat="45.842110" lon="4.454130">
						<ele>457</ele>
						<time>2024-08-13T16:47:31Z</time>
					</trkpt>
					<trkpt lat="45.843230" lon="4.454710">
						<ele>456</ele>
						<time>2024-08-13T16:47:53Z</time>
					</trkpt>
					<trkpt lat="45.844090" lon="4.455300">
						<ele>454</ele>
						<time>2024-08-13T16:48:10Z</time>
					</trkpt>
					<trkpt lat="45.844850" lon="4.455630">
						<ele>452</ele>
						<time>2024-08-13T16:48:24Z</time>
					</trkpt>
					<trkpt lat="45.845670" lon="4.456110">
						<ele>453</ele>
						<time>2024-08-13T16:48:39Z</time>
					</trkpt>
					<trkpt lat="45.845900" lon="4.456290">
						<ele>451</ele>
						<time>2024-08-13T16:48:44Z</time>
					</trkpt>
					<trkpt lat="45.846640" lon="4.456630">
						<ele>450</ele>
						<time>2024-08-13T16:48:58Z</time>
					</trkpt>
					<trkpt lat="45.846770" lon="4.456730">
						<ele>451</ele>
						<time>2024-08-13T16:49:01Z</time>
					</trkpt>
					<trkpt lat="45.846960" lon="4.456940">
						<ele>452</ele>
						<time>2024-08-13T16:49:05Z</time>
					</trkpt>
					<trkpt lat="45.847040" lon="4.457100">
						<ele>451</ele>
						<time>2024-08-13T16:49:07Z</time>
					</trkpt>
					<trkpt lat="45.847150" lon="4.457430">
						<ele>446</ele>
						<time>2024-08-13T16:49:12Z</time>
					</trkpt>
					<trkpt lat="45.847380" lon="4.458350">
						<ele>432</ele>
						<time>2024-08-13T16:49:24Z</time>
					</trkpt>
					<trkpt lat="45.847470" lon="4.458550">
						<ele>429</ele>
						<time>2024-08-13T16:49:27Z</time>
					</trkpt>
					<trkpt lat="45.847660" lon="4.458840">
						<ele>427</ele>
						<time>2024-08-13T16:49:32Z</time>
					</trkpt>
					<trkpt lat="45.847780" lon="4.458970">
						<ele>426</ele>
						<time>2024-08-13T16:49:34Z</time>
					</trkpt>
					<trkpt lat="45.847950" lon="4.459100">
						<ele>424</ele>
						<time>2024-08-13T16:49:38Z</time>
					</trkpt>
					<trkpt lat="45.848110" lon="4.459170">
						<ele>423</ele>
						<time>2024-08-13T16:49:41Z</time>
					</trkpt>
					<trkpt lat="45.848850" lon="4.459290">
						<ele>423</ele>
						<time>2024-08-13T16:49:54Z</time>
					</trkpt>
					<trkpt lat="45.849640" lon="4.459310">
						<ele>424</ele>
						<time>2024-08-13T16:50:08Z</time>
					</trkpt>
					<trkpt lat="45.849920" lon="4.459350">
						<ele>425</ele>
						<time>2024-08-13T16:50:13Z</time>
					</trkpt>
					<trkpt lat="45.850230" lon="4.459520">
						<ele>427</ele>
						<time>2024-08-13T16:50:19Z</time>
					</trkpt>
					<trkpt lat="45.850360" lon="4.459620">
						<ele>427</ele>
						<time>2024-08-13T16:50:22Z</time>
					</trkpt>
					<trkpt lat="45.850650" lon="4.459960">
						<ele>423</ele>
						<time>2024-08-13T16:50:28Z</time>
					</trkpt>
					<trkpt lat="45.851090" lon="4.460550">
						<ele>424</ele>
						<time>2024-08-13T16:50:39Z</time>
					</trkpt>
					<trkpt lat="45.851490" lon="4.460890">
						<ele>424</ele>
						<time>2024-08-13T16:50:47Z</time>
					</trkpt>
					<trkpt lat="45.852030" lon="4.461250">
						<ele>426</ele>
						<time>2024-08-13T16:50:58Z</time>
					</trkpt>
					<trkpt lat="45.852990" lon="4.462280">
						<ele>423</ele>
						<time>2024-08-13T16:51:19Z</time>
					</trkpt>
					<trkpt lat="45.853050" lon="4.462410">
						<ele>421</ele>
						<time>2024-08-13T16:51:21Z</time>
					</trkpt>
					<trkpt lat="45.853430" lon="4.463580">
						<ele>412</ele>
						<time>2024-08-13T16:51:37Z</time>
					</trkpt>
					<trkpt lat="45.853480" lon="4.463670">
						<ele>412</ele>
						<time>2024-08-13T16:51:39Z</time>
					</trkpt>
					<trkpt lat="45.853600" lon="4.463800">
						<ele>412</ele>
						<time>2024-08-13T16:51:41Z</time>
					</trkpt>
					<trkpt lat="45.853790" lon="4.463820">
						<ele>412</ele>
						<time>2024-08-13T16:51:45Z</time>
					</trkpt>
					<trkpt lat="45.854410" lon="4.463650">
						<ele>416</ele>
						<time>2024-08-13T16:51:56Z</time>
					</trkpt>
					<trkpt lat="45.854700" lon="4.463620">
						<ele>417</ele>
						<time>2024-08-13T16:52:01Z</time>
					</trkpt>
					<trkpt lat="45.855330" lon="4.463850">
						<ele>412</ele>
						<time>2024-08-13T16:52:13Z</time>
					</trkpt>
					<trkpt lat="45.855510" lon="4.463870">
						<ele>412</ele>
						<time>2024-08-13T16:52:16Z</time>
					</trkpt>
					<trkpt lat="45.855960" lon="4.463860">
						<ele>414</ele>
						<time>2024-08-13T16:52:24Z</time>
					</trkpt>
					<trkpt lat="45.856110" lon="4.463890">
						<ele>414</ele>
						<time>2024-08-13T16:52:27Z</time>
					</trkpt>
					<trkpt lat="45.856190" lon="4.463950">
						<ele>412</ele>
						<time>2024-08-13T16:52:28Z</time>
					</trkpt>
					<trkpt lat="45.857340" lon="4.465490">
						<ele>397</ele>
						<time>2024-08-13T16:52:56Z</time>
					</trkpt>
					<trkpt lat="45.857660" lon="4.465810">
						<ele>396</ele>
						<time>2024-08-13T16:53:03Z</time>
					</trkpt>
					<trkpt lat="45.857900" lon="4.466140">
						<ele>396</ele>
						<time>2024-08-13T16:53:09Z</time>
					</trkpt>
					<trkpt lat="45.858080" lon="4.466470">
						<ele>394</ele>
						<time>2024-08-13T16:53:14Z</time>
					</trkpt>
					<trkpt lat="45.858210" lon="4.466630">
						<ele>392</ele>
						<time>2024-08-13T16:53:17Z</time>
					</trkpt>
					<trkpt lat="45.858970" lon="4.467220">
						<ele>388</ele>
						<time>2024-08-13T16:53:33Z</time>
					</trkpt>
					<trkpt lat="45.859200" lon="4.467440">
						<ele>387</ele>
						<time>2024-08-13T16:53:38Z</time>
					</trkpt>
					<trkpt lat="45.859540" lon="4.467850">
						<ele>390</ele>
						<time>2024-08-13T16:53:45Z</time>
					</trkpt>
					<trkpt lat="45.859580" lon="4.468010">
						<ele>390</ele>
						<time>2024-08-13T16:53:48Z</time>
					</trkpt>
					<trkpt lat="45.859790" lon="4.470170">
						<ele>385</ele>
						<time>2024-08-13T16:54:15Z</time>
					</trkpt>
					<trkpt lat="45.859820" lon="4.470860">
						<ele>386</ele>
						<time>2024-08-13T16:54:23Z</time>
					</trkpt>
					<trkpt lat="45.859800" lon="4.471210">
						<ele>387</ele>
						<time>2024-08-13T16:54:28Z</time>
					</trkpt>
					<trkpt lat="45.859650" lon="4.472030">
						<ele>390</ele>
						<time>2024-08-13T16:54:38Z</time>
					</trkpt>
					<trkpt lat="45.859570" lon="4.472180">
						<ele>390</ele>
						<time>2024-08-13T16:54:40Z</time>
					</trkpt>
					<trkpt lat="45.859120" lon="4.472810">
						<ele>390</ele>
						<time>2024-08-13T16:54:52Z</time>
					</trkpt>
					<trkpt lat="45.858930" lon="4.473500">
						<ele>390</ele>
						<time>2024-08-13T16:55:01Z</time>
					</trkpt>
					<trkpt lat="45.859100" lon="4.474250">
						<ele>396</ele>
						<time>2024-08-13T16:55:11Z</time>
					</trkpt>
					<trkpt lat="45.859040" lon="4.475030">
						<ele>398</ele>
						<time>2024-08-13T16:55:20Z</time>
					</trkpt>
					<trkpt lat="45.859270" lon="4.476460">
						<ele>403</ele>
						<time>2024-08-13T16:55:38Z</time>
					</trkpt>
					<trkpt lat="45.859520" lon="4.477280">
						<ele>403</ele>
						<time>2024-08-13T16:55:50Z</time>
					</trkpt>
					<trkpt lat="45.859680" lon="4.477690">
						<ele>402</ele>
						<time>2024-08-13T16:55:55Z</time>
					</trkpt>
					<trkpt lat="45.860040" lon="4.478390">
						<ele>399</ele>
						<time>2024-08-13T16:56:06Z</time>
					</trkpt>
					<trkpt lat="45.860500" lon="4.478920">
						<ele>402</ele>
						<time>2024-08-13T16:56:17Z</time>
					</trkpt>
					<trkpt lat="45.860750" lon="4.479590">
						<ele>399</ele>
						<time>2024-08-13T16:56:26Z</time>
					</trkpt>
					<trkpt lat="45.860850" lon="4.479760">
						<ele>399</ele>
						<time>2024-08-13T16:56:29Z</time>
					</trkpt>
					<trkpt lat="45.861010" lon="4.479980">
						<ele>400</ele>
						<time>2024-08-13T16:56:33Z</time>
					</trkpt>
					<trkpt lat="45.862290" lon="4.481520">
						<ele>397</ele>
						<time>2024-08-13T16:57:02Z</time>
					</trkpt>
					<trkpt lat="45.862720" lon="4.481890">
						<ele>396</ele>
						<time>2024-08-13T16:57:11Z</time>
					</trkpt>
					<trkpt lat="45.863380" lon="4.482280">
						<ele>394</ele>
						<time>2024-08-13T16:57:24Z</time>
					</trkpt>
					<trkpt lat="45.863710" lon="4.482830">
						<ele>388</ele>
						<time>2024-08-13T16:57:33Z</time>
					</trkpt>
					<trkpt lat="45.863910" lon="4.483000">
						<ele>386</ele>
						<time>2024-08-13T16:57:37Z</time>
					</trkpt>
					<trkpt lat="45.864210" lon="4.483150">
						<ele>385</ele>
						<time>2024-08-13T16:57:43Z</time>
					</trkpt>
					<trkpt lat="45.864480" lon="4.483190">
						<ele>383</ele>
						<time>2024-08-13T16:57:48Z</time>
					</trkpt>
					<trkpt lat="45.866050" lon="4.483020">
						<ele>382</ele>
						<time>2024-08-13T16:58:16Z</time>
					</trkpt>
					<trkpt lat="45.866280" lon="4.483040">
						<ele>380</ele>
						<time>2024-08-13T16:58:20Z</time>
					</trkpt>
					<trkpt lat="45.866910" lon="4.483410">
						<ele>376</ele>
						<time>2024-08-13T16:58:32Z</time>
					</trkpt>
					<trkpt lat="45.867100" lon="4.483600">
						<ele>375</ele>
						<time>2024-08-13T16:58:36Z</time>
					</trkpt>
					<trkpt lat="45.867430" lon="4.484290">
						<ele>370</ele>
						<time>2024-08-13T16:58:46Z</time>
					</trkpt>
					<trkpt lat="45.867740" lon="4.484760">
						<ele>366</ele>
						<time>2024-08-13T16:58:54Z</time>
					</trkpt>
					<trkpt lat="45.867900" lon="4.484940">
						<ele>365</ele>
						<time>2024-08-13T16:58:58Z</time>
					</trkpt>
					<trkpt lat="45.868230" lon="4.485220">
						<ele>362</ele>
						<time>2024-08-13T16:59:05Z</time>
					</trkpt>
					<trkpt lat="45.869050" lon="4.485830">
						<ele>360</ele>
						<time>2024-08-13T16:59:21Z</time>
					</trkpt>
					<trkpt lat="45.869190" lon="4.485960">
						<ele>360</ele>
						<time>2024-08-13T16:59:24Z</time>
					</trkpt>
					<trkpt lat="45.870030" lon="4.487100">
						<ele>355</ele>
						<time>2024-08-13T16:59:45Z</time>
					</trkpt>
					<trkpt lat="45.870130" lon="4.487190">
						<ele>355</ele>
						<time>2024-08-13T16:59:47Z</time>
					</trkpt>
					<trkpt lat="45.871420" lon="4.488070">
						<ele>347</ele>
						<time>2024-08-13T17:00:12Z</time>
					</trkpt>
					<trkpt lat="45.871850" lon="4.488410">
						<ele>343</ele>
						<time>2024-08-13T17:00:21Z</time>
					</trkpt>
					<trkpt lat="45.872870" lon="4.489130">
						<ele>337</ele>
						<time>2024-08-13T17:00:41Z</time>
					</trkpt>
					<trkpt lat="45.873100" lon="4.489280">
						<ele>336</ele>
						<time>2024-08-13T17:00:46Z</time>
					</trkpt>
					<trkpt lat="45.873810" lon="4.489650">
						<ele>333</ele>
						<time>2024-08-13T17:00:59Z</time>
					</trkpt>
					<trkpt lat="45.873910" lon="4.489770">
						<ele>333</ele>
						<time>2024-08-13T17:01:02Z</time>
					</trkpt>
					<trkpt lat="45.873990" lon="4.490250">
						<ele>333</ele>
						<time>2024-08-13T17:01:08Z</time>
					</trkpt>
					<trkpt lat="45.873970" lon="4.490580">
						<ele>332</ele>
						<time>2024-08-13T17:01:12Z</time>
					</trkpt>
					<trkpt lat="45.873900" lon="4.491000">
						<ele>332</ele>
						<time>2024-08-13T17:01:17Z</time>
					</trkpt>
					<trkpt lat="45.873580" lon="4.492290">
						<ele>334</ele>
						<time>2024-08-13T17:01:34Z</time>
					</trkpt>
					<trkpt lat="45.873670" lon="4.492320">
						<ele>334</ele>
						<time>2024-08-13T17:01:36Z</time>
					</trkpt>
					<trkpt lat="45.873780" lon="4.491900">
						<ele>333</ele>
						<time>2024-08-13T17:01:41Z</time>
					</trkpt>
					<trkpt lat="45.873670" lon="4.492320">
						<ele>334</ele>
						<time>2024-08-13T17:01:47Z</time>
					</trkpt>
					<trkpt lat="45.873580" lon="4.492290">
						<ele>334</ele>
						<time>2024-08-13T17:01:48Z</time>
					</trkpt>
					<trkpt lat="45.872870" lon="4.495430">
						<ele>334</ele>
						<time>2024-08-13T17:02:29Z</time>
					</trkpt>
					<trkpt lat="45.872630" lon="4.496070">
						<ele>334</ele>
						<time>2024-08-13T17:02:38Z</time>
					</trkpt>
					<trkpt lat="45.872590" lon="4.496140">
						<ele>334</ele>
						<time>2024-08-13T17:02:39Z</time>
					</trkpt>
					<trkpt lat="45.872520" lon="4.496190">
						<ele>335</ele>
						<time>2024-08-13T17:02:41Z</time>
					</trkpt>
					<trkpt lat="45.871910" lon="4.496410">
						<ele>340</ele>
						<time>2024-08-13T17:02:52Z</time>
					</trkpt>
					<trkpt lat="45.871830" lon="4.496480">
						<ele>341</ele>
						<time>2024-08-13T17:02:54Z</time>
					</trkpt>
					<trkpt lat="45.871750" lon="4.496620">
						<ele>341</ele>
						<time>2024-08-13T17:02:56Z</time>
					</trkpt>
					<trkpt lat="45.871720" lon="4.496720">
						<ele>341</ele>
						<time>2024-08-13T17:02:57Z</time>
					</trkpt>
					<trkpt lat="45.871720" lon="4.496900">
						<ele>341</ele>
						<time>2024-08-13T17:03:00Z</time>
					</trkpt>
					<trkpt lat="45.871800" lon="4.497230">
						<ele>339</ele>
						<time>2024-08-13T17:03:04Z</time>
					</trkpt>
					<trkpt lat="45.871770" lon="4.497460">
						<ele>338</ele>
						<time>2024-08-13T17:03:07Z</time>
					</trkpt>
					<trkpt lat="45.871590" lon="4.497940">
						<ele>339</ele>
						<time>2024-08-13T17:03:14Z</time>
					</trkpt>
					<trkpt lat="45.871500" lon="4.498060">
						<ele>340</ele>
						<time>2024-08-13T17:03:16Z</time>
					</trkpt>
					<trkpt lat="45.871390" lon="4.498130">
						<ele>341</ele>
						<time>2024-08-13T17:03:18Z</time>
					</trkpt>
					<trkpt lat="45.871020" lon="4.498260">
						<ele>345</ele>
						<time>2024-08-13T17:03:25Z</time>
					</trkpt>
					<trkpt lat="45.870880" lon="4.498280">
						<ele>346</ele>
						<time>2024-08-13T17:03:27Z</time>
					</trkpt>
					<trkpt lat="45.870780" lon="4.498360">
						<ele>347</ele>
						<time>2024-08-13T17:03:29Z</time>
					</trkpt>
					<trkpt lat="45.870720" lon="4.498860">
						<ele>347</ele>
						<time>2024-08-13T17:03:35Z</time>
					</trkpt>
					<trkpt lat="45.870680" lon="4.500260">
						<ele>346</ele>
						<time>2024-08-13T17:03:53Z</time>
					</trkpt>
					<trkpt lat="45.870570" lon="4.501130">
						<ele>348</ele>
						<time>2024-08-13T17:04:04Z</time>
					</trkpt>
					<trkpt lat="45.870480" lon="4.501430">
						<ele>349</ele>
						<time>2024-08-13T17:04:08Z</time>
					</trkpt>
					<trkpt lat="45.870300" lon="4.501640">
						<ele>351</ele>
						<time>2024-08-13T17:04:12Z</time>
					</trkpt>
					<trkpt lat="45.869890" lon="4.502260">
						<ele>355</ele>
						<time>2024-08-13T17:04:23Z</time>
					</trkpt>
					<trkpt lat="45.869840" lon="4.502440">
						<ele>355</ele>
						<time>2024-08-13T17:04:25Z</time>
					</trkpt>
					<trkpt lat="45.869830" lon="4.502690">
						<ele>355</ele>
						<time>2024-08-13T17:04:28Z</time>
					</trkpt>
					<trkpt lat="45.869860" lon="4.503360">
						<ele>353</ele>
						<time>2024-08-13T17:04:36Z</time>
					</trkpt>
					<trkpt lat="45.869840" lon="4.503540">
						<ele>352</ele>
						<time>2024-08-13T17:04:39Z</time>
					</trkpt>
					<trkpt lat="45.869720" lon="4.503790">
						<ele>352</ele>
						<time>2024-08-13T17:04:42Z</time>
					</trkpt>
					<trkpt lat="45.869660" lon="4.503760">
						<ele>353</ele>
						<time>2024-08-13T17:04:44Z</time>
					</trkpt>
					<trkpt lat="45.869620" lon="4.503780">
						<ele>353</ele>
						<time>2024-08-13T17:04:44Z</time>
					</trkpt>
					<trkpt lat="45.869580" lon="4.503860">
						<ele>353</ele>
						<time>2024-08-13T17:04:45Z</time>
					</trkpt>
					<trkpt lat="45.869600" lon="4.503970">
						<ele>353</ele>
						<time>2024-08-13T17:04:47Z</time>
					</trkpt>
					<trkpt lat="45.869300" lon="4.504360">
						<ele>354</ele>
						<time>2024-08-13T17:04:54Z</time>
					</trkpt>
					<trkpt lat="45.869040" lon="4.504640">
						<ele>355</ele>
						<time>2024-08-13T17:05:00Z</time>
					</trkpt>
					<trkpt lat="45.868790" lon="4.504830">
						<ele>356</ele>
						<time>2024-08-13T17:05:05Z</time>
					</trkpt>
					<trkpt lat="45.868350" lon="4.505070">
						<ele>357</ele>
						<time>2024-08-13T17:05:13Z</time>
					</trkpt>
					<trkpt lat="45.867910" lon="4.505090">
						<ele>362</ele>
						<time>2024-08-13T17:05:21Z</time>
					</trkpt>
					<trkpt lat="45.867760" lon="4.505130">
						<ele>364</ele>
						<time>2024-08-13T17:05:24Z</time>
					</trkpt>
					<trkpt lat="45.867720" lon="4.505190">
						<ele>364</ele>
						<time>2024-08-13T17:05:25Z</time>
					</trkpt>
					<trkpt lat="45.867610" lon="4.505420">
						<ele>365</ele>
						<time>2024-08-13T17:05:28Z</time>
					</trkpt>
					<trkpt lat="45.867520" lon="4.506090">
						<ele>363</ele>
						<time>2024-08-13T17:05:37Z</time>
					</trkpt>
					<trkpt lat="45.867470" lon="4.506300">
						<ele>362</ele>
						<time>2024-08-13T17:05:40Z</time>
					</trkpt>
					<trkpt lat="45.867250" lon="4.506740">
						<ele>365</ele>
						<time>2024-08-13T17:05:46Z</time>
					</trkpt>
					<trkpt lat="45.865660" lon="4.509480">
						<ele>379</ele>
						<time>2024-08-13T17:06:30Z</time>
					</trkpt>
					<trkpt lat="45.865430" lon="4.509710">
						<ele>381</ele>
						<time>2024-08-13T17:06:35Z</time>
					</trkpt>
					<trkpt lat="45.865230" lon="4.509810">
						<ele>383</ele>
						<time>2024-08-13T17:06:39Z</time>
					</trkpt>
					<trkpt lat="45.865070" lon="4.509930">
						<ele>384</ele>
						<time>2024-08-13T17:06:42Z</time>
					</trkpt>
					<trkpt lat="45.864850" lon="4.510210">
						<ele>386</ele>
						<time>2024-08-13T17:06:48Z</time>
					</trkpt>
					<trkpt lat="45.864520" lon="4.510860">
						<ele>390</ele>
						<time>2024-08-13T17:06:58Z</time>
					</trkpt>
					<trkpt lat="45.863920" lon="4.512760">
						<ele>397</ele>
						<time>2024-08-13T17:07:23Z</time>
					</trkpt>
					<trkpt lat="45.863760" lon="4.513030">
						<ele>397</ele>
						<time>2024-08-13T17:07:28Z</time>
					</trkpt>
					<trkpt lat="45.863630" lon="4.513140">
						<ele>398</ele>
						<time>2024-08-13T17:07:31Z</time>
					</trkpt>
					<trkpt lat="45.860270" lon="4.515070">
						<ele>385</ele>
						<time>2024-08-13T17:08:35Z</time>
					</trkpt>
					<trkpt lat="45.859870" lon="4.515180">
						<ele>383</ele>
						<time>2024-08-13T17:08:42Z</time>
					</trkpt>
					<trkpt lat="45.859490" lon="4.515090">
						<ele>382</ele>
						<time>2024-08-13T17:08:49Z</time>
					</trkpt>
					<trkpt lat="45.859290" lon="4.514930">
						<ele>382</ele>
						<time>2024-08-13T17:08:53Z</time>
					</trkpt>
					<trkpt lat="45.858770" lon="4.514170">
						<ele>380</ele>
						<time>2024-08-13T17:09:06Z</time>
					</trkpt>
					<trkpt lat="45.858610" lon="4.514020">
						<ele>379</ele>
						<time>2024-08-13T17:09:10Z</time>
					</trkpt>
					<trkpt lat="45.858380" lon="4.513910">
						<ele>377</ele>
						<time>2024-08-13T17:09:14Z</time>
					</trkpt>
					<trkpt lat="45.858000" lon="4.513800">
						<ele>378</ele>
						<time>2024-08-13T17:09:21Z</time>
					</trkpt>
					<trkpt lat="45.857870" lon="4.513780">
						<ele>378</ele>
						<time>2024-08-13T17:09:23Z</time>
					</trkpt>
					<trkpt lat="45.857750" lon="4.513810">
						<ele>378</ele>
						<time>2024-08-13T17:09:25Z</time>
					</trkpt>
					<trkpt lat="45.857630" lon="4.513890">
						<ele>378</ele>
						<time>2024-08-13T17:09:28Z</time>
					</trkpt>
					<trkpt lat="45.857450" lon="4.514110">
						<ele>378</ele>
						<time>2024-08-13T17:09:32Z</time>
					</trkpt>
					<trkpt lat="45.856320" lon="4.515960">
						<ele>380</ele>
						<time>2024-08-13T17:10:02Z</time>
					</trkpt>
					<trkpt lat="45.856200" lon="4.516120">
						<ele>379</ele>
						<time>2024-08-13T17:10:05Z</time>
					</trkpt>
					<trkpt lat="45.855980" lon="4.516520">
						<ele>378</ele>
						<time>2024-08-13T17:10:12Z</time>
					</trkpt>
					<trkpt lat="45.855840" lon="4.516940">
						<ele>378</ele>
						<time>2024-08-13T17:10:17Z</time>
					</trkpt>
					<trkpt lat="45.855660" lon="4.517810">
						<ele>379</ele>
						<time>2024-08-13T17:10:29Z</time>
					</trkpt>
					<trkpt lat="45.855520" lon="4.518360">
						<ele>380</ele>
						<time>2024-08-13T17:10:36Z</time>
					</trkpt>
					<trkpt lat="45.854540" lon="4.520540">
						<ele>389</ele>
						<time>2024-08-13T17:11:08Z</time>
					</trkpt>
					<trkpt lat="45.854430" lon="4.520660">
						<ele>389</ele>
						<time>2024-08-13T17:11:11Z</time>
					</trkpt>
					<trkpt lat="45.854270" lon="4.520790">
						<ele>389</ele>
						<time>2024-08-13T17:11:14Z</time>
					</trkpt>
					<trkpt lat="45.853930" lon="4.520950">
						<ele>390</ele>
						<time>2024-08-13T17:11:20Z</time>
					</trkpt>
					<trkpt lat="45.853800" lon="4.520990">
						<ele>390</ele>
						<time>2024-08-13T17:11:23Z</time>
					</trkpt>
					<trkpt lat="45.853560" lon="4.521000">
						<ele>390</ele>
						<time>2024-08-13T17:11:27Z</time>
					</trkpt>
					<trkpt lat="45.853400" lon="4.520980">
						<ele>391</ele>
						<time>2024-08-13T17:11:30Z</time>
					</trkpt>
					<trkpt lat="45.853220" lon="4.520920">
						<ele>391</ele>
						<time>2024-08-13T17:11:33Z</time>
					</trkpt>
					<trkpt lat="45.852370" lon="4.520460">
						<ele>395</ele>
						<time>2024-08-13T17:11:49Z</time>
					</trkpt>
					<trkpt lat="45.852070" lon="4.520340">
						<ele>396</ele>
						<time>2024-08-13T17:11:55Z</time>
					</trkpt>
					<trkpt lat="45.851860" lon="4.520330">
						<ele>397</ele>
						<time>2024-08-13T17:11:58Z</time>
					</trkpt>
					<trkpt lat="45.851740" lon="4.520360">
						<ele>396</ele>
						<time>2024-08-13T17:12:01Z</time>
					</trkpt>
					<trkpt lat="45.851550" lon="4.520560">
						<ele>396</ele>
						<time>2024-08-13T17:12:05Z</time>
					</trkpt>
					<trkpt lat="45.851390" lon="4.520690">
						<ele>397</ele>
						<time>2024-08-13T17:12:08Z</time>
					</trkpt>
					<trkpt lat="45.851220" lon="4.520760">
						<ele>398</ele>
						<time>2024-08-13T17:12:11Z</time>
					</trkpt>
					<trkpt lat="45.851040" lon="4.520880">
						<ele>400</ele>
						<time>2024-08-13T17:12:15Z</time>
					</trkpt>
					<trkpt lat="45.850970" lon="4.521050">
						<ele>400</ele>
						<time>2024-08-13T17:12:17Z</time>
					</trkpt>
					<trkpt lat="45.850930" lon="4.521270">
						<ele>400</ele>
						<time>2024-08-13T17:12:20Z</time>
					</trkpt>
					<trkpt lat="45.850940" lon="4.521600">
						<ele>399</ele>
						<time>2024-08-13T17:12:24Z</time>
					</trkpt>
					<trkpt lat="45.851120" lon="4.522990">
						<ele>403</ele>
						<time>2024-08-13T17:12:42Z</time>
					</trkpt>
					<trkpt lat="45.851120" lon="4.523250">
						<ele>405</ele>
						<time>2024-08-13T17:12:45Z</time>
					</trkpt>
					<trkpt lat="45.851050" lon="4.523470">
						<ele>407</ele>
						<time>2024-08-13T17:12:48Z</time>
					</trkpt>
					<trkpt lat="45.850940" lon="4.523600">
						<ele>409</ele>
						<time>2024-08-13T17:12:50Z</time>
					</trkpt>
					<trkpt lat="45.850130" lon="4.524040">
						<ele>415</ele>
						<time>2024-08-13T17:13:06Z</time>
					</trkpt>
					<trkpt lat="45.849770" lon="4.524310">
						<ele>417</ele>
						<time>2024-08-13T17:13:13Z</time>
					</trkpt>
					<trkpt lat="45.849510" lon="4.524660">
						<ele>417</ele>
						<time>2024-08-13T17:13:19Z</time>
					</trkpt>
					<trkpt lat="45.849380" lon="4.525030">
						<ele>417</ele>
						<time>2024-08-13T17:13:24Z</time>
					</trkpt>
					<trkpt lat="45.849310" lon="4.525390">
						<ele>417</ele>
						<time>2024-08-13T17:13:29Z</time>
					</trkpt>
					<trkpt lat="45.849200" lon="4.526380">
						<ele>417</ele>
						<time>2024-08-13T17:13:42Z</time>
					</trkpt>
					<trkpt lat="45.849220" lon="4.526900">
						<ele>417</ele>
						<time>2024-08-13T17:13:48Z</time>
					</trkpt>
					<trkpt lat="45.849340" lon="4.528050">
						<ele>418</ele>
						<time>2024-08-13T17:14:02Z</time>
					</trkpt>
					<trkpt lat="45.849370" lon="4.528630">
						<ele>418</ele>
						<time>2024-08-13T17:14:10Z</time>
					</trkpt>
					<trkpt lat="45.849330" lon="4.529030">
						<ele>418</ele>
						<time>2024-08-13T17:14:15Z</time>
					</trkpt>
					<trkpt lat="45.849190" lon="4.529410">
						<ele>417</ele>
						<time>2024-08-13T17:14:20Z</time>
					</trkpt>
					<trkpt lat="45.848910" lon="4.529980">
						<ele>414</ele>
						<time>2024-08-13T17:14:29Z</time>
					</trkpt>
					<trkpt lat="45.848640" lon="4.530300">
						<ele>413</ele>
						<time>2024-08-13T17:14:35Z</time>
					</trkpt>
					<trkpt lat="45.848510" lon="4.530420">
						<ele>413</ele>
						<time>2024-08-13T17:14:38Z</time>
					</trkpt>
					<trkpt lat="45.848290" lon="4.530530">
						<ele>413</ele>
						<time>2024-08-13T17:14:42Z</time>
					</trkpt>
					<trkpt lat="45.847390" lon="4.530660">
						<ele>412</ele>
						<time>2024-08-13T17:14:58Z</time>
					</trkpt>
					<trkpt lat="45.847250" lon="4.530690">
						<ele>412</ele>
						<time>2024-08-13T17:15:00Z</time>
					</trkpt>
					<trkpt lat="45.847030" lon="4.530790">
						<ele>412</ele>
						<time>2024-08-13T17:15:04Z</time>
					</trkpt>
					<trkpt lat="45.845820" lon="4.531440">
						<ele>409</ele>
						<time>2024-08-13T17:15:27Z</time>
					</trkpt>
					<trkpt lat="45.845550" lon="4.531620">
						<ele>408</ele>
						<time>2024-08-13T17:15:33Z</time>
					</trkpt>
					<trkpt lat="45.845230" lon="4.532050">
						<ele>406</ele>
						<time>2024-08-13T17:15:41Z</time>
					</trkpt>
					<trkpt lat="45.844990" lon="4.533280">
						<ele>404</ele>
						<time>2024-08-13T17:15:56Z</time>
					</trkpt>
					<trkpt lat="45.845000" lon="4.533800">
						<ele>404</ele>
						<time>2024-08-13T17:16:03Z</time>
					</trkpt>
					<trkpt lat="45.845140" lon="4.534700">
						<ele>404</ele>
						<time>2024-08-13T17:16:14Z</time>
					</trkpt>
					<trkpt lat="45.845190" lon="4.535440">
						<ele>406</ele>
						<time>2024-08-13T17:16:23Z</time>
					</trkpt>
					<trkpt lat="45.845140" lon="4.536240">
						<ele>408</ele>
						<time>2024-08-13T17:16:33Z</time>
					</trkpt>
					<trkpt lat="45.845010" lon="4.536580">
						<ele>411</ele>
						<time>2024-08-13T17:16:38Z</time>
					</trkpt>
					<trkpt lat="45.844810" lon="4.536890">
						<ele>411</ele>
						<time>2024-08-13T17:16:43Z</time>
					</trkpt>
					<trkpt lat="45.844650" lon="4.537030">
						<ele>412</ele>
						<time>2024-08-13T17:16:47Z</time>
					</trkpt>
					<trkpt lat="45.843970" lon="4.537020">
						<ele>420</ele>
						<time>2024-08-13T17:16:59Z</time>
					</trkpt>
					<trkpt lat="45.843640" lon="4.537220">
						<ele>425</ele>
						<time>2024-08-13T17:17:05Z</time>
					</trkpt>
					<trkpt lat="45.843060" lon="4.537880">
						<ele>431</ele>
						<time>2024-08-13T17:17:18Z</time>
					</trkpt>
					<trkpt lat="45.842700" lon="4.538380">
						<ele>431</ele>
						<time>2024-08-13T17:17:27Z</time>
					</trkpt>
					<trkpt lat="45.842310" lon="4.538780">
						<ele>431</ele>
						<time>2024-08-13T17:17:36Z</time>
					</trkpt>
					<trkpt lat="45.841800" lon="4.539180">
						<ele>432</ele>
						<time>2024-08-13T17:17:46Z</time>
					</trkpt>
					<trkpt lat="45.841470" lon="4.539370">
						<ele>434</ele>
						<time>2024-08-13T17:17:53Z</time>
					</trkpt>
					<trkpt lat="45.841310" lon="4.539400">
						<ele>436</ele>
						<time>2024-08-13T17:17:55Z</time>
					</trkpt>
					<trkpt lat="45.840990" lon="4.539310">
						<ele>444</ele>
						<time>2024-08-13T17:18:01Z</time>
					</trkpt>
					<trkpt lat="45.840840" lon="4.539300">
						<ele>447</ele>
						<time>2024-08-13T17:18:04Z</time>
					</trkpt>
					<trkpt lat="45.840720" lon="4.539340">
						<ele>447</ele>
						<time>2024-08-13T17:18:06Z</time>
					</trkpt>
					<trkpt lat="45.840540" lon="4.539530">
						<ele>444</ele>
						<time>2024-08-13T17:18:10Z</time>
					</trkpt>
					<trkpt lat="45.840210" lon="4.539680">
						<ele>443</ele>
						<time>2024-08-13T17:18:16Z</time>
					</trkpt>
					<trkpt lat="45.839680" lon="4.539770">
						<ele>446</ele>
						<time>2024-08-13T17:18:26Z</time>
					</trkpt>
					<trkpt lat="45.839390" lon="4.539760">
						<ele>448</ele>
						<time>2024-08-13T17:18:31Z</time>
					</trkpt>
					<trkpt lat="45.838790" lon="4.539670">
						<ele>452</ele>
						<time>2024-08-13T17:18:42Z</time>
					</trkpt>
					<trkpt lat="45.838650" lon="4.539620">
						<ele>453</ele>
						<time>2024-08-13T17:18:44Z</time>
					</trkpt>
					<trkpt lat="45.838220" lon="4.539410">
						<ele>457</ele>
						<time>2024-08-13T17:18:52Z</time>
					</trkpt>
					<trkpt lat="45.837830" lon="4.539180">
						<ele>460</ele>
						<time>2024-08-13T17:19:00Z</time>
					</trkpt>
					<trkpt lat="45.837220" lon="4.538710">
						<ele>463</ele>
						<time>2024-08-13T17:19:12Z</time>
					</trkpt>
					<trkpt lat="45.836720" lon="4.538150">
						<ele>466</ele>
						<time>2024-08-13T17:19:23Z</time>
					</trkpt>
					<trkpt lat="45.836370" lon="4.537680">
						<ele>471</ele>
						<time>2024-08-13T17:19:32Z</time>
					</trkpt>
					<trkpt lat="45.836040" lon="4.537350">
						<ele>471</ele>
						<time>2024-08-13T17:19:39Z</time>
					</trkpt>
					<trkpt lat="45.835160" lon="4.536630">
						<ele>469</ele>
						<time>2024-08-13T17:19:57Z</time>
					</trkpt>
					<trkpt lat="45.835050" lon="4.536500">
						<ele>468</ele>
						<time>2024-08-13T17:20:00Z</time>
					</trkpt>
					<trkpt lat="45.834680" lon="4.535870">
						<ele>466</ele>
						<time>2024-08-13T17:20:10Z</time>
					</trkpt>
					<trkpt lat="45.834510" lon="4.535690">
						<ele>465</ele>
						<time>2024-08-13T17:20:14Z</time>
					</trkpt>
					<trkpt lat="45.834340" lon="4.535580">
						<ele>464</ele>
						<time>2024-08-13T17:20:17Z</time>
					</trkpt>
					<trkpt lat="45.833370" lon="4.535260">
						<ele>450</ele>
						<time>2024-08-13T17:20:35Z</time>
					</trkpt>
					<trkpt lat="45.833230" lon="4.535190">
						<ele>447</ele>
						<time>2024-08-13T17:20:37Z</time>
					</trkpt>
					<trkpt lat="45.833130" lon="4.535090">
						<ele>446</ele>
						<time>2024-08-13T17:20:39Z</time>
					</trkpt>
					<trkpt lat="45.833050" lon="4.534960">
						<ele>445</ele>
						<time>2024-08-13T17:20:42Z</time>
					</trkpt>
					<trkpt lat="45.832950" lon="4.534530">
						<ele>444</ele>
						<time>2024-08-13T17:20:47Z</time>
					</trkpt>
					<trkpt lat="45.832930" lon="4.533950">
						<ele>443</ele>
						<time>2024-08-13T17:20:54Z</time>
					</trkpt>
					<trkpt lat="45.832940" lon="4.533820">
						<ele>443</ele>
						<time>2024-08-13T17:20:56Z</time>
					</trkpt>
					<trkpt lat="45.833130" lon="4.533200">
						<ele>444</ele>
						<time>2024-08-13T17:21:04Z</time>
					</trkpt>
					<trkpt lat="45.833190" lon="4.532890">
						<ele>444</ele>
						<time>2024-08-13T17:21:08Z</time>
					</trkpt>
					<trkpt lat="45.833190" lon="4.532720">
						<ele>443</ele>
						<time>2024-08-13T17:21:10Z</time>
					</trkpt>
					<trkpt lat="45.833140" lon="4.532400">
						<ele>440</ele>
						<time>2024-08-13T17:21:15Z</time>
					</trkpt>
					<trkpt lat="45.833100" lon="4.532330">
						<ele>439</ele>
						<time>2024-08-13T17:21:16Z</time>
					</trkpt>
					<trkpt lat="45.832700" lon="4.533480">
						<ele>435</ele>
						<time>2024-08-13T17:21:32Z</time>
					</trkpt>
					<trkpt lat="45.832600" lon="4.534710">
						<ele>434</ele>
						<time>2024-08-13T17:21:47Z</time>
					</trkpt>
					<trkpt lat="45.832560" lon="4.534990">
						<ele>433</ele>
						<time>2024-08-13T17:21:50Z</time>
					</trkpt>
					<trkpt lat="45.832450" lon="4.535390">
						<ele>431</ele>
						<time>2024-08-13T17:21:56Z</time>
					</trkpt>
					<trkpt lat="45.832260" lon="4.535660">
						<ele>430</ele>
						<time>2024-08-13T17:22:01Z</time>
					</trkpt>
					<trkpt lat="45.831610" lon="4.536280">
						<ele>427</ele>
						<time>2024-08-13T17:22:14Z</time>
					</trkpt>
					<trkpt lat="45.831430" lon="4.536500">
						<ele>427</ele>
						<time>2024-08-13T17:22:19Z</time>
					</trkpt>
					<trkpt lat="45.830910" lon="4.537260">
						<ele>424</ele>
						<time>2024-08-13T17:22:32Z</time>
					</trkpt>
					<trkpt lat="45.830740" lon="4.537560">
						<ele>423</ele>
						<time>2024-08-13T17:22:37Z</time>
					</trkpt>
					<trkpt lat="45.830510" lon="4.538120">
						<ele>420</ele>
						<time>2024-08-13T17:22:45Z</time>
					</trkpt>
					<trkpt lat="45.830450" lon="4.538320">
						<ele>420</ele>
						<time>2024-08-13T17:22:47Z</time>
					</trkpt>
					<trkpt lat="45.830420" lon="4.538560">
						<ele>419</ele>
						<time>2024-08-13T17:22:50Z</time>
					</trkpt>
					<trkpt lat="45.830410" lon="4.539000">
						<ele>420</ele>
						<time>2024-08-13T17:22:56Z</time>
					</trkpt>
					<trkpt lat="45.830360" lon="4.539220">
						<ele>421</ele>
						<time>2024-08-13T17:22:59Z</time>
					</trkpt>
					<trkpt lat="45.830300" lon="4.539300">
						<ele>421</ele>
						<time>2024-08-13T17:23:00Z</time>
					</trkpt>
					<trkpt lat="45.830240" lon="4.539330">
						<ele>421</ele>
						<time>2024-08-13T17:23:01Z</time>
					</trkpt>
					<trkpt lat="45.830140" lon="4.539330">
						<ele>420</ele>
						<time>2024-08-13T17:23:03Z</time>
					</trkpt>
					<trkpt lat="45.829690" lon="4.539210">
						<ele>416</ele>
						<time>2024-08-13T17:23:11Z</time>
					</trkpt>
					<trkpt lat="45.829420" lon="4.539210">
						<ele>416</ele>
						<time>2024-08-13T17:23:16Z</time>
					</trkpt>
					<trkpt lat="45.828610" lon="4.539470">
						<ele>415</ele>
						<time>2024-08-13T17:23:31Z</time>
					</trkpt>
					<trkpt lat="45.828420" lon="4.539560">
						<ele>415</ele>
						<time>2024-08-13T17:23:34Z</time>
					</trkpt>
					<trkpt lat="45.828230" lon="4.539740">
						<ele>416</ele>
						<time>2024-08-13T17:23:38Z</time>
					</trkpt>
					<trkpt lat="45.828050" lon="4.539970">
						<ele>416</ele>
						<time>2024-08-13T17:23:43Z</time>
					</trkpt>
					<trkpt lat="45.827730" lon="4.540580">
						<ele>418</ele>
						<time>2024-08-13T17:23:52Z</time>
					</trkpt>
					<trkpt lat="45.827500" lon="4.540900">
						<ele>416</ele>
						<time>2024-08-13T17:23:58Z</time>
					</trkpt>
					<trkpt lat="45.826830" lon="4.541570">
						<ele>408</ele>
						<time>2024-08-13T17:24:12Z</time>
					</trkpt>
					<trkpt lat="45.826590" lon="4.541880">
						<ele>407</ele>
						<time>2024-08-13T17:24:18Z</time>
					</trkpt>
					<trkpt lat="45.825410" lon="4.543810">
						<ele>401</ele>
						<time>2024-08-13T17:24:50Z</time>
					</trkpt>
					<trkpt lat="45.825150" lon="4.544330">
						<ele>401</ele>
						<time>2024-08-13T17:24:58Z</time>
					</trkpt>
					<trkpt lat="45.825100" lon="4.544680">
						<ele>401</ele>
						<time>2024-08-13T17:25:02Z</time>
					</trkpt>
					<trkpt lat="45.825030" lon="4.545540">
						<ele>402</ele>
						<time>2024-08-13T17:25:13Z</time>
					</trkpt>
					<trkpt lat="45.824980" lon="4.545710">
						<ele>402</ele>
						<time>2024-08-13T17:25:15Z</time>
					</trkpt>
					<trkpt lat="45.824920" lon="4.545810">
						<ele>402</ele>
						<time>2024-08-13T17:25:17Z</time>
					</trkpt>
					<trkpt lat="45.824830" lon="4.545870">
						<ele>402</ele>
						<time>2024-08-13T17:25:19Z</time>
					</trkpt>
					<trkpt lat="45.824710" lon="4.545850">
						<ele>401</ele>
						<time>2024-08-13T17:25:21Z</time>
					</trkpt>
					<trkpt lat="45.824290" lon="4.545600">
						<ele>399</ele>
						<time>2024-08-13T17:25:29Z</time>
					</trkpt>
					<trkpt lat="45.823910" lon="4.545460">
						<ele>397</ele>
						<time>2024-08-13T17:25:36Z</time>
					</trkpt>
					<trkpt lat="45.823330" lon="4.545400">
						<ele>395</ele>
						<time>2024-08-13T17:25:46Z</time>
					</trkpt>
					<trkpt lat="45.821750" lon="4.545880">
						<ele>390</ele>
						<time>2024-08-13T17:26:15Z</time>
					</trkpt>
					<trkpt lat="45.820610" lon="4.546050">
						<ele>391</ele>
						<time>2024-08-13T17:26:36Z</time>
					</trkpt>
					<trkpt lat="45.820110" lon="4.545930">
						<ele>389</ele>
						<time>2024-08-13T17:26:45Z</time>
					</trkpt>
					<trkpt lat="45.819840" lon="4.545710">
						<ele>386</ele>
						<time>2024-08-13T17:26:50Z</time>
					</trkpt>
					<trkpt lat="45.819100" lon="4.545350">
						<ele>381</ele>
						<time>2024-08-13T17:27:04Z</time>
					</trkpt>
					<trkpt lat="45.818920" lon="4.545340">
						<ele>380</ele>
						<time>2024-08-13T17:27:07Z</time>
					</trkpt>
					<trkpt lat="45.818730" lon="4.545390">
						<ele>379</ele>
						<time>2024-08-13T17:27:11Z</time>
					</trkpt>
					<trkpt lat="45.818410" lon="4.545560">
						<ele>378</ele>
						<time>2024-08-13T17:27:17Z</time>
					</trkpt>
					<trkpt lat="45.818110" lon="4.545790">
						<ele>376</ele>
						<time>2024-08-13T17:27:23Z</time>
					</trkpt>
					<trkpt lat="45.817970" lon="4.545970">
						<ele>375</ele>
						<time>2024-08-13T17:27:26Z</time>
					</trkpt>
					<trkpt lat="45.817880" lon="4.546180">
						<ele>376</ele>
						<time>2024-08-13T17:27:29Z</time>
					</trkpt>
					<trkpt lat="45.817620" lon="4.547310">
						<ele>377</ele>
						<time>2024-08-13T17:27:44Z</time>
					</trkpt>
					<trkpt lat="45.817600" lon="4.547980">
						<ele>380</ele>
						<time>2024-08-13T17:27:52Z</time>
					</trkpt>
					<trkpt lat="45.817530" lon="4.548230">
						<ele>379</ele>
						<time>2024-08-13T17:27:56Z</time>
					</trkpt>
					<trkpt lat="45.817450" lon="4.548300">
						<ele>377</ele>
						<time>2024-08-13T17:27:57Z</time>
					</trkpt>
					<trkpt lat="45.816990" lon="4.548400">
						<ele>372</ele>
						<time>2024-08-13T17:28:05Z</time>
					</trkpt>
					<trkpt lat="45.816720" lon="4.548530">
						<ele>371</ele>
						<time>2024-08-13T17:28:11Z</time>
					</trkpt>
					<trkpt lat="45.816450" lon="4.548780">
						<ele>368</ele>
						<time>2024-08-13T17:28:16Z</time>
					</trkpt>
					<trkpt lat="45.816170" lon="4.549220">
						<ele>366</ele>
						<time>2024-08-13T17:28:24Z</time>
					</trkpt>
					<trkpt lat="45.816000" lon="4.549800">
						<ele>363</ele>
						<time>2024-08-13T17:28:31Z</time>
					</trkpt>
					<trkpt lat="45.815990" lon="4.550020">
						<ele>364</ele>
						<time>2024-08-13T17:28:34Z</time>
					</trkpt>
					<trkpt lat="45.816040" lon="4.551400">
						<ele>367</ele>
						<time>2024-08-13T17:28:51Z</time>
					</trkpt>
					<trkpt lat="45.815870" lon="4.552430">
						<ele>368</ele>
						<time>2024-08-13T17:29:04Z</time>
					</trkpt>
					<trkpt lat="45.815770" lon="4.552750">
						<ele>367</ele>
						<time>2024-08-13T17:29:09Z</time>
					</trkpt>
					<trkpt lat="45.815340" lon="4.553540">
						<ele>360</ele>
						<time>2024-08-13T17:29:21Z</time>
					</trkpt>
					<trkpt lat="45.815280" lon="4.553730">
						<ele>358</ele>
						<time>2024-08-13T17:29:24Z</time>
					</trkpt>
					<trkpt lat="45.815280" lon="4.554210">
						<ele>359</ele>
						<time>2024-08-13T17:29:30Z</time>
					</trkpt>
					<trkpt lat="45.815320" lon="4.554480">
						<ele>358</ele>
						<time>2024-08-13T17:29:33Z</time>
					</trkpt>
					<trkpt lat="45.815550" lon="4.555010">
						<ele>360</ele>
						<time>2024-08-13T17:29:41Z</time>
					</trkpt>
					<trkpt lat="45.815600" lon="4.555200">
						<ele>361</ele>
						<time>2024-08-13T17:29:43Z</time>
					</trkpt>
					<trkpt lat="45.815430" lon="4.555860">
						<ele>354</ele>
						<time>2024-08-13T17:29:52Z</time>
					</trkpt>
					<trkpt lat="45.815350" lon="4.556320">
						<ele>352</ele>
						<time>2024-08-13T17:29:58Z</time>
					</trkpt>
					<trkpt lat="45.815350" lon="4.556620">
						<ele>352</ele>
						<time>2024-08-13T17:30:02Z</time>
					</trkpt>
					<trkpt lat="45.815390" lon="4.556800">
						<ele>352</ele>
						<time>2024-08-13T17:30:04Z</time>
					</trkpt>
					<trkpt lat="45.815790" lon="4.557520">
						<ele>356</ele>
						<time>2024-08-13T17:30:16Z</time>
					</trkpt>
					<trkpt lat="45.816040" lon="4.557820">
						<ele>354</ele>
						<time>2024-08-13T17:30:21Z</time>
					</trkpt>
					<trkpt lat="45.816410" lon="4.558010">
						<ele>356</ele>
						<time>2024-08-13T17:30:28Z</time>
					</trkpt>
					<trkpt lat="45.816710" lon="4.558090">
						<ele>360</ele>
						<time>2024-08-13T17:30:34Z</time>
					</trkpt>
					<trkpt lat="45.817010" lon="4.558270">
						<ele>360</ele>
						<time>2024-08-13T17:30:40Z</time>
					</trkpt>
					<trkpt lat="45.817050" lon="4.558390">
						<ele>360</ele>
						<time>2024-08-13T17:30:41Z</time>
					</trkpt>
					<trkpt lat="45.817050" lon="4.558560">
						<ele>360</ele>
						<time>2024-08-13T17:30:43Z</time>
					</trkpt>
					<trkpt lat="45.816930" lon="4.558730">
						<ele>358</ele>
						<time>2024-08-13T17:30:46Z</time>
					</trkpt>
					<trkpt lat="45.816200" lon="4.559340">
						<ele>344</ele>
						<time>2024-08-13T17:31:01Z</time>
					</trkpt>
					<trkpt lat="45.816020" lon="4.559720">
						<ele>343</ele>
						<time>2024-08-13T17:31:07Z</time>
					</trkpt>
					<trkpt lat="45.815930" lon="4.560320">
						<ele>342</ele>
						<time>2024-08-13T17:31:15Z</time>
					</trkpt>
					<trkpt lat="45.815940" lon="4.560530">
						<ele>342</ele>
						<time>2024-08-13T17:31:17Z</time>
					</trkpt>
					<trkpt lat="45.816130" lon="4.560960">
						<ele>347</ele>
						<time>2024-08-13T17:31:24Z</time>
					</trkpt>
					<trkpt lat="45.816170" lon="4.561110">
						<ele>349</ele>
						<time>2024-08-13T17:31:26Z</time>
					</trkpt>
					<trkpt lat="45.816130" lon="4.561300">
						<ele>349</ele>
						<time>2024-08-13T17:31:28Z</time>
					</trkpt>
					<trkpt lat="45.816090" lon="4.561360">
						<ele>348</ele>
						<time>2024-08-13T17:31:29Z</time>
					</trkpt>
					<trkpt lat="45.815570" lon="4.561740">
						<ele>338</ele>
						<time>2024-08-13T17:31:39Z</time>
					</trkpt>
					<trkpt lat="45.814630" lon="4.562920">
						<ele>335</ele>
						<time>2024-08-13T17:32:02Z</time>
					</trkpt>
					<trkpt lat="45.814470" lon="4.563010">
						<ele>333</ele>
						<time>2024-08-13T17:32:05Z</time>
					</trkpt>
					<trkpt lat="45.814220" lon="4.562970">
						<ele>328</ele>
						<time>2024-08-13T17:32:09Z</time>
					</trkpt>
					<trkpt lat="45.814150" lon="4.563000">
						<ele>328</ele>
						<time>2024-08-13T17:32:11Z</time>
					</trkpt>
					<trkpt lat="45.814000" lon="4.563100">
						<ele>326</ele>
						<time>2024-08-13T17:32:13Z</time>
					</trkpt>
					<trkpt lat="45.813890" lon="4.563240">
						<ele>325</ele>
						<time>2024-08-13T17:32:16Z</time>
					</trkpt>
					<trkpt lat="45.813730" lon="4.563770">
						<ele>324</ele>
						<time>2024-08-13T17:32:23Z</time>
					</trkpt>
					<trkpt lat="45.813690" lon="4.564060">
						<ele>325</ele>
						<time>2024-08-13T17:32:27Z</time>
					</trkpt>
					<trkpt lat="45.813670" lon="4.564510">
						<ele>325</ele>
						<time>2024-08-13T17:32:32Z</time>
					</trkpt>
					<trkpt lat="45.813770" lon="4.564990">
						<ele>328</ele>
						<time>2024-08-13T17:32:39Z</time>
					</trkpt>
					<trkpt lat="45.813750" lon="4.565230">
						<ele>327</ele>
						<time>2024-08-13T17:32:42Z</time>
					</trkpt>
					<trkpt lat="45.813660" lon="4.565380">
						<ele>325</ele>
						<time>2024-08-13T17:32:44Z</time>
					</trkpt>
					<trkpt lat="45.813520" lon="4.565540">
						<ele>322</ele>
						<time>2024-08-13T17:32:47Z</time>
					</trkpt>
					<trkpt lat="45.813440" lon="4.565800">
						<ele>320</ele>
						<time>2024-08-13T17:32:51Z</time>
					</trkpt>
					<trkpt lat="45.813450" lon="4.565970">
						<ele>319</ele>
						<time>2024-08-13T17:32:53Z</time>
					</trkpt>
					<trkpt lat="45.813640" lon="4.566500">
						<ele>320</ele>
						<time>2024-08-13T17:33:00Z</time>
					</trkpt>
					<trkpt lat="45.813710" lon="4.566740">
						<ele>320</ele>
						<time>2024-08-13T17:33:04Z</time>
					</trkpt>
					<trkpt lat="45.813780" lon="4.567190">
						<ele>317</ele>
						<time>2024-08-13T17:33:09Z</time>
					</trkpt>
					<trkpt lat="45.813840" lon="4.567290">
						<ele>317</ele>
						<time>2024-08-13T17:33:11Z</time>
					</trkpt>
					<trkpt lat="45.813910" lon="4.567350">
						<ele>318</ele>
						<time>2024-08-13T17:33:12Z</time>
					</trkpt>
					<trkpt lat="45.814180" lon="4.567350">
						<ele>324</ele>
						<time>2024-08-13T17:33:17Z</time>
					</trkpt>
					<trkpt lat="45.814490" lon="4.567270">
						<ele>329</ele>
						<time>2024-08-13T17:33:23Z</time>
					</trkpt>
					<trkpt lat="45.814570" lon="4.567290">
						<ele>329</ele>
						<time>2024-08-13T17:33:24Z</time>
					</trkpt>
					<trkpt lat="45.814620" lon="4.567350">
						<ele>329</ele>
						<time>2024-08-13T17:33:25Z</time>
					</trkpt>
					<trkpt lat="45.814650" lon="4.567540">
						<ele>328</ele>
						<time>2024-08-13T17:33:28Z</time>
					</trkpt>
					<trkpt lat="45.814620" lon="4.567660">
						<ele>328</ele>
						<time>2024-08-13T17:33:29Z</time>
					</trkpt>
					<trkpt lat="45.813830" lon="4.568610">
						<ele>315</ele>
						<time>2024-08-13T17:33:48Z</time>
					</trkpt>
					<trkpt lat="45.813280" lon="4.569230">
						<ele>313</ele>
						<time>2024-08-13T17:34:00Z</time>
					</trkpt>
					<trkpt lat="45.812900" lon="4.569380">
						<ele>307</ele>
						<time>2024-08-13T17:34:07Z</time>
					</trkpt>
					<trkpt lat="45.812810" lon="4.569460">
						<ele>306</ele>
						<time>2024-08-13T17:34:09Z</time>
					</trkpt>
					<trkpt lat="45.812690" lon="4.569690">
						<ele>305</ele>
						<time>2024-08-13T17:34:13Z</time>
					</trkpt>
					<trkpt lat="45.812660" lon="4.570000">
						<ele>307</ele>
						<time>2024-08-13T17:34:17Z</time>
					</trkpt>
					<trkpt lat="45.812670" lon="4.570230">
						<ele>307</ele>
						<time>2024-08-13T17:34:19Z</time>
					</trkpt>
					<trkpt lat="45.812900" lon="4.571280">
						<ele>310</ele>
						<time>2024-08-13T17:34:33Z</time>
					</trkpt>
					<trkpt lat="45.813030" lon="4.572220">
						<ele>303</ele>
						<time>2024-08-13T17:34:45Z</time>
					</trkpt>
					<trkpt lat="45.813210" lon="4.572720">
						<ele>299</ele>
						<time>2024-08-13T17:34:52Z</time>
					</trkpt>
					<trkpt lat="45.813310" lon="4.572870">
						<ele>298</ele>
						<time>2024-08-13T17:34:54Z</time>
					</trkpt>
					<trkpt lat="45.813500" lon="4.572980">
						<ele>298</ele>
						<time>2024-08-13T17:34:58Z</time>
					</trkpt>
					<trkpt lat="45.813660" lon="4.573010">
						<ele>299</ele>
						<time>2024-08-13T17:35:01Z</time>
					</trkpt>
					<trkpt lat="45.814160" lon="4.573020">
						<ele>303</ele>
						<time>2024-08-13T17:35:10Z</time>
					</trkpt>
					<trkpt lat="45.814370" lon="4.573060">
						<ele>303</ele>
						<time>2024-08-13T17:35:14Z</time>
					</trkpt>
					<trkpt lat="45.814570" lon="4.573190">
						<ele>301</ele>
						<time>2024-08-13T17:35:18Z</time>
					</trkpt>
					<trkpt lat="45.814870" lon="4.573510">
						<ele>297</ele>
						<time>2024-08-13T17:35:24Z</time>
					</trkpt>
					<trkpt lat="45.815060" lon="4.573810">
						<ele>296</ele>
						<time>2024-08-13T17:35:29Z</time>
					</trkpt>
					<trkpt lat="45.815130" lon="4.573970">
						<ele>295</ele>
						<time>2024-08-13T17:35:32Z</time>
					</trkpt>
					<trkpt lat="45.815690" lon="4.574610">
						<ele>295</ele>
						<time>2024-08-13T17:35:44Z</time>
					</trkpt>
					<trkpt lat="45.816370" lon="4.574880">
						<ele>297</ele>
						<time>2024-08-13T17:35:57Z</time>
					</trkpt>
					<trkpt lat="45.817140" lon="4.575010">
						<ele>296</ele>
						<time>2024-08-13T17:36:11Z</time>
					</trkpt>
					<trkpt lat="45.817810" lon="4.575090">
						<ele>297</ele>
						<time>2024-08-13T17:36:23Z</time>
					</trkpt>
					<trkpt lat="45.818030" lon="4.575040">
						<ele>298</ele>
						<time>2024-08-13T17:36:27Z</time>
					</trkpt>
					<trkpt lat="45.819040" lon="4.574690">
						<ele>306</ele>
						<time>2024-08-13T17:36:45Z</time>
					</trkpt>
					<trkpt lat="45.819250" lon="4.574700">
						<ele>308</ele>
						<time>2024-08-13T17:36:49Z</time>
					</trkpt>
					<trkpt lat="45.820360" lon="4.575160">
						<ele>312</ele>
						<time>2024-08-13T17:37:09Z</time>
					</trkpt>
					<trkpt lat="45.821390" lon="4.575530">
						<ele>317</ele>
						<time>2024-08-13T17:37:28Z</time>
					</trkpt>
					<trkpt lat="45.821560" lon="4.575560">
						<ele>318</ele>
						<time>2024-08-13T17:37:31Z</time>
					</trkpt>
					<trkpt lat="45.821910" lon="4.575410">
						<ele>319</ele>
						<time>2024-08-13T17:37:38Z</time>
					</trkpt>
					<trkpt lat="45.822190" lon="4.575160">
						<ele>321</ele>
						<time>2024-08-13T17:37:44Z</time>
					</trkpt>
					<trkpt lat="45.822540" lon="4.574490">
						<ele>324</ele>
						<time>2024-08-13T17:37:54Z</time>
					</trkpt>
					<trkpt lat="45.823040" lon="4.575100">
						<ele>320</ele>
						<time>2024-08-13T17:38:06Z</time>
					</trkpt>
					<trkpt lat="45.823150" lon="4.575400">
						<ele>318</ele>
						<time>2024-08-13T17:38:10Z</time>
					</trkpt>
					<trkpt lat="45.823160" lon="4.575840">
						<ele>317</ele>
						<time>2024-08-13T17:38:15Z</time>
					</trkpt>
					<trkpt lat="45.822750" lon="4.577150">
						<ele>313</ele>
						<time>2024-08-13T17:38:33Z</time>
					</trkpt>
					<trkpt lat="45.822500" lon="4.577720">
						<ele>313</ele>
						<time>2024-08-13T17:38:42Z</time>
					</trkpt>
					<trkpt lat="45.821110" lon="4.580330">
						<ele>315</ele>
						<time>2024-08-13T17:39:22Z</time>
					</trkpt>
					<trkpt lat="45.820210" lon="4.581310">
						<ele>321</ele>
						<time>2024-08-13T17:39:42Z</time>
					</trkpt>
					<trkpt lat="45.820060" lon="4.581570">
						<ele>322</ele>
						<time>2024-08-13T17:39:47Z</time>
					</trkpt>
					<trkpt lat="45.819900" lon="4.582040">
						<ele>322</ele>
						<time>2024-08-13T17:39:53Z</time>
					</trkpt>
					<trkpt lat="45.819840" lon="4.582320">
						<ele>322</ele>
						<time>2024-08-13T17:39:57Z</time>
					</trkpt>
					<trkpt lat="45.819830" lon="4.582770">
						<ele>322</ele>
						<time>2024-08-13T17:40:02Z</time>
					</trkpt>
					<trkpt lat="45.819870" lon="4.583050">
						<ele>323</ele>
						<time>2024-08-13T17:40:06Z</time>
					</trkpt>
					<trkpt lat="45.819980" lon="4.583460">
						<ele>323</ele>
						<time>2024-08-13T17:40:11Z</time>
					</trkpt>
					<trkpt lat="45.820120" lon="4.583800">
						<ele>321</ele>
						<time>2024-08-13T17:40:16Z</time>
					</trkpt>
					<trkpt lat="45.820570" lon="4.584590">
						<ele>317</ele>
						<time>2024-08-13T17:40:29Z</time>
					</trkpt>
					<trkpt lat="45.821260" lon="4.585700">
						<ele>312</ele>
						<time>2024-08-13T17:40:47Z</time>
					</trkpt>
					<trkpt lat="45.821670" lon="4.586550">
						<ele>311</ele>
						<time>2024-08-13T17:41:00Z</time>
					</trkpt>
					<trkpt lat="45.822100" lon="4.587610">
						<ele>308</ele>
						<time>2024-08-13T17:41:15Z</time>
					</trkpt>
					<trkpt lat="45.822330" lon="4.588370">
						<ele>304</ele>
						<time>2024-08-13T17:41:26Z</time>
					</trkpt>
					<trkpt lat="45.822610" lon="4.589650">
						<ele>302</ele>
						<time>2024-08-13T17:41:42Z</time>
					</trkpt>
					<trkpt lat="45.823310" lon="4.592320">
						<ele>296</ele>
						<time>2024-08-13T17:42:18Z</time>
					</trkpt>
					<trkpt lat="45.823490" lon="4.592910">
						<ele>297</ele>
						<time>2024-08-13T17:42:26Z</time>
					</trkpt>
					<trkpt lat="45.823850" lon="4.593580">
						<ele>296</ele>
						<time>2024-08-13T17:42:36Z</time>
					</trkpt>
					<trkpt lat="45.824020" lon="4.594000">
						<ele>296</ele>
						<time>2024-08-13T17:42:42Z</time>
					</trkpt>
					<trkpt lat="45.824290" lon="4.594810">
						<ele>295</ele>
						<time>2024-08-13T17:42:53Z</time>
					</trkpt>
					<trkpt lat="45.824250" lon="4.594890">
						<ele>296</ele>
						<time>2024-08-13T17:42:54Z</time>
					</trkpt>
					<trkpt lat="45.824250" lon="4.595000">
						<ele>296</ele>
						<time>2024-08-13T17:42:56Z</time>
					</trkpt>
					<trkpt lat="45.824340" lon="4.595090">
						<ele>296</ele>
						<time>2024-08-13T17:42:58Z</time>
					</trkpt>
					<trkpt lat="45.824410" lon="4.595060">
						<ele>295</ele>
						<time>2024-08-13T17:42:59Z</time>
					</trkpt>
					<trkpt lat="45.824840" lon="4.595730">
						<ele>295</ele>
						<time>2024-08-13T17:43:10Z</time>
					</trkpt>
					<trkpt lat="45.826010" lon="4.598290">
						<ele>292</ele>
						<time>2024-08-13T17:43:48Z</time>
					</trkpt>
					<trkpt lat="45.826200" lon="4.598940">
						<ele>292</ele>
						<time>2024-08-13T17:43:57Z</time>
					</trkpt>
					<trkpt lat="45.826210" lon="4.599080">
						<ele>292</ele>
						<time>2024-08-13T17:43:59Z</time>
					</trkpt>
					<trkpt lat="45.826180" lon="4.599100">
						<ele>292</ele>
						<time>2024-08-13T17:43:59Z</time>
					</trkpt>
					<trkpt lat="45.826170" lon="4.599270">
						<ele>291</ele>
						<time>2024-08-13T17:44:02Z</time>
					</trkpt>
					<trkpt lat="45.826510" lon="4.599750">
						<ele>290</ele>
						<time>2024-08-13T17:44:10Z</time>
					</trkpt>
					<trkpt lat="45.826580" lon="4.599810">
						<ele>290</ele>
						<time>2024-08-13T17:44:11Z</time>
					</trkpt>
					<trkpt lat="45.826800" lon="4.600150">
						<ele>288</ele>
						<time>2024-08-13T17:44:17Z</time>
					</trkpt>
					<trkpt lat="45.827380" lon="4.600950">
						<ele>284</ele>
						<time>2024-08-13T17:44:32Z</time>
					</trkpt>
					<trkpt lat="45.827610" lon="4.601310">
						<ele>280</ele>
						<time>2024-08-13T17:44:38Z</time>
					</trkpt>
					<trkpt lat="45.827740" lon="4.601600">
						<ele>278</ele>
						<time>2024-08-13T17:44:42Z</time>
					</trkpt>
					<trkpt lat="45.827830" lon="4.601910">
						<ele>276</ele>
						<time>2024-08-13T17:44:46Z</time>
					</trkpt>
					<trkpt lat="45.828050" lon="4.603230">
						<ele>272</ele>
						<time>2024-08-13T17:45:03Z</time>
					</trkpt>
					<trkpt lat="45.828140" lon="4.603550">
						<ele>272</ele>
						<time>2024-08-13T17:45:07Z</time>
					</trkpt>
					<trkpt lat="45.828470" lon="4.604230">
						<ele>273</ele>
						<time>2024-08-13T17:45:17Z</time>
					</trkpt>
					<trkpt lat="45.828490" lon="4.604320">
						<ele>272</ele>
						<time>2024-08-13T17:45:19Z</time>
					</trkpt>
					<trkpt lat="45.828550" lon="4.604370">
						<ele>272</ele>
						<time>2024-08-13T17:45:20Z</time>
					</trkpt>
					<trkpt lat="45.828710" lon="4.604630">
						<ele>272</ele>
						<time>2024-08-13T17:45:24Z</time>
					</trkpt>
					<trkpt lat="45.828800" lon="4.605020">
						<ele>271</ele>
						<time>2024-08-13T17:45:29Z</time>
					</trkpt>
					<trkpt lat="45.828850" lon="4.605520">
						<ele>270</ele>
						<time>2024-08-13T17:45:35Z</time>
					</trkpt>
					<trkpt lat="45.828800" lon="4.605790">
						<ele>268</ele>
						<time>2024-08-13T17:45:39Z</time>
					</trkpt>
					<trkpt lat="45.828720" lon="4.606000">
						<ele>266</ele>
						<time>2024-08-13T17:45:42Z</time>
					</trkpt>
					<trkpt lat="45.828550" lon="4.606320">
						<ele>264</ele>
						<time>2024-08-13T17:45:47Z</time>
					</trkpt>
					<trkpt lat="45.828430" lon="4.606450">
						<ele>262</ele>
						<time>2024-08-13T17:45:50Z</time>
					</trkpt>
					<trkpt lat="45.828170" lon="4.606620">
						<ele>259</ele>
						<time>2024-08-13T17:45:55Z</time>
					</trkpt>
					<trkpt lat="45.828010" lon="4.606650">
						<ele>257</ele>
						<time>2024-08-13T17:45:57Z</time>
					</trkpt>
					<trkpt lat="45.827640" lon="4.606570">
						<ele>252</ele>
						<time>2024-08-13T17:46:04Z</time>
					</trkpt>
					<trkpt lat="45.825490" lon="4.605140">
						<ele>242</ele>
						<time>2024-08-13T17:46:46Z</time>
					</trkpt>
					<trkpt lat="45.824900" lon="4.604840">
						<ele>245</ele>
						<time>2024-08-13T17:46:57Z</time>
					</trkpt>
					<trkpt lat="45.824080" lon="4.604490">
						<ele>244</ele>
						<time>2024-08-13T17:47:13Z</time>
					</trkpt>
					<trkpt lat="45.823940" lon="4.604390">
						<ele>245</ele>
						<time>2024-08-13T17:47:15Z</time>
					</trkpt>
					<trkpt lat="45.823780" lon="4.604330">
						<ele>245</ele>
						<time>2024-08-13T17:47:18Z</time>
					</trkpt>
					<trkpt lat="45.823600" lon="4.604310">
						<ele>245</ele>
						<time>2024-08-13T17:47:22Z</time>
					</trkpt>
					<trkpt lat="45.823400" lon="4.604330">
						<ele>244</ele>
						<time>2024-08-13T17:47:25Z</time>
					</trkpt>
					<trkpt lat="45.823350" lon="4.604360">
						<ele>243</ele>
						<time>2024-08-13T17:47:26Z</time>
					</trkpt>
					<trkpt lat="45.823280" lon="4.604430">
						<ele>242</ele>
						<time>2024-08-13T17:47:28Z</time>
					</trkpt>
					<trkpt lat="45.823150" lon="4.604690">
						<ele>238</ele>
						<time>2024-08-13T17:47:32Z</time>
					</trkpt>
					<trkpt lat="45.823060" lon="4.604770">
						<ele>237</ele>
						<time>2024-08-13T17:47:34Z</time>
					</trkpt>
					<trkpt lat="45.823020" lon="4.604900">
						<ele>236</ele>
						<time>2024-08-13T17:47:35Z</time>
					</trkpt>
					<trkpt lat="45.823030" lon="4.605030">
						<ele>234</ele>
						<time>2024-08-13T17:47:37Z</time>
					</trkpt>
					<trkpt lat="45.823130" lon="4.605270">
						<ele>233</ele>
						<time>2024-08-13T17:47:40Z</time>
					</trkpt>
					<trkpt lat="45.823150" lon="4.605450">
						<ele>233</ele>
						<time>2024-08-13T17:47:43Z</time>
					</trkpt>
					<trkpt lat="45.823120" lon="4.605770">
						<ele>233</ele>
						<time>2024-08-13T17:47:47Z</time>
					</trkpt>
					<trkpt lat="45.823140" lon="4.605960">
						<ele>233</ele>
						<time>2024-08-13T17:47:49Z</time>
					</trkpt>
					<trkpt lat="45.823180" lon="4.606110">
						<ele>233</ele>
						<time>2024-08-13T17:47:51Z</time>
					</trkpt>
					<trkpt lat="45.823300" lon="4.606340">
						<ele>233</ele>
						<time>2024-08-13T17:47:55Z</time>
					</trkpt>
					<trkpt lat="45.823340" lon="4.606500">
						<ele>233</ele>
						<time>2024-08-13T17:47:57Z</time>
					</trkpt>
					<trkpt lat="45.823310" lon="4.606540">
						<ele>233</ele>
						<time>2024-08-13T17:47:57Z</time>
					</trkpt>
					<trkpt lat="45.823300" lon="4.606640">
						<ele>233</ele>
						<time>2024-08-13T17:47:59Z</time>
					</trkpt>
					<trkpt lat="45.823340" lon="4.606730">
						<ele>233</ele>
						<time>2024-08-13T17:48:00Z</time>
					</trkpt>
					<trkpt lat="45.823380" lon="4.606740">
						<ele>233</ele>
						<time>2024-08-13T17:48:01Z</time>
					</trkpt>
					<trkpt lat="45.823460" lon="4.606660">
						<ele>233</ele>
						<time>2024-08-13T17:48:02Z</time>
					</trkpt>
					<trkpt lat="45.823730" lon="4.607020">
						<ele>232</ele>
						<time>2024-08-13T17:48:09Z</time>
					</trkpt>
					<trkpt lat="45.823910" lon="4.607210">
						<ele>231</ele>
						<time>2024-08-13T17:48:13Z</time>
					</trkpt>
					<trkpt lat="45.824680" lon="4.607860">
						<ele>231</ele>
						<time>2024-08-13T17:48:29Z</time>
					</trkpt>
					<trkpt lat="45.825070" lon="4.608150">
						<ele>230</ele>
						<time>2024-08-13T17:48:37Z</time>
					</trkpt>
					</trkseg>
				</trk>
			</gpx>